[[{"header":{"parameterUnit":"m.s-1","parameterCategory":1,"la1":30.6,"la2":29.2853,"lo1":-89.7004,"lo2":-87.6739,"dy":0.0162,"dx":0.0183,"nx":112,"ny":82,"refTime":"2023-08-29T06:00:00:Z","depth":0,"parameterNumber":2,"parameterNumberName":"U-component_of_WINDS"},"data":[0.0,0.0,0.0,0.0,0.0,0.0,0.0,0.0,0.0,0.0,0.0,0.0,0.0,0.0,0.0,0.0,0.0,0.0,0.0,0.0,0.0,0.0,0.0,0.0,0.0,0.0,0.0,0.0,0.0,0.0,0.0,0.0,0.0,0.0,0.0,0.0,0.0,0.0,0.0,0.0,0.0,0.0,0.0,0.0,0.0,0.0,0.0,0.0,0.0,0.0,0.0,0.0,0.0,0.0,0.0,0.0,0.0,0.0,0.0,0.0,0.0,0.0,0.0,0.0,0.0,0.0,0.0,0.0,0.0,0.0,0.0,0.0,0.0,0.0,0.0,0.0,0.0,0.0,0.0,0.0,0.0,0.0,0.0,0.0,0.0,0.0,0.0,0.0,0.0,0.0,-0.7988,-0.7988,-0.7988,-0.7988,-0.7988,-0.7988,-0.7988,-0.7988,0.0,0.0,0.0,0.0,0.0,0.0,0.0,0.0,0.0,0.0,0.0,0.0,0.0,0.0,0.0,0.0,0.0,0.0,0.0,0.0,0.0,0.0,0.0,0.0,0.0,0.0,0.0,0.0,0.0,0.0,0.0,0.0,0.0,0.0,0.0,0.0,0.0,0.0,0.0,0.0,0.0,0.0,0.0,0.0,0.0,0.0,0.0,0.0,0.0,0.0,0.0,0.0,0.0,0.0,0.0,0.0,0.0,0.0,0.0,0.0,0.0,0.0,0.0,0.0,0.0,0.0,0.0,0.0,0.0,0.0,0.0,0.0,0.0,0.0,0.0,0.0,0.0,0.0,0.0,0.0,0.0,0.0,0.0,0.0,0.0,0.0,0.0,0.0,0.0,0.0,0.0,0.0,0.0,0.0,0.0,0.0,0.0,0.0,0.0,0.0,0.0,0.0,0.0,0.0,-0.7988,-0.7988,-0.7988,-0.7988,-0.7988,-0.7988,-0.7988,-0.7988,0.0,0.0,0.0,0.0,0.0,0.0,0.0,0.0,0.0,0.0,0.0,0.0,0.0,0.0,0.0,0.0,0.0,0.0,0.0,0.0,0.0,0.0,0.0,0.0,0.0,0.0,0.0,0.0,0.0,0.0,0.0,0.0,0.0,0.0,0.0,0.0,0.0,0.0,0.0,0.0,0.0,0.0,0.0,0.0,0.0,0.0,0.0,0.0,0.0,0.0,0.0,0.0,0.0,0.0,0.0,0.0,0.0,0.0,0.0,0.0,0.0,0.0,0.0,0.0,0.0,0.0,0.0,0.0,0.0,0.0,0.0,0.0,0.0,0.0,0.0,0.0,0.0,0.0,0.0,0.0,0.0,0.0,0.0,0.0,0.0,0.0,0.0,0.0,0.0,0.0,0.0,0.0,0.0,0.0,0.0,0.0,0.0,0.0,0.0,0.0,0.0,0.0,0.0,-0.7988,-0.7988,-0.7988,-0.7988,-0.7988,-0.7988,-0.7988,-0.7988,-0.7988,-0.7988,0.0,0.0,0.0,0.0,0.0,0.0,0.0,0.0,0.0,0.0,0.0,0.0,0.0,0.0,0.0,0.0,0.0,0.0,0.0,0.0,0.0,0.0,0.0,0.0,0.0,0.0,0.0,0.0,0.0,0.0,0.0,0.0,0.0,0.0,0.0,0.0,0.0,0.0,0.0,0.0,0.0,0.0,0.0,0.0,0.0,0.0,0.0,0.0,0.0,0.0,0.0,0.0,0.0,0.0,0.0,0.0,0.0,0.0,0.0,0.0,0.0,0.0,0.0,0.0,0.0,0.0,0.0,0.0,0.0,0.0,0.0,0.0,0.0,0.0,0.0,0.0,0.0,0.0,0.0,0.0,0.0,0.0,0.0,0.0,0.0,0.0,0.0,0.0,0.0,0.0,0.0,0.0,0.0,0.0,0.0,0.0,0.0,0.0,0.0,0.0,0.0,0.0,-0.7988,-0.7988,-0.7988,-0.7988,-0.7988,-0.7988,-0.7988,-0.7988,-0.7988,-0.7988,0.0,0.0,0.0,0.0,0.0,0.0,0.0,0.0,0.0,0.0,0.0,0.0,0.0,0.0,0.0,0.0,0.0,0.0,0.0,0.0,0.0,0.0,0.0,0.0,0.0,0.0,0.0,0.0,0.0,0.0,0.0,0.0,0.0,0.0,0.0,0.0,0.0,0.0,0.0,0.0,0.0,0.0,0.0,0.0,0.0,0.0,0.0,0.0,0.0,0.0,0.0,0.0,0.0,0.0,0.0,0.0,0.0,0.0,0.0,0.0,0.0,0.0,0.0,0.0,0.0,0.0,0.0,0.0,0.0,0.0,0.0,0.0,0.0,0.0,0.0,0.0,0.0,0.0,0.0,0.0,0.0,0.0,0.0,0.0,0.0,0.0,0.0,0.0,0.0,0.0,0.0,0.0,0.0,0.0,0.0,0.0,0.0,0.0,0.0,0.0,0.0,0.0,-0.7988,-0.7988,-0.7988,-0.7988,-0.7988,-0.7988,-0.7988,-0.7988,-0.7988,-0.7988,0.0,0.0,0.0,0.0,0.0,0.0,0.0,0.0,0.0,0.0,0.0,0.0,0.0,0.0,0.0,0.0,0.0,0.0,0.0,0.0,0.0,0.0,0.0,0.0,0.0,0.0,0.0,0.0,0.0,0.0,0.0,0.0,0.0,0.0,0.0,0.0,0.0,0.0,0.0,0.0,0.0,0.0,0.0,0.0,0.0,0.0,0.0,0.0,0.0,0.0,0.0,0.0,0.0,0.0,0.0,0.0,0.0,0.0,0.0,0.0,0.0,0.0,0.0,0.0,0.0,0.0,0.0,0.0,0.0,0.0,0.0,0.0,0.0,0.0,0.0,0.0,0.0,0.0,0.0,0.0,0.0,0.0,0.0,0.0,0.0,0.0,0.0,0.0,0.0,0.0,0.0,0.0,0.0,0.0,0.0,0.0,0.0,0.0,0.0,0.0,0.0,0.0,-0.8531,-0.7988,0.0,-0.8726,-0.892,-0.8088,-0.8775,-0.8874,-0.8038,0.0,0.0,0.0,0.0,0.0,0.0,0.0,0.0,0.0,0.0,0.0,0.0,0.0,0.0,0.0,0.0,0.0,0.0,0.0,0.0,0.0,0.0,0.0,0.0,0.0,0.0,0.0,0.0,0.0,0.0,0.0,0.0,0.0,0.0,0.0,0.0,0.0,0.0,0.0,0.0,0.0,0.0,0.0,0.0,0.0,0.0,0.0,0.0,0.0,0.0,0.0,0.0,0.0,0.0,0.0,0.0,0.0,0.0,0.0,0.0,0.0,0.0,0.0,0.0,0.0,0.0,0.0,0.0,0.0,0.0,0.0,0.0,0.0,0.0,0.0,0.0,0.0,0.0,0.0,0.0,0.0,0.0,0.0,0.0,0.0,0.0,0.0,0.0,0.0,0.0,0.0,0.0,0.0,0.0,0.0,0.0,0.0,0.0,0.0,0.0,0.0,0.0,-0.9998,-0.9217,-0.8627,0.0,-0.9801,-1.0047,-0.8726,-0.946,-0.9608,-0.8676,0.0,0.0,0.0,0.0,0.0,0.0,0.0,0.0,0.0,0.0,0.0,0.0,0.0,0.0,0.0,0.0,0.0,0.0,0.0,0.0,0.0,0.0,0.0,0.0,0.0,0.0,0.0,0.0,0.0,0.0,0.0,0.0,0.0,0.0,0.0,0.0,0.0,0.0,0.0,0.0,0.0,0.0,0.0,0.0,0.0,0.0,0.0,0.0,0.0,0.0,0.0,0.0,0.0,0.0,0.0,0.0,0.0,0.0,0.0,0.0,0.0,0.0,0.0,0.0,0.0,0.0,0.0,0.0,0.0,0.0,0.0,0.0,0.0,0.0,0.0,0.0,0.0,0.0,0.0,0.0,0.0,0.0,0.0,0.0,0.0,0.0,0.0,0.0,0.0,0.0,0.0,0.0,0.0,0.0,0.0,0.0,0.0,0.0,0.0,0.0,0.0,0.0,-0.9998,-0.9998,-0.9998,-0.9998,-1.1121,-1.1409,-1.0096,-0.9998,-0.9998,0.0,0.0,0.0,0.0,0.0,0.0,0.0,0.0,0.0,0.0,0.0,0.0,0.0,0.0,0.0,0.0,0.0,0.0,0.0,0.0,0.0,0.0,0.0,0.0,0.0,0.0,0.0,0.0,0.0,0.0,0.0,0.0,0.0,0.0,0.0,0.0,0.0,0.0,0.0,0.0,0.0,0.0,0.0,0.0,0.0,0.0,0.0,0.0,0.0,0.0,0.0,0.0,0.0,0.0,0.0,0.0,0.0,0.0,0.0,0.0,0.0,0.0,0.0,0.0,0.0,0.0,0.0,0.0,0.0,0.0,0.0,0.0,0.0,0.0,0.0,0.0,0.0,0.0,0.0,0.0,0.0,0.0,0.0,0.0,0.0,0.0,0.0,0.0,0.0,0.0,0.0,0.0,0.0,0.0,0.0,0.0,0.0,0.0,0.0,0.0,0.0,0.0,0.0,-1.1365,-1.0583,-0.9657,-0.8676,-1.1404,-1.2425,-1.0194,-1.0828,-1.1365,-1.1365,0.0,0.0,0.0,0.0,0.0,0.0,0.0,0.0,0.0,0.0,0.0,0.0,0.0,0.0,0.0,0.0,0.0,0.0,0.0,0.0,0.0,0.0,0.0,0.0,0.0,0.0,0.0,0.0,0.0,0.0,0.0,0.0,0.0,0.0,0.0,0.0,0.0,0.0,0.0,0.0,0.0,0.0,0.0,0.0,0.0,0.0,0.0,0.0,0.0,0.0,0.0,0.0,0.0,0.0,0.0,0.0,0.0,0.0,0.0,0.0,0.0,0.0,0.0,0.0,0.0,0.0,0.0,0.0,0.0,0.0,0.0,0.0,0.0,0.0,0.0,0.0,0.0,0.0,0.0,0.0,0.0,0.0,0.0,0.0,0.0,0.0,0.0,0.0,0.0,0.0,0.0,0.0,0.0,0.0,0.0,0.0,0.0,0.0,0.0,0.0,0.0,0.0,-1.2716,-1.2037,-1.1258,-1.0427,-1.2952,-1.383,-1.1745,-1.228,-1.2716,-1.2716,0.0,0.0,0.0,0.0,0.0,0.0,0.0,0.0,0.0,0.0,0.0,0.0,0.0,0.0,0.0,0.0,0.0,0.0,0.0,0.0,0.0,0.0,0.0,0.0,0.0,0.0,0.0,0.0,0.0,0.0,0.0,0.0,0.0,0.0,0.0,0.0,0.0,0.0,0.0,0.0,0.0,0.0,0.0,0.0,0.0,0.0,0.0,0.0,0.0,0.0,0.0,0.0,0.0,0.0,0.0,0.0,0.0,0.0,0.0,0.0,0.0,0.0,0.0,0.0,0.0,0.0,0.0,0.0,0.0,0.0,0.0,0.0,0.0,0.0,0.0,0.0,0.0,0.0,0.0,0.0,0.0,0.0,0.0,0.0,0.0,0.0,0.0,0.0,0.0,0.0,0.0,0.0,0.0,0.0,0.0,0.0,0.0,0.0,0.0,0.0,0.0,0.0,-1.3926,-1.3926,-1.3872,-1.3728,-1.4949,-1.5289,-1.4022,-1.3926,-1.3974,-1.407,0.0,0.0,0.0,0.0,0.0,0.0,0.0,0.0,0.0,0.0,0.0,0.0,0.0,0.0,0.0,0.0,0.0,0.0,0.0,0.0,0.0,0.0,0.0,0.0,0.0,0.0,0.0,0.0,0.0,0.0,0.0,0.0,0.0,0.0,0.0,0.0,0.0,0.0,0.0,0.0,0.0,0.0,0.0,0.0,0.0,0.0,0.0,0.0,0.0,0.0,0.0,0.0,0.0,0.0,0.0,0.0,0.0,0.0,0.0,0.0,-1.7416,0.0,0.0,0.0,0.0,0.0,0.0,0.0,0.0,0.0,0.0,0.0,0.0,0.0,0.0,0.0,0.0,0.0,0.0,0.0,0.0,0.0,0.0,0.0,0.0,0.0,0.0,0.0,0.0,0.0,0.0,0.0,0.0,0.0,0.0,0.0,0.0,0.0,0.0,0.0,0.0,0.0,-1.3926,-1.3926,-1.3488,-1.2431,-1.4418,-1.5289,-1.4022,-1.3926,-1.4316,-1.5337,-1.3445,0.0,0.0,0.0,0.0,0.0,0.0,0.0,0.0,0.0,0.0,0.0,0.0,0.0,0.0,0.0,0.0,0.0,0.0,0.0,0.0,0.0,0.0,0.0,0.0,0.0,0.0,0.0,0.0,0.0,0.0,0.0,0.0,0.0,0.0,0.0,0.0,0.0,0.0,0.0,0.0,0.0,0.0,0.0,0.0,0.0,0.0,0.0,0.0,0.0,0.0,0.0,0.0,0.0,0.0,0.0,0.0,0.0,0.0,0.0,0.0,-1.6842,0.0,0.0,0.0,0.0,0.0,0.0,0.0,0.0,0.0,0.0,0.0,0.0,0.0,0.0,0.0,0.0,0.0,0.0,0.0,0.0,0.0,0.0,0.0,0.0,0.0,0.0,0.0,0.0,0.0,0.0,0.0,0.0,0.0,0.0,0.0,0.0,0.0,0.0,0.0,0.0,-1.48,-1.48,-1.4561,-1.3836,-1.5003,-1.5534,-1.4848,-1.48,-1.5099,-1.5778,-1.4519,0.0,0.0,0.0,0.0,0.0,0.0,0.0,0.0,0.0,0.0,0.0,0.0,0.0,0.0,0.0,0.0,0.0,0.0,0.0,0.0,0.0,0.0,0.0,0.0,0.0,0.0,0.0,0.0,0.0,0.0,0.0,0.0,0.0,0.0,0.0,0.0,0.0,0.0,0.0,0.0,0.0,0.0,0.0,0.0,0.0,0.0,0.0,0.0,0.0,0.0,0.0,0.0,0.0,-2.0436,-2.099,-2.099,-2.099,-2.0229,-1.8847,-1.7194,-1.64,-1.6346,-1.6346,0.0,0.0,0.0,0.0,0.0,0.0,0.0,0.0,0.0,0.0,0.0,0.0,0.0,0.0,0.0,0.0,0.0,0.0,0.0,0.0,0.0,0.0,0.0,0.0,-0.8825,-0.9361,-0.8233,0.0,0.0,0.0,0.0,0.0,0.0,0.0,0.0,0.0,0.0,0.0,-1.5784,-1.5784,-1.5784,-1.5784,-1.5784,-1.5784,-1.5784,-1.5784,-1.5784,-1.5784,-1.5784,-1.5784,0.0,0.0,0.0,0.0,0.0,0.0,0.0,0.0,0.0,0.0,0.0,0.0,0.0,0.0,0.0,0.0,0.0,0.0,0.0,0.0,0.0,0.0,0.0,0.0,0.0,0.0,0.0,0.0,0.0,0.0,0.0,0.0,-1.6226,-1.6266,0.0,0.0,0.0,0.0,0.0,0.0,0.0,0.0,0.0,0.0,0.0,0.0,0.0,-2.0798,-1.9627,-1.9576,-1.9013,-1.7891,-1.8042,-1.8146,-1.8146,-1.8146,-1.8021,-1.7764,-1.7277,0.0,-1.6647,-1.6647,0.0,0.0,0.0,0.0,0.0,0.0,0.0,0.0,0.0,0.0,0.0,0.0,0.0,0.0,0.0,0.0,0.0,0.0,0.0,0.0,0.0,0.0,-0.7988,-0.7988,-0.8137,-0.8237,0.0,-0.9801,-1.1409,-1.1409,-1.1653,0.0,0.0,0.0,0.0,0.0,0.0,0.0,-1.5784,-1.5784,-1.5784,-1.5784,-1.5784,-1.5784,-1.5784,-1.5784,-1.5784,-1.5784,-1.5784,-1.5784,-1.5784,-1.5635,0.0,0.0,0.0,0.0,0.0,0.0,0.0,0.0,0.0,0.0,0.0,0.0,0.0,0.0,0.0,0.0,0.0,0.0,0.0,0.0,0.0,0.0,0.0,0.0,0.0,0.0,0.0,0.0,0.0,-1.6433,-1.658,-1.6797,-1.6931,-1.7021,0.0,0.0,0.0,0.0,0.0,0.0,0.0,0.0,0.0,-1.942,-1.942,-1.9109,-1.8506,-1.8454,-1.8199,-1.7582,-1.7582,-1.7582,-1.7582,-1.7582,-1.7582,-1.7575,-1.7501,-1.7315,-1.7181,-1.7021,-1.7005,-1.7025,0.0,0.0,0.0,0.0,-1.7201,-1.7071,-1.6177,-1.5448,-1.4774,-1.3925,0.0,0.0,0.0,0.0,0.0,0.0,0.0,0.0,0.0,0.0,-0.8147,-0.8012,-0.7988,-0.7988,-0.7988,-0.892,-0.9702,0.0,-1.0877,-1.2091,-1.2673,0.0,0.0,0.0,0.0,-1.5784,-1.5784,-1.5784,-1.5784,-1.5784,-1.5784,-1.5784,-1.5784,-1.5784,-1.5784,-1.5784,-1.5784,-1.5784,-1.5784,-1.5784,-1.5972,0.0,0.0,0.0,0.0,0.0,0.0,0.0,0.0,0.0,0.0,0.0,0.0,0.0,0.0,0.0,0.0,0.0,0.0,0.0,0.0,0.0,0.0,0.0,0.0,0.0,0.0,0.0,0.0,-1.6774,-1.6901,-1.7172,-1.7266,-1.7393,0.0,0.0,0.0,0.0,0.0,0.0,-1.7582,-1.7582,-1.7582,-1.7582,-1.7582,-1.7582,-1.7582,-1.7582,-1.7582,-1.7582,-1.7582,-1.7582,-1.7582,-1.7582,-1.7582,-1.7582,-1.7582,-1.7582,-1.7562,-1.74,-1.7313,-1.7333,-1.7502,-1.7582,-1.7582,-1.7582,-1.7582,-1.7443,-1.6221,-1.5304,-1.4511,-1.3435,-1.2587,-1.1768,-1.0795,0.0,0.0,0.0,0.0,-0.8652,-0.8391,-0.8378,-0.8286,-0.8136,-0.8099,-0.8089,-0.7998,-0.8283,-0.8432,0.0,-0.9558,-1.1023,-1.1361,0.0,0.0,0.0,0.0,-1.5439,-1.5778,-1.5784,-1.5784,-1.5784,-1.5784,-1.5784,-1.5784,-1.5784,-1.5784,-1.5784,-1.5784,-1.5784,-1.5784,-1.5905,-1.6086,-1.638,0.0,0.0,0.0,0.0,0.0,0.0,0.0,0.0,0.0,0.0,0.0,0.0,0.0,0.0,0.0,0.0,0.0,0.0,0.0,0.0,0.0,0.0,0.0,0.0,0.0,0.0,0.0,0.0,0.0,-1.7199,-1.744,0.0,0.0,0.0,0.0,-1.7582,-1.7582,-1.7582,-1.7582,-1.7582,-1.7582,-1.7582,-1.7582,-1.7582,-1.7582,-1.7582,-1.7582,-1.7582,-1.7582,-1.7582,-1.7582,-1.7582,-1.7582,-1.7582,-1.7582,-1.7582,-1.7582,-1.7569,-1.7562,-1.7562,-1.7575,-1.7582,-1.7582,-1.7582,-1.7582,-1.7582,-1.7509,-1.5672,-1.3357,-1.3303,-1.1415,-0.9092,-0.9044,-0.8937,0.0,0.0,-0.871,-0.8672,-0.8513,-0.8472,-0.8435,-0.8292,-0.831,-0.8218,-0.8022,-0.9019,-0.9509,0.0,-0.8088,-0.8577,-0.985,0.0,-1.1068,-1.3632,-1.4022,-1.4411,-1.5635,-1.5784,-1.5784,-1.5784,-1.5784,-1.5784,-1.5784,-1.5784,-1.5784,-1.5784,-1.5784,-1.5784,-1.5784,-1.6099,-1.6386,-1.6673,-1.7025,0.0,0.0,0.0,0.0,0.0,0.0,0.0,0.0,0.0,0.0,0.0,0.0,0.0,0.0,0.0,0.0,0.0,0.0,0.0,0.0,0.0,0.0,0.0,0.0,0.0,0.0,0.0,0.0,-1.7481,-1.7522,0.0,-1.7582,-1.7582,-1.7582,-1.7582,-1.7582,-1.7582,-1.7582,-1.7582,-1.7582,-1.7582,-1.7582,-1.7582,-1.7582,-1.7582,-1.7582,-1.7582,-1.7582,-1.7582,-1.7582,-1.7582,-1.7582,-1.7582,-1.7582,-1.7582,-1.7582,-1.7582,-1.7582,-1.7582,-1.7582,-1.7582,-1.7582,-1.7582,-1.7582,-1.7477,-1.6499,-1.5524,-1.4341,-1.2512,-1.0511,-0.8885,-0.8885,-0.8885,-0.8871,-0.8817,-0.8804,-0.8821,-0.8669,-0.8628,-0.8591,-0.8442,-0.8336,-0.8255,-0.8201,-0.8457,-0.8581,-0.8088,-0.8676,-0.946,-0.9899,-0.9998,-1.0583,-1.2334,-1.2624,-1.277,-1.3253,-1.4028,-1.4561,-1.4561,-1.5289,-1.5784,-1.5784,-1.5784,-1.5784,-1.5784,-1.5784,-1.5912,-1.6106,-1.6219,-1.6549,-1.7032,-1.7146,-1.7347,0.0,0.0,0.0,0.0,0.0,0.0,0.0,0.0,0.0,0.0,0.0,0.0,0.0,0.0,0.0,0.0,0.0,0.0,0.0,0.0,0.0,0.0,0.0,0.0,0.0,0.0,-1.6876,-1.6876,-1.7312,-1.7582,-1.7582,-1.7582,-1.7582,-1.7582,-1.7582,-1.7582,-1.7582,-1.7582,-1.7582,-1.7582,-1.7582,-1.7582,-1.7582,-1.7582,-1.7582,-1.7582,-1.7582,-1.7582,-1.7582,-1.7582,-1.7582,-1.7582,-1.7582,-1.7582,-1.7582,-1.7582,-1.7582,-1.7582,-1.7582,-1.7582,-1.7582,-1.7582,-1.7312,-1.6605,-1.4609,-1.396,-1.3534,-1.116,-0.9699,-0.8885,-0.8885,-0.8885,-0.8885,-0.8885,-0.8885,-0.8861,-0.8815,-0.8788,-0.875,-0.8598,-0.8486,-0.8391,-0.8344,-0.8191,-0.8102,-0.8002,-0.8726,-0.9312,-0.9312,-0.9312,-0.9752,-1.1072,-1.1268,-1.1414,-1.1848,-1.2673,-1.3392,-1.3872,-1.4657,-1.5337,-1.5778,-1.5784,-1.5784,-1.5784,-1.5784,-1.5965,-1.6308,-1.6366,-1.6697,-1.7192,-1.73,-1.744,-1.7582,0.0,0.0,0.0,0.0,0.0,0.0,0.0,0.0,0.0,0.0,0.0,0.0,0.0,0.0,0.0,0.0,0.0,0.0,0.0,0.0,0.0,0.0,0.0,-1.3264,-1.4449,-1.531,-1.531,-1.6605,-1.7529,-1.7529,-1.7582,-1.7582,-1.7529,-1.7529,-1.7529,-1.7529,-1.7529,-1.7529,-1.7582,-1.7582,-1.7582,-1.7582,-1.7582,-1.7582,-1.7582,-1.7582,-1.7582,-1.7582,-1.7582,-1.7582,-1.7582,-1.7582,-1.7582,-1.7582,-1.7582,-1.7582,-1.7582,-1.7582,-1.7582,-1.7582,-1.7529,-1.6552,-1.4877,-1.2077,-1.1051,-1.0781,-0.9372,-0.8885,-0.8885,-0.8885,-0.8885,-0.8885,-0.8885,-0.8885,-0.8885,-0.8885,-0.8885,-0.8848,-0.8754,-0.8713,-0.8632,-0.8347,-0.833,-0.8225,-0.8025,-0.7992,-0.7988,-0.7988,-0.7988,-0.8432,-0.9752,-0.9953,0.0,-1.1604,-1.1799,-1.2334,-1.368,-1.3878,-1.4411,-1.5683,-1.5784,-1.5784,-1.5784,-1.5791,-1.5979,-1.6321,-1.6567,-1.686,-1.7206,-1.7494,-1.7582,-1.7529,0.0,0.0,0.0,0.0,0.0,0.0,0.0,0.0,0.0,0.0,0.0,0.0,0.0,0.0,0.0,0.0,0.0,0.0,0.0,0.0,0.0,0.0,-1.2077,-1.3156,-1.3642,-1.3857,-1.3857,-1.515,-1.6015,-1.6015,-1.6982,-1.7147,-1.6062,-1.6015,-1.6015,-1.6015,-1.6015,-1.6499,-1.7582,-1.7582,-1.7582,-1.7582,-1.7582,-1.7582,-1.7582,-1.7582,-1.7582,-1.7582,-1.7582,-1.7582,-1.7582,-1.7582,-1.7582,-1.7582,-1.7582,-1.7582,-1.7582,-1.7582,-1.7582,-1.7477,-1.6393,-1.4449,-1.2186,-1.1374,-1.0402,-0.9427,-0.9047,-0.8885,-0.8885,-0.8885,-0.8885,-0.8885,-0.8885,-0.8885,-0.8885,-0.8885,-0.8885,-0.8871,-0.8831,-0.8791,-0.8686,-0.8608,-0.8421,-0.831,-0.8214,-0.8116,-0.7988,-0.7988,-0.7988,-0.8137,-0.8482,-0.8528,0.0,-0.9019,-0.9899,-1.1023,-1.2328,-1.3343,-1.4411,-1.5683,-1.5784,-1.5784,-1.5784,-1.6032,-1.6279,-1.6573,-1.6867,-1.7219,-1.7455,-1.7542,-1.7094,0.0,0.0,0.0,0.0,0.0,0.0,0.0,0.0,0.0,0.0,0.0,0.0,0.0,0.0,0.0,0.0,0.0,0.0,0.0,0.0,0.0,0.0,-1.0566,-1.0457,-1.1324,-1.1973,-1.2403,-1.2403,-1.3642,-1.4502,-1.4502,-1.531,-1.5423,-1.4556,-1.4502,-1.4502,-1.4502,-1.4502,-1.4931,-1.5743,-1.5796,-1.5796,-1.5796,-1.5796,-1.6068,-1.6658,-1.6068,-1.6446,-1.7582,-1.634,-1.6446,-1.7582,-1.6935,-1.7041,-1.7582,-1.7582,-1.7259,0.0,0.0,0.0,0.0,0.0,-1.2561,-1.0996,-1.0402,-0.9644,-0.8885,-0.8885,-0.8885,-0.8885,-0.8885,-0.8885,-0.8885,-0.8885,-0.8885,-0.8885,-0.8885,-0.8885,-0.8885,-0.8885,-0.8814,-0.8788,-0.8723,-0.8574,-0.8418,-0.8347,-0.8197,0.0,-0.8002,-0.7988,-0.7988,-0.7988,-0.7988,-0.7988,-0.7988,-0.8676,-0.9657,-1.0974,-1.1794,-1.2764,-1.4082,-1.4178,0.0,0.0,0.0,-1.5896,-1.6874,-1.6594,0.0,0.0,0.0,-1.537,-1.4502,0.0,0.0,0.0,-1.3372,-1.2994,0.0,0.0,0.0,0.0,0.0,0.0,0.0,0.0,0.0,0.0,0.0,0.0,0.0,0.0,0.0,0.0,-0.9754,-0.8885,-0.8885,-1.0025,-1.0836,-1.0836,-1.2132,-1.3048,-1.3048,-1.321,-1.321,-1.3048,-1.3048,-1.3048,-1.3048,0.0,0.0,0.0,0.0,-1.3318,-1.3318,-1.3318,-1.3911,-1.515,-1.3911,-1.4615,-1.7041,-1.4449,-1.4722,-1.7041,-1.5743,-1.5908,-1.7094,-1.7094,-1.634,-1.531,-1.6605,-1.6227,-1.4609,-1.2023,-1.1,-1.0676,-0.9375,0.0,0.0,-0.8885,-0.8885,-0.8885,-0.8885,-0.8885,-0.8885,-0.8885,-0.8885,-0.8885,-0.8885,-0.8885,-0.8885,-0.8885,-0.8885,-0.8848,-0.8764,-0.8723,-0.8632,-0.837,-0.8357,-0.8245,-0.8042,-0.8002,-0.7988,-0.7988,-0.7988,-0.7988,-0.7988,-0.7988,-0.8531,-0.9854,0.0,0.0,-1.1799,-1.1922,-1.2017,-1.2204,-1.3413,-1.4924,-1.6697,-1.5728,-1.515,-1.515,-1.3965,-1.321,-1.3048,-1.3048,-1.2295,-1.0891,-1.2349,-1.224,0.0,0.0,0.0,0.0,0.0,0.0,0.0,0.0,0.0,0.0,0.0,0.0,0.0,0.0,0.0,-0.9537,-0.9103,-0.8885,-0.8885,-0.9154,-0.9316,-0.9316,-1.0621,-1.1538,-1.1538,-1.262,-1.2832,-1.1592,-1.1538,-1.1538,-1.1538,-1.1538,-1.2082,-1.3264,-1.3318,-1.3318,-1.3318,-1.3318,-1.3426,-1.3696,0.0,0.0,-1.4126,-1.3534,-1.3588,-1.4126,-1.3804,-1.3857,-1.4126,-1.4126,-1.3965,-1.375,-1.4019,-1.321,-1.1864,-1.1324,-1.0351,-0.9265,-0.8992,-0.8885,-0.8885,-0.8885,-0.8885,-0.8885,-0.8885,-0.8885,0.0,-0.8885,-0.8885,-0.8885,-0.8885,-0.8885,-0.8885,-0.8885,-0.8885,-0.8875,-0.8844,-0.8798,-0.8693,-0.8635,-0.8526,-0.8394,-0.8252,-0.8123,-0.7988,-0.7988,-0.7988,-0.7988,-0.7988,-0.7988,-0.8531,-0.9854,-0.9998,-1.0534,-1.1799,-1.2058,-1.2173,-1.2214,-1.2761,-1.3393,-1.4051,-1.3836,-1.3696,-1.3696,-1.3426,-1.2729,-1.1538,-1.1538,-1.0781,-0.9372,-1.0836,-1.0726,0.0,0.0,0.0,0.0,0.0,0.0,0.0,0.0,0.0,0.0,0.0,-1.0891,0.0,0.0,-0.9754,-0.9047,-0.8885,-0.8885,-0.8885,-0.8885,-0.8885,-0.8885,-0.9533,-1.0025,-1.0025,-1.0676,-1.0781,-1.0025,-1.0025,-1.0025,-1.0025,-1.0025,-1.0351,-1.1051,-1.1105,-1.1105,-1.1105,-1.1105,-1.1483,-1.2186,-1.1428,-1.1864,-1.3264,-1.1755,-1.1919,-1.3264,-1.2512,-1.262,-1.3264,-1.2512,-1.2186,-1.2132,-1.1378,-1.1105,-1.0996,-1.0296,-0.9537,-0.8885,-0.8885,-0.8885,-0.8885,-0.8885,-0.8885,-0.8885,-0.8885,-0.8885,-0.8885,-0.8885,-0.8885,-0.8885,-0.8885,-0.8885,-0.8885,-0.8885,-0.8885,-0.8885,-0.8885,-0.8824,-0.8801,-0.8723,-0.8648,-0.855,-0.8401,-0.8313,-0.8211,-0.8012,-0.7988,-0.7988,-0.7988,-0.7988,-0.8237,-0.892,-0.9099,-0.9395,-1.0042,-1.0288,-1.0755,-1.1522,-1.1813,-1.2348,-1.3259,-1.2566,-1.2186,-1.2186,-1.1483,-1.0726,-1.0025,-1.0025,-0.9644,-0.894,-0.9644,-0.9588,0.0,0.0,0.0,0.0,0.0,0.0,0.0,0.0,-0.8885,-0.8885,-0.8885,-0.8885,-0.8885,-0.8885,-0.8885,-0.8885,-0.8885,-0.8885,-0.8885,-0.8885,-0.8885,-0.8885,-0.8885,-0.8885,-0.8885,-0.8885,-0.8885,-0.8885,-0.8885,-0.8885,-0.8885,-0.8885,-0.8885,-0.8885,-0.8885,-0.8885,-0.8885,-0.8885,-0.9482,-1.0676,-0.9482,-1.0131,-1.2349,-0.997,-1.0186,-1.2403,-1.1214,-1.1378,-1.2349,-1.116,-1.0676,-1.0566,-0.9372,-0.9644,-1.0511,-0.9316,-0.8885,-0.8885,-0.8885,-0.8885,-0.8885,-0.8885,-0.8885,-0.8885,-0.8885,-0.8885,-0.8885,-0.8885,-0.8885,-0.8885,-0.8885,-0.8885,-0.8885,-0.8885,-0.8885,-0.8885,-0.8885,-0.8885,-0.8848,-0.8777,-0.8754,-0.8706,-0.8554,-0.8526,-0.8435,-0.8163,-0.8076,-0.8076,-0.8076,-0.8076,-0.8076,-0.8076,-0.8235,-0.8323,-0.8353,-0.8574,-0.9198,-1.0452,-1.059,-1.1214,-1.2403,-1.1324,-1.0676,-1.0676,-0.9482,-0.8885,-0.8885,-0.8885,-0.8885,-0.8885,-0.8885,-0.8885,-0.9235,-0.9154,-0.8885,-0.8885,-0.8885,-0.8885,0.0,0.0,-0.8885,-0.8885,-0.8885,-0.8885,-0.8885,-0.8885,-0.8885,-0.8885,-0.8885,-0.8885,-0.8885,-0.8885,-0.8885,-0.8885,-0.8885,-0.8885,-0.8885,-0.8885,-0.8885,-0.8885,-0.8885,-0.8885,-0.8885,-0.8885,-0.8885,-0.8885,-0.8885,-0.8885,-0.8885,-0.8885,-0.8992,-0.9154,-0.8992,-0.9047,-0.9372,-0.9047,-0.9103,-0.9372,-0.921,-0.9265,-0.9372,-0.921,-0.9154,-0.9158,-0.8937,-0.8992,-0.9103,-0.8937,-0.8885,-0.8885,-0.8885,-0.8885,-0.8885,-0.8885,-0.8885,-0.8885,-0.8885,-0.8885,-0.8885,-0.8885,-0.8885,-0.8885,-0.8885,-0.8885,-0.8885,-0.8885,-0.8885,-0.8885,-0.8885,-0.8885,-0.8878,-0.8861,-0.8858,-0.8811,-0.871,-0.8682,-0.8628,-0.8459,-0.8431,-0.8431,-0.8431,-0.8431,-0.8431,-0.8431,-0.8448,-0.8513,-0.8648,-0.8693,-0.8821,-0.912,-0.9147,-0.921,-0.9372,-0.921,-0.9154,-0.9154,-0.8992,-0.8885,-0.8885,-0.8885,-0.8885,-0.8885,-0.8885,-0.8885,-0.8824,-0.8885,0.0,0.0,-0.8885,-0.8885,-0.8885,-0.8885,-0.8885,-0.8885,-0.8885,-0.8885,-0.8885,-0.8885,-0.8885,0.0,-0.8885,-0.8885,-0.8885,-0.8885,-0.8885,-0.8885,-0.8885,-0.8885,-0.8885,-0.8885,-0.8885,-0.8885,-0.8885,-0.8885,-0.8885,-0.8885,-0.8885,-0.8885,-0.8885,-0.8885,-0.8885,-0.8885,-0.8885,-0.8885,-0.8885,-0.8885,-0.8885,-0.8885,-0.8885,-0.8885,-0.8885,-0.8885,-0.8885,-0.8885,-0.8885,-0.8885,-0.8885,-0.8885,-0.8885,-0.8885,-0.8885,-0.8885,-0.8885,-0.8885,-0.8885,-0.8885,-0.8885,-0.8885,-0.8885,-0.8885,-0.8885,-0.8885,-0.8885,-0.8885,-0.8885,-0.8885,-0.8885,-0.8885,-0.8885,-0.8885,-0.8885,-0.8885,-0.8885,-0.8885,-0.8885,-0.8861,-0.8801,-0.879,-0.8821,-0.8757,-0.8598,-0.8482,-0.8482,-0.8482,-0.8516,-0.8604,-0.8615,-0.8676,-0.8828,-0.879,-0.8814,-0.8878,-0.8885,-0.8885,-0.8885,-0.8885,-0.8885,-0.8885,-0.8885,-0.8885,-0.8885,-0.8885,-0.8885,-0.8885,-0.8885,-0.8885,-0.8854,0.0,0.0,-0.8885,-0.8885,-0.8885,-0.8885,-0.8885,-0.8885,-0.8885,-0.8885,-0.8885,-0.8885,-0.8885,-0.8885,-0.8885,-0.8885,-0.8885,-0.8885,-0.8885,-0.8885,-0.8885,-0.8885,-0.8885,-0.8885,-0.8885,-0.8885,-0.8885,-0.8885,-0.8885,-0.8885,-0.8885,-0.8885,-0.8885,-0.8885,-0.8885,-0.8885,-0.8885,-0.8885,-0.8885,-0.8885,-0.8885,-0.8885,-0.8885,-0.8885,-0.8885,-0.8885,-0.8885,-0.8885,-0.8885,-0.8885,-0.8885,-0.8885,-0.8885,-0.8885,-0.8885,-0.8885,-0.8885,-0.8885,-0.8885,-0.8885,-0.8885,-0.8885,-0.8885,-0.8885,-0.8885,-0.8885,-0.8885,-0.8885,-0.8885,-0.8885,-0.8885,-0.8885,-0.8885,-0.8885,-0.8885,-0.8885,-0.8885,-0.8885,-0.8885,-0.8885,-0.8885,-0.8885,-0.8885,-0.8885,-0.8885,-0.875,-0.8608,-0.8608,-0.8608,-0.8652,-0.876,-0.8774,-0.8818,-0.8875,-0.8885,-0.8885,-0.8885,-0.8885,-0.8885,-0.8885,-0.8885,-0.8885,-0.8885,-0.8885,-0.8885,-0.8885,-0.8885,-0.8885,-0.8885,-0.8885,-0.8885,-0.8881,0.0,-0.8885,-0.8885,-0.8885,-0.8885,-0.8885,-0.8885,-0.8885,-0.8885,-0.8885,-0.8885,-0.8885,-0.8885,-0.8885,-0.8885,-0.8885,-0.8885,-0.8885,-0.8885,-0.8885,-0.8885,-0.8885,-0.8885,0.0,-0.8885,-0.8885,-0.8885,-0.8885,-0.8885,-0.8885,-0.8885,-0.8885,-0.8885,-0.8885,-0.8885,-0.8885,-0.8885,-0.8885,-0.8885,-0.8885,-0.8885,-0.8885,-0.8885,-0.8885,-0.8885,-0.8885,-0.8885,-0.8885,-0.8885,-0.8885,-0.8885,-0.8885,-0.8885,-0.8885,-0.8885,-0.8885,-0.8885,-0.8885,-0.8885,-0.8885,-0.8885,-0.8885,-0.8885,-0.8885,-0.8885,-0.8885,-0.8885,-0.8885,-0.8885,-0.8885,-0.8885,-0.8885,-0.8885,-0.8885,-0.8885,-0.8885,-0.8885,-0.8885,-0.8885,-0.8885,-0.8885,-0.8885,-0.8885,-0.8885,-0.8885,-0.8875,-0.8868,-0.8868,-0.8868,-0.8871,-0.8875,-0.8875,-0.8878,-0.8885,-0.8885,-0.8885,-0.8885,-0.8885,-0.8885,-0.8885,-0.8885,-0.8885,-0.8885,-0.8885,-0.8885,-0.8885,-0.8885,-0.8885,-0.8885,-0.8885,-0.8885,-0.8885,0.0,-0.8885,-0.8885,-0.8885,-0.8885,-0.8885,-0.8885,-0.8885,-0.8885,-0.8885,-0.8885,-0.8885,-0.8885,-0.8885,-0.8885,-0.8885,-0.8885,-0.8885,-0.8885,-0.8885,-0.8885,-0.8885,0.0,0.0,0.0,0.0,-0.8885,-0.8885,-0.8885,-0.8885,-0.8885,-0.8885,-0.8885,-0.8885,-0.8885,-0.8885,-0.8885,-0.8885,-0.8885,-0.8885,-0.8885,-0.8885,-0.8885,-0.8885,-0.8885,-0.8885,-0.8885,-0.8885,-0.8885,-0.8885,-0.8885,-0.8885,-0.8885,-0.8885,-0.8885,-0.8885,-0.8885,-0.8885,-0.8885,-0.8885,-0.8885,-0.8885,-0.8885,-0.8885,-0.8885,-0.8885,-0.8885,-0.8885,-0.8885,-0.8885,-0.8885,-0.8885,-0.8885,-0.8885,-0.8885,-0.8885,-0.8885,-0.8885,-0.8885,-0.8885,-0.8885,-0.8885,-0.8885,-0.8885,-0.8885,-0.8885,-0.8885,-0.8885,-0.8885,-0.8885,-0.8885,-0.8885,-0.8885,-0.8885,-0.8885,-0.8885,-0.8885,-0.8885,-0.8885,-0.8885,-0.8885,-0.8885,-0.8885,-0.8885,-0.8885,-0.8885,-0.8885,-0.8885,-0.8885,-0.8885,-0.838,-0.8704,-0.8841,-0.8885,-0.8885,-0.8885,-0.8885,-0.8885,-0.8885,-0.8885,-0.8885,-0.8885,-0.8885,-0.8885,-0.8885,-0.8885,-0.8885,-0.8885,-0.8885,-0.8885,-0.8885,-0.8885,-0.8885,-0.8885,-0.8885,0.0,0.0,0.0,-0.8885,-0.8885,-0.8885,-0.8885,-0.8885,-0.8885,-0.8885,-0.8885,-0.8885,-0.8885,-0.8885,-0.8885,-0.8885,-0.8885,-0.8885,-0.8885,-0.8885,-0.8885,-0.8885,-0.8885,-0.8885,-0.8885,-0.8885,-0.8885,-0.8885,-0.8885,-0.8885,-0.8885,-0.8885,-0.8885,-0.8885,-0.8885,-0.8885,-0.8885,-0.8885,-0.8885,-0.8885,-0.8885,-0.8885,-0.8885,-0.8885,-0.8885,-0.8885,-0.8885,-0.8885,-0.8885,-0.8885,-0.8885,-0.8771,-0.8211,-0.8546,-0.8602,-0.7537,-0.7762,-0.7931,-0.7426,-0.7315,-0.7315,-0.7315,-0.7315,-0.7706,-0.8771,-0.8885,-0.8885,-0.8885,-0.8885,-0.8885,-0.8885,-0.8885,-0.8885,-0.8885,-0.8885,-0.8885,-0.8885,-0.8885,-0.8885,-0.8885,-0.8885,-0.8885,-0.8885,-0.838,-0.8097,-0.8097,-0.7595,-0.6813,-0.8145,-0.8593,-0.865,-0.8657,-0.8716,-0.8771,-0.8771,-0.8826,-0.8885,-0.8885,-0.8885,-0.8885,0.0,0.0,-0.8885,-0.8885,-0.8885,-0.8885,-0.8885,-0.8885,-0.8885,0.0,0.0,0.0,0.0,0.0,0.0,-0.8885,0.0,-0.8885,-0.8885,-0.8885,-0.8885,-0.8885,-0.8885,-0.8885,-0.8885,-0.8885,-0.8885,-0.8885,-0.8885,-0.8885,-0.8885,-0.8885,-0.8885,-0.8885,-0.8885,-0.8885,-0.8885,-0.8885,-0.8885,-0.8885,-0.8885,-0.8885,-0.8885,-0.8885,-0.8885,-0.8885,-0.8885,-0.8885,-0.8885,-0.8885,-0.8885,-0.8885,-0.8885,-0.8885,-0.8885,-0.8885,-0.8826,-0.8826,-0.8881,-0.8771,-0.8716,-0.8881,-0.8771,-0.8322,-0.698,-0.7762,-0.782,-0.5027,-0.5641,-0.6144,-0.4751,-0.4526,-0.4526,-0.4526,-0.4526,-0.553,-0.8322,-0.866,-0.866,-0.866,-0.866,-0.866,-0.866,-0.866,-0.8716,-0.8771,-0.8716,-0.8716,-0.8771,-0.8716,-0.866,-0.866,-0.866,-0.866,-0.866,-0.726,-0.6589,-0.6533,-0.514,-0.447,-0.5485,-0.5571,-0.5608,-0.5624,-0.6422,-0.726,-0.726,-0.8097,-0.8885,-0.8885,-0.8885,-0.8885,0.0,0.0,0.0,-0.8885,-0.8885,0.0,-0.8885,-0.8885,0.0,-0.8885,0.0,-0.8885,-0.8885,-0.8885,0.0,0.0,-0.8885,-0.8885,-0.8885,-0.8885,-0.8885,-0.8885,-0.8885,-0.8885,-0.8885,-0.8885,-0.8885,-0.8885,-0.8885,-0.8885,-0.8885,-0.8885,-0.8885,-0.8885,-0.8885,-0.8885,-0.8885,-0.8885,-0.8885,-0.8885,-0.8885,-0.8885,-0.8885,-0.8885,-0.8885,-0.8885,-0.8885,-0.8885,-0.8885,-0.8885,-0.8885,-0.8885,-0.8885,-0.8885,-0.8885,-0.8885,-0.8097,-0.754,-0.8605,-0.726,-0.62,-0.838,-0.7204,-0.5808,-0.6533,-0.6142,-0.5419,-0.4639,-0.4804,-0.4916,-0.4582,-0.4526,-0.4526,-0.4526,-0.4526,-0.4751,-0.553,-0.5641,-0.5641,-0.5641,-0.5641,-0.5641,-0.5641,-0.5641,-0.6089,-0.7204,-0.6255,-0.6142,-0.7204,-0.6197,-0.5641,-0.5641,-0.5641,-0.5641,-0.5641,-0.525,-0.5085,-0.5029,-0.4693,-0.3911,-0.4203,-0.4414,-0.4477,-0.4521,-0.5111,-0.5753,-0.5753,-0.6366,-0.698,-0.698,-0.7485,0.0,-0.7931,-0.8491,0.0,0.0,0.0,0.0,-0.8885,-0.8885,-0.8885,0.0,-0.8885,0.0,-0.8885,-0.8885,-0.8885,0.0,-0.8885,-0.8885,-0.8885,-0.8885,-0.8885,-0.8885,-0.8885,-0.8885,-0.8885,-0.8885,-0.8885,-0.8885,-0.8885,-0.8885,-0.8885,-0.8885,-0.8885,-0.8885,0.0,-0.8885,-0.8885,-0.8885,-0.8885,-0.8885,-0.8885,-0.8885,-0.8885,-0.8885,-0.8885,-0.8885,-0.8885,-0.8885,-0.8885,-0.8885,-0.8436,-0.7931,-0.7931,-0.7485,-0.698,-0.698,-0.6366,-0.5919,-0.6758,-0.5753,-0.4916,-0.6589,-0.5697,-0.4526,-0.4689,-0.458,-0.4303,-0.3632,-0.2962,-0.2517,-0.2517,-0.2517,-0.2517,-0.2517,-0.2517,-0.2517,-0.2517,-0.3689,-0.4526,-0.4526,-0.4526,-0.4526,-0.4526,-0.4526,-0.4862,-0.5697,-0.4973,-0.4862,-0.5697,-0.4916,-0.4526,-0.4526,-0.4526,-0.4526,-0.447,-0.3799,-0.3463,-0.3465,-0.2851,-0.2069,-0.3319,-0.3754,-0.3898,-0.3908,-0.4071,-0.4177,-0.4177,-0.4352,-0.4526,-0.4526,0.0,-0.6422,-0.6422,-0.7595,-0.8546,-0.8322,0.0,-0.8546,-0.8322,-0.8322,-0.8322,-0.8322,-0.8322,-0.8322,-0.8322,-0.8322,-0.838,-0.8602,-0.8605,-0.8716,-0.8881,-0.8885,-0.8885,-0.8885,-0.8885,-0.8885,-0.8885,-0.8885,-0.8885,-0.8885,-0.8885,-0.8885,-0.8885,-0.8885,-0.8885,-0.8885,-0.8885,-0.8885,-0.8885,-0.8885,-0.8885,-0.8885,-0.8885,-0.8885,-0.8885,-0.8885,-0.8885,-0.8881,-0.866,-0.8605,-0.8605,-0.8605,-0.7765,-0.6644,-0.6478,-0.553,-0.4526,-0.4526,-0.4359,-0.4247,-0.447,-0.4191,-0.4024,-0.4416,-0.4191,-0.3576,-0.2459,-0.3074,-0.3522,-0.218,-0.0896,0.0,0.0,0.0,0.0,0.0,0.0,0.0,0.0,-0.2294,-0.3913,-0.3913,-0.3913,-0.3913,-0.3913,-0.3913,-0.3968,-0.4191,-0.4024,-0.3968,-0.4191,-0.4024,-0.3913,-0.3913,-0.3913,-0.3913,-0.3913,-0.2572,-0.1901,-0.1901,-0.0616,0.0,-0.0672,-0.0729,-0.0788,-0.08,-0.1679,-0.2575,-0.2575,-0.3598,0.0,0.0,-0.4693,-0.4862,-0.4862,-0.6089,-0.67,-0.5475,-0.6311,-0.6644,-0.5419,-0.5252,-0.5252,0.0,-0.5252,-0.5252,-0.5252,-0.5252,0.0,0.0,-0.7093,-0.7595,-0.8826,-0.8885,-0.8885,-0.8885,-0.8885,-0.8885,-0.8885,-0.8885,-0.8885,-0.8885,-0.8885,-0.8885,-0.8885,-0.8885,-0.8885,-0.8885,-0.8885,0.0,-0.8885,-0.8885,-0.8885,-0.8885,-0.8885,-0.8885,-0.8885,-0.8885,-0.8885,-0.8716,-0.7485,-0.7093,-0.7093,-0.7093,-0.6924,-0.6478,-0.5252,-0.4693,-0.4526,-0.4526,-0.3576,-0.2905,-0.4191,-0.2628,-0.14,-0.3913,-0.2573,-0.1064,-0.2012,-0.1455,-0.0728,-0.0448,-0.0168,0.0,0.0,0.0,0.0,0.0,0.0,0.0,0.0,-0.0448,-0.0784,-0.0784,-0.0784,-0.0784,-0.0784,-0.0784,-0.1287,-0.2515,-0.1455,-0.1343,-0.2571,-0.1455,-0.0784,-0.0784,-0.0784,-0.0784,-0.0784,-0.0504,-0.0392,-0.0392,-0.0112,0.0,0.0,0.0,0.0,0.0,-0.0533,-0.1081,-0.1037,0.0,0.0,0.0,-0.2795,-0.3296,-0.3296,-0.4524,0.0,-0.4637,-0.5085,-0.5308,-0.4582,-0.4526,0.0,-0.4526,-0.4526,-0.4526,0.0,-0.4526,-0.4804,-0.5475,-0.6255,-0.7371,-0.8826,-0.8885,-0.8885,-0.8885,-0.8885,-0.8885,-0.8885,-0.8885,-0.8885,-0.8885,-0.8885,-0.8885,-0.8885,-0.8885,-0.8885,-0.8885,-0.8885,-0.8885,-0.8885,-0.8885,-0.8885,-0.8885,-0.8885,-0.8436,-0.7762,-0.7762,-0.726,-0.6533,-0.5808,-0.553,-0.5417,-0.4634,-0.4355,-0.4244,-0.3519,-0.2739,-0.2182,-0.2182,-0.1623,-0.1231,-0.1958,-0.1064,-0.0392,-0.1791,-0.1064,-0.0168,-0.0896,-0.0504,0.0,0.0,0.0,0.0,0.0,0.0,0.0,0.0,0.0,0.0,0.0,0.0,0.0,0.0,0.0,0.0,0.0,0.0,-0.028,-0.1008,-0.0392,-0.0336,-0.1008,-0.0392,0.0,0.0,0.0,0.0,0.0,0.0,0.0,0.0,0.0,0.0,0.0,0.0,0.0,0.0,0.0,0.0,0.0,0.0,0.0,0.0,-0.095,-0.1733,-0.1733,-0.2962,-0.3911,0.0,-0.3801,-0.3911,-0.3578,-0.3522,-0.3522,0.0,0.0,0.0,-0.3522,-0.3522,0.0,-0.3967,-0.5361,-0.7035,-0.8826,-0.8885,-0.8885,-0.8885,-0.8885,-0.8885,-0.8885,-0.8885,-0.8885,-0.8885,-0.8885,-0.8885,-0.8885,-0.8885,-0.8885,-0.8885,-0.8885,-0.8885,-0.8881,-0.8546,-0.8432,-0.838,-0.8097,-0.726,-0.6255,-0.6255,-0.5475,-0.447,-0.4136,-0.4023,-0.3744,-0.2236,-0.1956,-0.2124,-0.1845,-0.0896,0.0,0.0,0.0,0.0,0.0,0.0,0.0,0.0,0.0,0.0,0.0,0.0,0.0,0.0,0.0,0.0,0.0,0.0,0.0,0.0,0.0,0.0,0.0,0.0,0.0,0.0,0.0,0.0,0.0,0.0,0.0,0.0,0.0,0.0,0.0,0.0,0.0,0.0,0.0,0.0,0.0,0.0,0.0,0.0,0.0,0.0,0.0,0.0,0.0,0.0,0.0,0.0,0.0,0.0,0.0,0.0,-0.0111,-0.0224,-0.0224,-0.1399,-0.1957,0.0,0.0,-0.1957,-0.0616,-0.0392,-0.0392,-0.0392,0.0,0.0,-0.0392,-0.0392,-0.0952,-0.2291,-0.3855,-0.5919,-0.8771,-0.8885,-0.8885,-0.8885,-0.8885,-0.8885,-0.8885,-0.8885,-0.8885,-0.8885,-0.8885,-0.8885,-0.8885,-0.8885,-0.8885,-0.8885,-0.8885,-0.8885,0.0,-0.7482,-0.6924,-0.6758,-0.5419,-0.4804,-0.4693,-0.4693,-0.4637,-0.4303,-0.2905,-0.2403,-0.218,-0.0672,-0.1119,-0.1956,-0.0616,-0.0112,0.0,0.0,0.0,0.0,0.0,0.0,0.0,0.0,0.0,0.0,0.0,0.0,0.0,0.0,0.0,0.0,0.0,0.0,0.0,0.0,0.0,0.0,0.0,0.0,0.0,0.0,0.0,0.0,0.0,0.0,0.0,0.0,0.0,0.0,0.0,0.0,0.0,0.0,0.0,0.0,0.0,0.0,0.0,0.0,0.0,0.0,0.0,0.0,0.0,0.0,0.0,0.0,0.0,0.0,0.0,0.0,0.0,0.0,0.0,-0.0504,-0.0672,-0.0112,-0.0504,0.0,-0.0056,0.0,0.0,0.0,0.0,0.0,0.0,0.0,-0.0616,-0.2068,-0.2794,-0.4021,-0.6144,-0.7091,-0.7595,-0.7595,-0.8436,-0.8885,-0.8885,-0.8885,-0.8885,-0.8885,-0.8885,-0.8885,-0.8885,-0.8885,-0.8885,-0.8826,-0.7986,-0.7595,0.0,-0.5977,-0.5363,-0.5308,-0.4749,-0.3911,-0.3129,-0.3129,-0.2572,-0.1679,-0.1064,-0.0896,-0.0784,-0.0168,-0.0392,-0.0784,-0.0168,0.0,0.0,0.0,0.0,0.0,0.0,0.0,0.0,0.0,0.0,0.0,0.0,0.0,0.0,0.0,0.0,0.0,0.0,0.0,0.0,0.0,0.0,0.0,0.0,0.0,0.0,0.0,0.0,0.0,0.0,0.0,0.0,0.0,0.0,0.0,0.0,0.0,0.0,0.0,0.0,0.0,0.0,0.0,0.0,0.0,0.0,0.0,0.0,0.0,0.0,0.0,0.0,0.0,0.0,0.0,0.0,0.0,0.0,0.0,0.0,0.0,0.0,0.0,0.0,0.0,0.0,0.0,0.0,0.0,0.0,0.0,0.0,0.0,-0.0448,-0.1454,-0.1566,-0.2014,-0.3131,-0.458,-0.5584,-0.6031,-0.7485,-0.8266,-0.8266,-0.866,-0.8885,-0.8885,-0.8885,-0.8885,-0.8885,-0.8885,-0.8885,-0.883,-0.7817,-0.7371,0.0,-0.5753,-0.514,-0.5085,-0.4191,-0.3129,-0.2124,-0.1733,-0.0896,0.0,0.0,0.0,0.0,0.0,0.0,0.0,0.0,0.0,0.0,0.0,0.0,0.0,0.0,0.0,0.0,0.0,0.0,0.0,0.0,0.0,0.0,0.0,0.0,0.0,0.0,0.0,0.0,0.0,0.0,0.0,0.0,0.0,0.0,0.0,0.0,0.0,0.0,0.0,0.0,0.0,0.0,0.0,0.0,0.0,0.0,0.0,0.0,0.0,0.0,0.0,0.0,0.0,0.0,0.0,0.0,0.0,0.0,0.0,0.0,0.0,0.0,0.0,0.0,0.0,0.0,0.0,0.0,0.0,0.0,0.0,0.0,0.0,0.0,0.0,0.0,0.0,0.0,0.0,0.0,0.0,0.0,0.0,0.0,0.0,-0.0056,-0.1454,-0.2961,-0.447,-0.5975,-0.6702,-0.6702,-0.8156,-0.8885,-0.8885,-0.8885,-0.8885,-0.8885,-0.8885,-0.8885,-0.8885,-0.8881,-0.8881,0.0,-0.726,-0.67,-0.6364,-0.3406,-0.2235,-0.2013,-0.056,0.0,0.0,0.0,0.0,0.0,0.0,0.0,0.0,0.0,0.0,0.0,0.0,0.0,0.0,0.0,0.0,0.0,0.0,0.0,0.0,0.0,0.0,0.0,0.0,0.0,0.0,0.0,0.0,0.0,0.0,0.0,0.0,0.0,0.0,0.0,0.0,0.0,0.0,0.0,0.0,0.0,0.0,0.0,0.0,0.0,0.0,0.0,0.0,0.0,0.0,0.0,0.0,0.0,0.0,0.0,0.0,0.0,0.0,0.0,0.0,0.0,0.0,0.0,0.0,0.0,0.0,0.0,0.0,0.0,0.0,0.0,0.0,0.0,0.0,0.0,0.0,0.0,0.0,0.0,0.0,0.0,0.0,0.0,0.0,0.0,0.0,0.0,-0.0448,-0.1399,-0.2905,-0.4413,-0.5196,-0.5196,-0.5641,-0.5919,-0.5919,-0.5919,-0.5919,-0.5919,-0.5919,-0.5919,-0.5808,-0.4801,-0.4298,-0.4187,-0.2739,-0.2125,-0.2014,-0.1064,-0.0672,-0.0616,-0.0168,0.0,0.0,0.0,0.0,0.0,0.0,0.0,0.0,0.0,0.0,0.0,0.0,0.0,0.0,0.0,0.0,0.0,0.0,0.0,0.0,0.0,0.0,0.0,0.0,0.0,0.0,0.0,0.0,0.0,0.0,0.0,0.0,0.0,0.0,0.0,0.0,0.0,0.0,0.0,0.0,0.0,0.0,0.0,0.0,0.0,0.0,0.0,0.0,0.0,0.0,0.0,0.0,0.0,0.0,0.0,0.0,0.0,0.0,0.0,0.0,0.0,0.0,0.0,0.0,0.0,0.0,0.0,0.0,0.0,0.0,0.0,0.0,0.0,0.0,0.0,0.0,0.0,0.0,0.0,0.0,0.0,0.0,0.0,0.0,0.0,0.0,0.0,0.0,-0.0444,-0.1331,-0.2842,-0.3632,-0.3632,-0.4191,-0.4526,-0.4526,-0.4526,-0.4526,-0.4526,-0.4526,-0.4526,-0.447,-0.3463,-0.3073,0.0,-0.2069,-0.1679,-0.1623,-0.1064,-0.084,-0.0784,-0.0224,0.0,0.0,0.0,0.0,0.0,0.0,0.0,0.0,0.0,0.0,0.0,0.0,0.0,0.0,0.0,0.0,0.0,0.0,0.0,0.0,0.0,0.0,0.0,0.0,0.0,0.0,0.0,0.0,0.0,0.0,0.0,0.0,0.0,0.0,0.0,0.0,0.0,0.0,0.0,0.0,0.0,0.0,0.0,0.0,0.0,0.0,0.0,0.0,0.0,0.0,0.0,0.0,0.0,0.0,0.0,0.0,0.0,0.0,0.0,0.0,0.0,0.0,0.0,0.0,0.0,0.0,0.0,0.0,0.0,0.0,0.0,0.0,0.0,0.0,0.0,0.0,0.0,0.0,0.0,0.0,0.0,0.0,0.0,0.0,0.0,0.0,0.0,0.0,0.0,0.0,-0.1328,-0.2061,-0.2061,-0.3457,-0.4185,-0.4185,-0.419,-0.4191,-0.4191,-0.4191,-0.4191,0.0,-0.4191,-0.4191,-0.4191,-0.4191,-0.4191,-0.4024,-0.2626,-0.2068,-0.1901,-0.0504,0.0,0.0,0.0,0.0,0.0,0.0,0.0,0.0,0.0,0.0,0.0,0.0,0.0,0.0,0.0,0.0,0.0,0.0,0.0,0.0,0.0,0.0,0.0,0.0,0.0,0.0,0.0,0.0,0.0,0.0,0.0,0.0,0.0,0.0,0.0,0.0,0.0,0.0,0.0,0.0,0.0,0.0,0.0,0.0,0.0,0.0,0.0,0.0,0.0,0.0,0.0,0.0,0.0,0.0,0.0,0.0,-0.0303,0.0,0.0,0.0,0.0,0.0,0.0,0.0,0.0,0.0,0.0,0.0,0.0,0.0,0.0,0.0,0.0,0.0,0.0,0.0,0.0,0.0,0.0,0.0,0.0,0.0,0.0,0.0,0.0,0.0,0.0,0.0,0.0,0.0,-0.0323,-0.0539,-0.0539,-0.0874,-0.1045,-0.1045,-0.1058,-0.1064,-0.1064,-0.1064,-0.1064,-0.1064,-0.1064,-0.1064,-0.1064,-0.1064,-0.1064,-0.1008,-0.0672,-0.0504,-0.0448,-0.0112,0.0,0.0,0.0,0.0,0.0,0.0,0.0,0.0,0.0,0.0,0.0,0.0,0.0,0.0,0.0,0.0,0.0,0.0,0.0,0.0,0.0,0.0,0.0,0.0,0.0,0.0,0.0,0.0,0.0,0.0,0.0,0.0,0.0,0.0,0.0,0.0,0.0,0.0,0.0,0.0,0.0,0.0,0.0,0.0,0.0,0.0,0.0,0.0,0.0,0.0,0.0,0.0,0.0,0.0,0.0,0.0,-0.1195,-0.0401,0.0,0.0,0.0,0.0,0.0,0.0,0.0,0.0,0.0,0.0,0.0,0.0,0.0,0.0,0.0,0.0,0.0,0.0,0.0,0.0,0.0,0.0,0.0,0.0,0.0,0.0,0.0,0.0,0.0,0.0,0.0,0.0,0.0,0.0,0.0,0.0,0.0,0.0,0.0,0.0,0.0,0.0,0.0,0.0,0.0,0.0,0.0,0.0,0.0,0.0,0.0,0.0,0.0,0.0,0.0,0.0,0.0,0.0,0.0,0.0,0.0,0.0,0.0,0.0,0.0,0.0,0.0,0.0,0.0,0.0,0.0,0.0,0.0,0.0,0.0,0.0,0.0,0.0,0.0,0.0,0.0,0.0,0.0,0.0,0.0,0.0,0.0,0.0,0.0,0.0,0.0,0.0,0.0,0.0,0.0,0.0,0.0,0.0,0.0,0.0,0.0,0.0,0.0,0.0,0.0,0.0,0.0,0.0,0.0,0.0,-0.2202,-0.1042,-0.0252,-0.005,0.0,0.0,0.0,0.0,0.0,0.0,0.0,0.0,0.0,0.0,0.0,0.0,0.0,0.0,0.0,0.0,0.0,0.0,0.0,0.0,0.0,0.0,0.0,0.0,0.0,0.0,0.0,0.0,0.0,0.0,0.0,0.0,0.0,0.0,0.0,0.0,0.0,0.0,0.0,0.0,0.0,0.0,0.0,0.0,0.0,0.0,0.0,0.0,0.0,0.0,0.0,0.0,0.0,0.0,0.0,0.0,0.0,0.0,0.0,0.0,0.0,0.0,0.0,0.0,0.0,0.0,0.0,0.0,0.0,0.0,0.0,0.0,0.0,0.0,0.0,0.0,0.0,0.0,0.0,0.0,0.0,0.0,0.0,0.0,0.0,0.0,0.0,0.0,0.0,0.0,0.0,0.0,0.0,0.0,0.0,0.0,0.0,0.0,0.0,0.0,0.0,0.0,0.0,0.0,0.0,0.0,0.0,0.0,-0.2436,-0.167,-0.1286,-0.0251,0.0,0.0,0.0,0.0,0.0,0.0,0.0,0.0,0.0,0.0,0.0,0.0,0.0,0.0,0.0,0.0,0.0,0.0,0.0,0.0,0.0,0.0,0.0,0.0,0.0,0.0,0.0,0.0,0.0,0.0,0.0,0.0,0.0,0.0,0.0,0.0,0.0,0.0,0.0,0.0,0.0,0.0,0.0,0.0,0.0,0.0,0.0,0.0,0.0,0.0,0.0,0.0,0.0,0.0,0.0,0.0,0.0,0.0,0.0,0.0,0.0,0.0,0.0,0.0,0.0,0.0,0.0,0.0,0.0,0.0,0.0,0.0,0.0,0.0,0.0,0.0,0.0,0.0,0.0,0.0,0.0,0.0,0.0,0.0,0.0,0.0,0.0,0.0,0.0,0.0,0.0,0.0,0.0,0.0,0.0,0.0,0.0,0.0,0.0,0.0,0.0,0.0,0.0,0.0,0.0,0.0,0.0,0.0,-0.4252,-0.3322,-0.255,-0.1288,-0.0501,0.0,0.0,0.0,0.0,0.0,0.0,0.0,0.0,0.0,0.0,0.0,0.0,0.0,0.0,0.0,0.0,0.0,0.0,0.0,0.0,0.0,0.0,0.0,0.0,0.0,0.0,0.0,0.0,0.0,0.0,0.0,0.0,0.0,0.0,0.0,0.0,0.0,0.0,0.0,0.0,0.0,0.0,0.0,0.0,0.0,0.0,0.0,0.0,0.0,0.0,0.0,0.0,0.0,0.0,0.0,0.0,0.0,0.0,0.0,0.0,0.0,0.0,0.0,0.0,0.0,0.0,0.0,0.0,0.0,0.0,0.0,0.0,0.0,0.0,0.0,0.0,0.0,0.0,0.0,0.0,0.0,0.0,0.0,0.0,0.0,0.0,0.0,0.0,0.0,0.0,0.0,0.0,0.0,0.0,0.0,0.0,0.0,0.0,0.0,0.0,0.0,0.0,0.0,0.0,0.0,0.0,0.0,-0.5751,-0.4616,-0.3432,-0.215,0.0,0.0,0.0,0.0,0.0,0.0,0.0,0.0,0.0,0.0,0.0,0.0,0.0,0.0,0.0,0.0,0.0,0.0,0.0,0.0,0.0,0.0,0.0,0.0,0.0,0.0,0.0,0.0,0.0,0.0,0.0,0.0,0.0,0.0,0.0,0.0,0.0,0.0,0.0,0.0,0.0,0.0,0.0,0.0,0.0,0.0,0.0,0.0,0.0,0.0,0.0,0.0,0.0,0.0,0.0,0.0,0.0,0.0,0.0,0.0,0.0,0.0,0.0,0.0,0.0,0.0,0.0,0.0,0.0,0.0,0.0,0.0,0.0,0.0,0.0,0.0,0.0,0.0,0.0,0.0,0.0,0.0,0.0,0.0,0.0,0.0,0.0,0.0,0.0,0.0,0.0,0.0,0.0,0.0,0.0,0.0,0.0,0.0,0.0,0.0,0.0,0.0,0.0,0.0,0.0,0.0,0.0,0.0,-0.5727,-0.4522,-0.3314,-0.2087,-0.0896,0.0,0.0,0.0,0.0,0.0,0.0,0.0,0.0,0.0,0.0,0.0,0.0,0.0,0.0,0.0,0.0,0.0,0.0,0.0,0.0,0.0,0.0,0.0,0.0,0.0,0.0,0.0,0.0,0.0,0.0,0.0,0.0,0.0,0.0,0.0,0.0,0.0,0.0,0.0,0.0,0.0,0.0,0.0,0.0,0.0,0.0,0.0,0.0,0.0,0.0,0.0,0.0,0.0,0.0,0.0,0.0,0.0,0.0,0.0,0.0,0.0,0.0,0.0,0.0,0.0,0.0,0.0,0.0,0.0,0.0,0.0,0.0,0.0,0.0,0.0,0.0,0.0,0.0,0.0,0.0,0.0,0.0,0.0,0.0,0.0,0.0,0.0,0.0,0.0,0.0,0.0,0.0,0.0,0.0,0.0,0.0,0.0,0.0,0.0,0.0,0.0,0.0,0.0,0.0,0.0,0.0,0.0,-0.6579,-0.5058,-0.3476,-0.3052,-0.1465,0.0,0.0,0.0,0.0,0.0,0.0,0.0,0.0,0.0,0.0,0.0,0.0,0.0,0.0,0.0,0.0,0.0,0.0,0.0,0.0,0.0,0.0,0.0,0.0,0.0,0.0,0.0,0.0,0.0,0.0,0.0,0.0,0.0,0.0,0.0,0.0,0.0,0.0,0.0,0.0,0.0,0.0,0.0,0.0,0.0,0.0,0.0,0.0,0.0,0.0,0.0,0.0,0.0,0.0,0.0,0.0,0.0,0.0,0.0,0.0,0.0,0.0,0.0,0.0,0.0,0.0,0.0,0.0,0.0,0.0,0.0,0.0,0.0,0.0,0.0,0.0,0.0,0.0,0.0,0.0,0.0,0.0,0.0,0.0,0.0,0.0,0.0,0.0,0.0,0.0,0.0,0.0,0.0,0.0,0.0,0.0,0.0,0.0,0.0,0.0,0.0,0.0,0.0,0.0,0.0,0.0,0.0,-0.6561,-0.4824,-0.3026,-0.3041,0.0,0.0,0.0,0.0,0.0,0.0,0.0,0.0,0.0,0.0,0.0,0.0,0.0,0.0,0.0,0.0,0.0,0.0,0.0,0.0,0.0,0.0,0.0,0.0,0.0,0.0,0.0,0.0,0.0,0.0,0.0,0.0,0.0,0.0,0.0,0.0,0.0,0.0,0.0,0.0,0.0,0.0,0.0,0.0,0.0,0.0,0.0,0.0,0.0,0.0,0.0,0.0,0.0,0.0,0.0,0.0,0.0,0.0,0.0,0.0,0.0,0.0,0.0,0.0,0.0,0.0,0.0,0.0,0.0,0.0,0.0,0.0,0.0,0.0,0.0,0.0,0.0,0.0,0.0,0.0,0.0,0.0,0.0,0.0,0.0,0.0,0.0,0.0,0.0,0.0,0.0,0.0,0.0,0.0,0.0,0.0,0.0,0.0,0.0,0.0,0.0,0.0,0.0,0.0448,0.0672,0.0728,0.1176,0.14,-0.5403,-0.3664,-0.1799,0.0,0.0,0.0,0.0,0.0,0.0,0.0,0.0,0.0,0.0,0.0,0.0,0.0,0.0,0.0,0.0,0.0,0.0,0.0,0.0,0.0,0.0,0.0,0.0,0.0,0.0,0.0,0.0,0.0,0.0,0.0,0.0,0.0,0.0,0.0,0.0,0.0,0.0,0.0,0.0,0.0,0.0,0.0,0.0,0.0,0.0,0.0,0.0,0.0,0.0,0.0,0.0,0.0,0.0,0.0,0.0,0.0,0.0,0.0,0.0,0.0,0.0,0.0,0.0,0.0,0.0,0.0,0.0,0.0,0.0,0.0,0.0,0.0,0.0,0.0,0.0,0.0,0.0,0.0,0.0,0.0,0.0,0.0,0.0,0.0,0.0,0.0,0.0,0.0,0.0,0.0,0.0,0.0,0.0,0.0,0.0,0.0,0.0,0.0,0.0,0.0,0.0,0.0,0.0,0.151,0.2235,0.2235,0.3799,0.4526,-0.5625,-0.4241,0.0,-0.202,0.0,0.0,0.0,0.0,0.0,0.0,0.0,0.0,0.0,0.0,0.0,0.0,0.0,0.0,0.0,0.0,0.0,0.0,0.0,0.0,0.0,0.0,0.0,0.0,0.0,0.0,0.0,0.0,0.0,0.0,0.0,0.0,0.0,0.0,0.0,0.0,0.0,0.0,0.0,0.0,0.0,0.0,0.0,0.0,0.0,0.0,0.0,0.0,0.0,0.0,0.0,0.0,0.0,0.0,0.0,0.0,0.0,0.0,0.0,0.0,0.0,0.0,0.0,0.0,0.0,0.0,0.0,0.0,0.0,0.0,0.0,0.0,0.0,0.0,0.0,0.0,0.0,0.0,0.0,0.0,0.0,0.0,0.0,0.0,0.0,0.0,0.0,0.0,0.0,0.0,0.0,0.0,0.0,0.0,0.0,0.0,0.0,0.0,0.0,0.0,0.0,0.0504,0.1566,0.2012,0.2738,0.3855,0.4303,0.4526,-0.4285,-0.3084,0.0,-0.1275,-0.0551,0.0,0.0,0.0,0.0,0.0,0.0,0.0,0.0,0.0,0.0,0.0,0.0,0.0,0.0,0.0,0.0,0.0,0.0,0.0,0.0,0.0,0.0,0.0,0.0,0.0,0.0,0.0,0.0,0.0,0.0,0.0,0.0,0.0,0.0,0.0,0.0,0.0,0.0,0.0,0.0,0.0,0.0,0.0,0.0,0.0,0.0,0.0,0.0,0.0,0.0,0.0,0.0,0.0,0.0,0.0,0.0,0.0,0.0,0.0,0.0,0.0,0.0,0.0,0.0,0.0,0.0,0.0,0.0,0.0,0.0,0.0,0.0,0.0,0.0,0.0,0.0,0.0,0.0,0.0,0.0,0.0,0.0,0.0,0.0,0.0,0.0,0.0,0.0,0.0,0.0,0.0,0.0,0.0,0.0,0.0,0.0,0.0,0.0,0.0,0.056,0.1287,0.218,0.3406,0.4467,0.5363,0.5977,0.6255,-0.2147,-0.0986,0.0,-0.0045,0.0,0.0,0.0,0.0,0.0,0.0,0.0,0.0,0.0,0.0,0.0,0.0,0.0,0.0,0.0,0.0,0.0,0.0,0.0,0.0,0.0,0.0,0.0,0.0,0.0,0.0,0.0,0.0,0.0,0.0,0.0,0.0,0.0,0.0,0.0,0.0,0.0,0.0,0.0,0.0,0.0,0.0,0.0,0.0,0.0,0.0,0.0,0.0,0.0,0.0,0.0,0.0,0.0,0.0,0.0,0.0,0.0,0.0,0.0,0.0,0.0,0.0,0.0,0.0,0.0,0.0,0.0,0.0,0.0,0.0,0.0,0.0,0.0,0.0,0.0,0.0,0.0,0.0,0.0,0.0,0.0,0.0,0.0,0.0,0.0,0.0,0.0,0.0,0.0,0.0,0.0,0.0,0.0,0.0,0.0,0.0056,0.0168,0.0056,0.0,0.0,0.1454,0.2291,0.2403,0.5303,0.6758,0.6924,0.8266,0.8885,-0.2147,-0.1612,0.0,0.0,0.0,0.0,0.0,0.0,0.0,0.0,0.0,0.0,0.0,0.0,0.0,0.0,0.0,0.0,0.0,0.0,0.0,0.0,0.0,0.0,0.0,0.0,0.0,0.0,0.0,0.0,0.0,0.0,0.0,0.0,0.0,0.0,0.0,0.0,0.0,0.0,0.0,0.0,0.0,0.0,0.0,0.0,0.0,0.0,0.0,0.0,0.0,0.0,0.0,0.0,0.0,0.0,0.0,0.0,0.0,0.0,0.0,0.0,0.0,0.0,0.0,0.0,0.0,0.0,0.0,0.0,0.0,0.0,0.0,0.0,0.0,0.0,0.0,0.0,0.0,0.0,0.0,0.0,0.0,0.0,0.0,0.0,0.0,0.0,0.0,0.0,0.0,0.0,0.0,0.0,0.0,0.0,0.0,0.0,0.0,0.0504,0.1677,0.0616,0.0,0.0,0.1454,0.2794,0.4023,0.5808,0.7315,0.8436,0.8771,0.8885,-0.1254,0.0,0.0,-0.0135,0.0,0.0,0.0,0.0,0.0,0.0,0.0,0.0,0.0,0.0,0.0,0.0,0.0,0.0,0.0,0.0,0.0,0.0,0.0,0.0,0.0,0.0,0.0,0.0,0.0,0.0,0.0,0.0,0.0,0.0,0.0,0.0,0.0,0.0,0.0,0.0,0.0,0.0,0.0,0.0,0.0,0.0,0.0,0.0,0.0,0.0,0.0,0.0,0.0,0.0,0.0,0.0,0.0,0.0,0.0,0.0,0.0,0.0,0.0,0.0,0.0,0.0,0.0,0.0,0.0,0.0,0.0,0.0,0.0,0.0,0.0,0.0,0.0,0.0,0.0,0.0,0.0,0.0,0.0,0.0,0.0,0.0,0.0,0.0,0.0,0.0,0.0,0.0,0.0,0.0,0.0,0.0,0.0,0.0,0.0,0.0672,0.2124,0.1454,0.1399,0.2126,0.3631,0.4747,0.553,0.7035,0.8156,0.8885,0.8885,0.8885,-0.0269,0.0,0.0,0.0,0.0,0.0,0.0,0.0,0.0,0.0,0.0,0.0,0.0,0.0,0.0,0.0,0.0,0.0,0.0,0.0,0.0,0.0,0.0,0.0,0.0,0.0,0.0,0.0,0.0,0.0,0.0,0.0,0.0,0.0,0.0,0.0,0.0,0.0,0.0,0.0,0.0,0.0,0.0,0.0,0.0,0.0,0.0,0.0,0.0,0.0,0.0,0.0,0.0,0.0,0.0,0.0,0.0,0.0,0.0,0.0,0.0,0.0,0.0,0.0,0.0,0.0,0.0,0.0,0.0,0.0,0.0,0.0,0.0,0.0,0.0,0.0,0.0,0.0,0.0,0.0,0.0,0.0,0.0,0.0,0.0,0.0,0.0,0.0,0.0,0.0,0.0,0.0,0.0,0.0,0.0,0.0,0.0,0.0,0.0224,0.1064,0.2515,0.2849,0.3687,0.525,0.6197,0.6702,0.6702,0.8156,0.8885,0.8885,0.8885,0.8885,-0.0045,0.0,0.0,0.0,0.0,0.0,0.0,0.0,0.0,0.0,0.0,0.0,0.0,0.0,0.0,0.0,0.0,0.0,0.0,0.0,0.0,0.0,0.0,0.0,0.0,0.0,0.0,0.0,0.0,0.0,0.0,0.0,0.0,0.0,0.0,0.0,0.0,0.0,0.0,0.0,0.0,0.0,0.0,0.0,0.0,0.0,0.0,0.0,0.0,0.0,0.0,0.0,0.0,0.0,0.0,0.0,0.0,0.0,0.0,0.0,0.0,0.0,0.0,0.0,0.0,0.0,0.0,0.0,0.0,0.0,0.0,0.0,0.0,0.0,0.0,0.0,0.0,0.0,0.0,0.0,0.0,0.0,0.0,0.0,0.0,0.0,0.0,0.0,0.0,0.0,0.0,0.0,0.0,0.0,0.0,0.0,0.0,0.0,0.1175,0.2571,0.4136,0.5417,0.6811,0.8266,0.726,0.6702,0.6702,0.8156,0.8885,0.8885,0.8885,0.8885,0.0,0.0,0.0,0.0,0.0,0.0,0.0,0.0,0.0,0.0,0.0,0.0,0.0,0.0,0.0,0.0,0.0,0.0,0.0,0.0,0.0,0.0,0.0,0.0,0.0,0.0,0.0,0.0,0.0,0.0,0.0,0.0,0.0,0.0,0.0,0.0,0.0,0.0,0.0,0.0,0.0,0.0,0.0,0.0,0.0,0.0,0.0,0.0,0.0,0.0,0.0,0.0,0.0,0.0,0.0,0.0,0.0,0.0,0.0,0.0,0.0,0.0,0.0,0.0,0.0,0.0,0.0,0.0,0.0,0.0,0.0,0.0,0.0,0.0,0.0,0.0,0.0,0.0,0.0,0.0,0.0,0.0,0.0,0.0,0.0,0.0,0.0728,0.1231,0.1231,0.2014,0.2181,0.1343,0.1231,0.0896,0.0056,0.0,0.0336,0.1175,0.1845,0.324,0.5641,0.6366,0.7371,0.8881,0.8266,0.7931,0.7931,0.8602,0.8885,0.8885,0.8885,0.8885,0.0,0.0,0.0404,0.009,0.0225,0.0359,0.0,0.0,0.0449,0.0,0.0718,0.0901,0.0914,0.065,0.0564,0.0849,0.0897,0.0899,0.0903,0.0904,0.0814,0.0486,0.0438,0.0343,0.005,0.0,0.0,0.0,0.0,0.0,0.0,0.0,0.0,0.0,0.0,0.0,0.0,0.0,0.0,0.0,0.0,0.0,0.0,0.0,0.0,0.0,0.0,0.0,0.0,0.0,0.0,0.0,0.0,0.0,0.0,0.0,0.0,0.0,0.0,0.0,0.0,0.0,0.0,0.0,0.0,0.0,0.0,0.0,0.0,0.0,0.0,0.0,0.0,0.0,0.0,0.0,0.0,0.0,0.0,0.0,0.0,0.0112,0.0504,0.056,0.0672,0.1064,0.2069,0.2794,0.2794,0.3799,0.408,0.2905,0.2794,0.218,0.0672,0.0896,0.1455,0.218,0.2904,0.4355,0.6589,0.7038,0.7762,0.8881,0.8885,0.8885,0.8885,0.8885,0.8885,0.8885,0.8885,0.8885,0.0,0.0852,0.0,0.0269,0.0852,0.0,0.0,0.0,0.1701,0.1701,0.2637,0.3393,0.3396,0.2464,0.2078,0.3218,0.3413,0.3435,0.3408,0.3417,0.2992,0.1858,0.1716,0.124,0.0096,0.0,0.0,0.0,0.0,0.0,0.0,0.0,0.0,0.0,0.0,0.0,0.0,0.0,0.0,0.0,0.0,0.0,0.0,0.0,0.0,0.0,0.0,0.0,0.0,0.0,0.0,0.0,0.0,0.0,0.0,0.0,0.0,0.0,0.0,0.0,0.0,0.0,0.0,0.0,0.0,0.0,0.0,0.0,0.0,0.0,0.0,0.0,0.0,0.0,0.0,0.0,0.0,0.0,0.0,0.0,0.0,0.0448,0.1845,0.2068,0.2571,0.4024,0.4303,0.4359,0.4359,0.447,0.447,0.4414,0.4359,0.3744,0.2235,0.3409,0.3688,0.2291,0.4856,0.6533,0.6702,0.8042,0.8826,0.8885,0.8885,0.8885,0.8885,0.8885,0.8885,0.8885,0.8885,0.8885,0.0,0.0,0.0,0.1254,0.2057,0.2858,0.2413,0.2637,0.2948,0.2948,0.3303,0.3838,0.4596,0.3749,0.3089,0.3515,0.361,0.3619,0.3601,0.3606,0.3441,0.3023,0.2934,0.2483,0.1284,0.115,0.0818,0.0048,0.0,0.0,0.0,0.0,0.0,0.0,0.0,0.0,0.0,0.0,0.0,0.0,0.0,0.0,0.0,0.0,0.0,0.0,0.0,0.0,0.0,0.0,0.0,0.0,0.0,0.0,0.0,0.0,0.0,0.0,0.0,0.0,0.0,0.0,0.0,0.0,0.0,0.0,0.0,0.0,0.0,0.0,0.0,0.0,0.0,0.0,0.0,0.0,0.0,0.0,0.028,0.1231,0.1399,0.1901,0.3409,0.3688,0.3855,0.4414,0.5308,0.5919,0.5919,0.6758,0.698,0.6031,0.5919,0.5306,0.3799,0.4191,0.4693,0.5081,0.6086,0.7146,0.81,0.8605,0.8885,0.8885,0.8885,0.8885,0.8885,0.8885,0.8885,0.8885,0.8885,0.8885,0.0,0.0,0.0,0.0,0.0,0.4105,0.3703,0.0,0.4194,0.4194,0.4505,0.5041,0.5802,0.5309,0.4772,0.4772,0.4772,0.4772,0.4772,0.4772,0.4618,0.4231,0.4191,0.3712,0.2511,0.2017,0.1461,0.066,0.024,0.0,0.0,0.0,0.0,0.0,0.0,0.0,0.0,0.0,0.0,0.0,0.0,0.0,0.0,0.0,0.0,0.0,0.0,0.0,0.0,0.0,0.0,0.0,0.0,0.0,0.0,0.0,0.0,0.0,0.0,0.0,0.0,0.0,0.0,0.0,0.0,0.0,0.0,0.0,0.0,0.0,0.0,0.0,0.0,0.0,0.0,0.0,0.0,0.0392,0.1008,0.2012,0.2626,0.3463,0.4972,0.525,0.5419,0.5919,0.6813,0.7426,0.7426,0.8266,0.8546,0.7537,0.7426,0.6813,0.5363,0.5697,0.62,0.6644,0.7149,0.7875,0.8881,0.8885,0.8885,0.8885,0.8885,0.8885,0.8885,0.8885,0.8885,0.8885,0.8885,0.8885,0.0,0.0,0.0,0.0,0.0,0.0,0.3972,0.0,0.5447,0.5447,0.6337,0.7095,0.7095,0.7095,0.7095,0.7095,0.7095,0.7095,0.7095,0.7095,0.6694,0.5581,0.5447,0.4954,0.3748,0.2549,0.1845,0.1799,0.0659,0.0,0.0,0.0,0.0,0.0,0.0,0.0,0.0,0.0,0.0,0.0,0.0,0.0,0.0,0.0,0.0,0.0,0.0,0.0,0.0,0.0,0.0,0.0,0.0,0.0,0.0,0.0,0.0,0.0,0.0,0.0,0.0,0.0,0.0,0.0,0.0,0.0,0.0,0.0,0.0,0.0,0.0,0.0,0.0,0.0,0.0,0.0,0.0,0.1175,0.2291,0.2291,0.3521,0.5027,0.6533,0.6755,0.726,0.866,0.8885,0.8885,0.8885,0.8885,0.8885,0.8885,0.8885,0.8322,0.6869,0.8097,0.8266,0.6869,0.8097,0.8885,0.8885,0.8885,0.8885,0.8885,0.8885,0.8885,0.8885,0.8885,0.8885,0.8885,0.8885,0.8885,0.0,0.0,0.0,0.0,0.0,0.0,0.0,0.0,0.665,0.665,0.6874,0.7095,0.7095,0.7095,0.7095,0.7095,0.7095,0.7095,0.7095,0.7095,0.6962,0.665,0.665,0.616,0.5001,0.3814,0.2749,0.0,0.0691,0.0,0.0,0.0,0.0,0.0,0.0,0.0,0.0,0.0,0.0,0.0,0.0,0.0,0.0,0.0,0.0,0.0,0.0,0.0,0.0,0.0,0.0,0.0,0.0,0.0,0.0,0.0,0.0,0.0,0.0,0.0,0.0,0.0,0.0,0.0,0.0,0.0,0.0,0.0,0.0,0.0,0.0,0.0,0.0,0.0,0.0,0.0,0.0,0.2014,0.3855,0.3855,0.5083,0.6533,0.8042,0.8266,0.8432,0.8826,0.8885,0.8885,0.8885,0.8885,0.8885,0.8885,0.8885,0.8716,0.8322,0.8657,0.8716,0.8322,0.866,0.8885,0.8885,0.8885,0.8885,0.8885,0.8885,0.8885,0.8885,0.8885,0.8885,0.8885,0.8885,0.8885,0.0,0.0,0.0,0.0,0.0,0.0,0.6827,0.7095,0.7095,0.0,0.7095,0.7095,0.7095,0.7095,0.7095,0.7095,0.7095,0.7095,0.7095,0.7095,0.7095,0.7095,0.7095,0.6827,0.616,0.5043,0.4063,0.3352,0.172,0.055,0.0046,0.0,0.0,0.0,0.0,0.0,0.0,0.0,0.0,0.0,0.0,0.0,0.0,0.0,0.0,0.0,0.0,0.0,0.0,0.0,0.0,0.0,0.0,0.0,0.0,0.0,0.0,0.0,0.0,0.0,0.0,0.0,0.0,0.0,0.0,0.0,0.0,0.0,0.0,0.0,0.0,0.0,0.0,0.0,0.0448,0.0896,0.0896,0.3297,0.525,0.4637,0.62,0.7875,0.8771,0.8885,0.8885,0.8885,0.8885,0.8885,0.8885,0.8885,0.8885,0.8885,0.8885,0.8885,0.8885,0.8885,0.8885,0.8885,0.8885,0.8885,0.8885,0.8885,0.8885,0.8885,0.8885,0.8885,0.8885,0.8885,0.8885,0.8885,0.8885,0.8885,0.0,0.0,0.0,0.0,0.0,0.0,0.6827,0.7095,0.7095,0.0,0.7095,0.7095,0.7095,0.7095,0.7095,0.7095,0.7095,0.7095,0.7095,0.7095,0.7095,0.7095,0.7095,0.7095,0.7095,0.6071,0.5403,0.5403,0.3173,0.1354,0.0276,0.0092,0.0,0.0,0.0,0.0,0.0,0.0,0.0,0.0,0.0,0.0,0.0,0.0,0.0,0.0,0.0,0.0,0.0,0.0,0.0,0.0,0.0,0.0,0.0,0.0,0.0,0.0,0.0,0.0,0.0,0.0,0.0,0.0,0.0,0.0,0.0,0.0,0.0,0.0,0.0,0.0,0.0,0.0,0.1119,0.218,0.218,0.4578,0.6311,0.4972,0.698,0.8885,0.8885,0.8885,0.8885,0.8885,0.8885,0.8885,0.8885,0.8885,0.8885,0.8885,0.8885,0.8885,0.8885,0.8885,0.8885,0.8885,0.8885,0.8885,0.8885,0.8885,0.8885,0.8885,0.8885,0.8885,0.8885,0.8885,0.8885,0.8885,0.8885,0.8885,0.0,0.0,0.0,0.0,0.0,0.0,0.6602,0.7095,0.7095,0.0,0.7095,0.7095,0.7095,0.7095,0.7095,0.7095,0.7095,0.7095,0.7095,0.7095,0.7095,0.7095,0.7095,0.7095,0.7095,0.6071,0.5403,0.5403,0.3173,0.1704,0.1441,0.055,0.0,0.0,0.0,0.0,0.0,0.0,0.0,0.0,0.0,0.0,0.0,0.0,0.0,0.0,0.0,0.0,0.0,0.0,0.0,0.0,0.0,0.0,0.0,0.0,0.0,0.0,0.0,0.0,0.0,0.0,0.0,0.0,0.0,0.0,0.0,0.0,0.0,0.0,0.0,0.0,0.0,0.0,0.1119,0.218,0.218,0.4578,0.6591,0.6311,0.7706,0.8885,0.8885,0.8885,0.8885,0.8885,0.8885,0.8885,0.8885,0.8885,0.8885,0.8885,0.8885,0.8885,0.8885,0.8885,0.8885,0.8885,0.8885,0.8885,0.8885,0.8885,0.8885,0.8885,0.8885,0.8885,0.8885,0.8885,0.8885,0.8885,0.8885,0.8885,0.0,0.0,0.0,0.2236,0.0,0.0,0.0,0.6694,0.7095,0.7095,0.7095,0.7095,0.7095,0.7095,0.7095,0.7095,0.7095,0.7095,0.7095,0.7095,0.7095,0.7095,0.7095,0.7095,0.7095,0.6605,0.6027,0.5447,0.3707,0.2413,0.1835,0.0634,0.0,0.0,0.0,0.0,0.0,0.0,0.0,0.0,0.0,0.0,0.0,0.0,0.0,0.0,0.0,0.0,0.0,0.0,0.0,0.0,0.0,0.0,0.0,0.0,0.0,0.0,0.0,0.0,0.0,0.0,0.0,0.0,0.0,0.0,0.0,0.0,0.0,0.0,0.0,0.0,0.0168,0.0896,0.2236,0.3575,0.4298,0.6195,0.7817,0.7817,0.838,0.8885,0.8885,0.8885,0.8885,0.8885,0.8885,0.8885,0.8885,0.8885,0.8885,0.8885,0.8885,0.8885,0.8885,0.8885,0.8885,0.8885,0.8885,0.8885,0.8885,0.8885,0.8885,0.8885,0.8885,0.8885,0.8885,0.8885,0.8885,0.8885,0.8885,0.8885,0.0,0.0,0.0,0.0,0.0,0.3616,0.0,0.0,0.0,0.7051,0.7095,0.0,0.0,0.0,0.0,0.0,0.0,0.0,0.0,0.7095,0.0,0.7095,0.7095,0.7095,0.7095,0.7095,0.6738,0.5802,0.4419,0.326,0.2549,0.0897,0.009,0.0359,0.0137,0.0,0.0,0.0,0.0,0.0,0.0,0.0,0.0,0.0,0.0,0.0,0.0,0.0,0.0,0.0,0.0,0.0,0.0,0.0,0.0,0.0,0.0,0.0,0.0,0.0,0.0,0.0,0.0,0.0,0.0,0.0,0.0,0.0,0.0,0.0,0.0,0.0224,0.0728,0.1901,0.3575,0.5252,0.6422,0.7873,0.8885,0.8885,0.8885,0.8885,0.8885,0.8885,0.8885,0.8885,0.8885,0.8885,0.8885,0.8885,0.8885,0.8885,0.8885,0.8885,0.8885,0.8885,0.8885,0.8885,0.8885,0.8885,0.8885,0.8885,0.8885,0.8885,0.8885,0.8885,0.8885,0.8912,0.8981,0.8981,0.8981,0.8994,0.0,0.0,0.0,0.0,0.1924,0.0,0.0,0.0,0.5891,0.6871,0.0,0.0,0.0,0.0,0.0,0.0,0.0,0.0,0.7095,0.7095,0.7095,0.7095,0.7095,0.7095,0.7095,0.7095,0.7051,0.6918,0.4861,0.4016,0.4956,0.1836,0.0494,0.1567,0.054,0.0,0.0,0.0,0.0,0.0,0.0,0.0,0.0,0.0,0.0,0.0,0.0,0.0,0.0,0.0,0.0,0.0,0.0,0.0,0.0,0.0,0.0,0.0,0.0,0.0,0.0,0.0,0.0,0.0,0.0,0.0,0.0,0.0,0.0,0.0,0.0,0.0952,0.2012,0.218,0.4355,0.6478,0.6644,0.7873,0.8885,0.8885,0.8885,0.8885,0.8885,0.8885,0.8885,0.8885,0.8885,0.8885,0.8885,0.8885,0.8885,0.8885,0.8885,0.8885,0.8885,0.8885,0.8885,0.8885,0.8885,0.8885,0.8885,0.8885,0.8885,0.8885,0.8885,0.8885,0.8885,0.9066,0.9183,0.9183,0.9183,0.9201,0.0,0.0,0.0,0.0,0.0,0.0,0.3083,0.0,0.4685,0.0,0.0,0.0,0.0,0.0,0.0,0.0,0.7095,0.0,0.0,0.0,0.7095,0.0,0.0,0.0,0.616,0.6694,0.6827,0.616,0.522,0.4865,0.5359,0.2638,0.1299,0.179,0.0628,0.0,0.0,0.0,0.0,0.0,0.0,0.0,0.0,0.0,0.0,0.0,0.0,0.0,0.0,0.0,0.0,0.0,0.0,0.0,0.0,0.0,0.0,0.0,0.0,0.0,0.0,0.0,0.0,0.0,0.0,0.0,0.0,0.0,0.0616,0.1287,0.1287,0.2404,0.3742,0.4634,0.575,0.6924,0.7817,0.8491,0.8885,0.8885,0.8885,0.8885,0.8885,0.8885,0.8885,0.8885,0.8885,0.8885,0.8885,0.8885,0.8885,0.8885,0.8885,0.8885,0.8885,0.8885,0.8885,0.8885,0.8885,0.8885,0.8885,0.8885,0.8885,0.8885,0.8885,0.8885,0.8885,0.9083,0.9255,0.9344,0.9344,0.932,0.0,0.0,0.0,0.0,0.0,0.0,0.0,0.0,0.0,0.0,0.0,0.0,0.0,0.0,0.0,0.0,0.0,0.7095,0.0,0.7095,0.0,0.0,0.0,0.0,0.0,0.6605,0.6738,0.5938,0.5581,0.5536,0.5849,0.3573,0.2459,0.2772,0.1612,0.0986,0.0986,0.0637,0.0506,0.0509,0.0143,0.0,0.0,0.0,0.0,0.0,0.0,0.0,0.0,0.0,0.0,0.0,0.0,0.0,0.0,0.0,0.0,0.0,0.0,0.0,0.0,0.0,0.0,0.0,0.0,0.0267,0.059,0.061,0.1678,0.285,0.285,0.3967,0.5363,0.6422,0.7035,0.7595,0.866,0.8885,0.8885,0.8885,0.8885,0.8885,0.8885,0.8885,0.8885,0.8885,0.8885,0.8885,0.8885,0.8885,0.8885,0.8885,0.8885,0.8885,0.8885,0.8885,0.8885,0.8885,0.8885,0.8885,0.8885,0.8885,0.8885,0.8885,0.8885,0.8885,0.8885,0.9127,0.933,0.9384,0.9425,0.9462,0.0,0.0,0.0,0.0,0.0,0.0,0.0,0.0,0.2191,0.0,0.0,0.0,0.0,0.0,0.0,0.0,0.0,0.0,0.0,0.0,0.0,0.0,0.0,0.0,0.0,0.7095,0.7095,0.0,0.6027,0.5891,0.7007,0.4816,0.4061,0.527,0.4107,0.3481,0.3481,0.2326,0.172,0.1709,0.0556,0.0,0.0,0.0,0.0,0.0,0.0,0.0,0.0,0.0,0.0,0.0,0.0,0.0,0.0,0.0,0.0,0.0,0.0,0.0,0.0,0.0,0.0,0.0,0.0,0.1012,0.2142,0.2104,0.3242,0.4414,0.4414,0.553,0.6647,0.67,0.7817,0.883,0.8881,0.8885,0.8885,0.8885,0.8885,0.8885,0.8885,0.8885,0.8885,0.8885,0.8885,0.8885,0.8885,0.8885,0.8885,0.8885,0.8885,0.8885,0.8885,0.8885,0.8885,0.8885,0.8885,0.8885,0.8885,0.8885,0.8885,0.8885,0.8885,0.8885,0.8885,0.9232,0.9374,0.9384,0.9534,0.9676,0.0,0.0,0.0,0.0,0.0,0.0,0.0,0.0,0.0,0.0,0.0,0.0,0.0,0.0,0.0,0.0,0.0,0.0,0.0,0.0,0.0,0.0,0.0,0.0,0.0,0.0,0.0,0.0,0.6337,0.6694,0.7095,0.5622,0.4999,0.5403,0.4241,0.3614,0.3614,0.3213,0.2601,0.181,0.1376,0.0791,0.0,0.0,0.0,0.0,0.0,0.0,0.0,0.0,0.0,0.0,0.0,0.0,0.0,0.0,0.0,0.0,0.0,0.0,0.0,0.0,0.0,0.0152,0.1038,0.1739,0.2404,0.3275,0.4705,0.5975,0.5975,0.7035,0.8156,0.8156,0.8546,0.8885,0.8885,0.8885,0.8885,0.8885,0.8885,0.8885,0.8885,0.8885,0.8885,0.8885,0.8885,0.8885,0.8885,0.8885,0.8885,0.8885,0.8885,0.8885,0.8885,0.8885,0.8885,0.8885,0.8885,0.8885,0.8885,0.8885,0.8885,0.8885,0.8885,0.8885,0.8885,0.9235,0.9381,0.9388,0.9635,0.9774,-0.0275,0.0,0.0,0.0,0.0,0.0,0.0,0.0,0.0,0.0,0.0,0.0,0.0,0.0,0.0,0.0,0.0,0.0,0.0,0.7095,0.0,0.0,0.0,0.0,0.0,0.0,0.0,0.6071,0.6694,0.7095,0.0,0.6381,0.6027,0.6027,0.5265,0.4861,0.4861,0.4461,0.384,0.3084,0.2629,0.1787,0.0648,0.0622,0.039,0.0,0.0,0.0,0.0,0.0,0.0,0.0,0.0,0.0,0.0,0.0,0.0,0.0,0.0,0.0,0.0,0.0,0.0303,0.086,0.175,0.2827,0.3887,0.4768,0.6227,0.7485,0.7485,0.8211,0.8885,0.8885,0.8885,0.8885,0.8885,0.8885,0.8885,0.8885,0.8885,0.8885,0.8885,0.8885,0.8885,0.8885,0.8885,0.8885,0.8885,0.8885,0.8885,0.8885,0.8885,0.8885,0.8885,0.8885,0.8885,0.8885,0.8885,0.8885,0.8885,0.8885,0.8932,0.9093,0.9042,0.9042,0.9096,0.934,0.9435,0.9388,0.9683,0.9822]},{"header":{"parameterUnit":"m.s-1","parameterCategory":1,"la1":30.6,"la2":29.2853,"lo1":-89.7004,"lo2":-87.6739,"dy":0.0162,"dx":0.0183,"nx":112,"ny":82,"refTime":"2023-08-29T06:00:00:Z","depth":0,"parameterNumber":3,"parameterNumberName":"V-component_of_WINDS"},"data":[0.0,0.0,0.0,0.0,0.0,0.0,0.0,0.0,0.0,0.0,0.0,0.0,0.0,0.0,0.0,0.0,0.0,0.0,0.0,0.0,0.0,0.0,0.0,0.0,0.0,0.0,0.0,0.0,0.0,0.0,0.0,0.0,0.0,0.0,0.0,0.0,0.0,0.0,0.0,0.0,0.0,0.0,0.0,0.0,0.0,0.0,0.0,0.0,0.0,0.0,0.0,0.0,0.0,0.0,0.0,0.0,0.0,0.0,0.0,0.0,0.0,0.0,0.0,0.0,0.0,0.0,0.0,0.0,0.0,0.0,0.0,0.0,0.0,0.0,0.0,0.0,0.0,0.0,0.0,0.0,0.0,0.0,0.0,0.0,0.0,0.0,0.0,0.0,0.0,0.0,4.5594,4.5594,4.5594,4.5594,4.5594,4.5594,4.5594,4.5594,0.0,0.0,0.0,0.0,0.0,0.0,0.0,0.0,0.0,0.0,0.0,0.0,0.0,0.0,0.0,0.0,0.0,0.0,0.0,0.0,0.0,0.0,0.0,0.0,0.0,0.0,0.0,0.0,0.0,0.0,0.0,0.0,0.0,0.0,0.0,0.0,0.0,0.0,0.0,0.0,0.0,0.0,0.0,0.0,0.0,0.0,0.0,0.0,0.0,0.0,0.0,0.0,0.0,0.0,0.0,0.0,0.0,0.0,0.0,0.0,0.0,0.0,0.0,0.0,0.0,0.0,0.0,0.0,0.0,0.0,0.0,0.0,0.0,0.0,0.0,0.0,0.0,0.0,0.0,0.0,0.0,0.0,0.0,0.0,0.0,0.0,0.0,0.0,0.0,0.0,0.0,0.0,0.0,0.0,0.0,0.0,0.0,0.0,0.0,0.0,0.0,0.0,0.0,0.0,4.5594,4.5594,4.5594,4.5594,4.5594,4.5594,4.5594,4.5594,0.0,0.0,0.0,0.0,0.0,0.0,0.0,0.0,0.0,0.0,0.0,0.0,0.0,0.0,0.0,0.0,0.0,0.0,0.0,0.0,0.0,0.0,0.0,0.0,0.0,0.0,0.0,0.0,0.0,0.0,0.0,0.0,0.0,0.0,0.0,0.0,0.0,0.0,0.0,0.0,0.0,0.0,0.0,0.0,0.0,0.0,0.0,0.0,0.0,0.0,0.0,0.0,0.0,0.0,0.0,0.0,0.0,0.0,0.0,0.0,0.0,0.0,0.0,0.0,0.0,0.0,0.0,0.0,0.0,0.0,0.0,0.0,0.0,0.0,0.0,0.0,0.0,0.0,0.0,0.0,0.0,0.0,0.0,0.0,0.0,0.0,0.0,0.0,0.0,0.0,0.0,0.0,0.0,0.0,0.0,0.0,0.0,0.0,0.0,0.0,0.0,0.0,0.0,4.5594,4.5594,4.5594,4.5594,4.5594,4.5594,4.5594,4.5594,4.5594,4.5594,0.0,0.0,0.0,0.0,0.0,0.0,0.0,0.0,0.0,0.0,0.0,0.0,0.0,0.0,0.0,0.0,0.0,0.0,0.0,0.0,0.0,0.0,0.0,0.0,0.0,0.0,0.0,0.0,0.0,0.0,0.0,0.0,0.0,0.0,0.0,0.0,0.0,0.0,0.0,0.0,0.0,0.0,0.0,0.0,0.0,0.0,0.0,0.0,0.0,0.0,0.0,0.0,0.0,0.0,0.0,0.0,0.0,0.0,0.0,0.0,0.0,0.0,0.0,0.0,0.0,0.0,0.0,0.0,0.0,0.0,0.0,0.0,0.0,0.0,0.0,0.0,0.0,0.0,0.0,0.0,0.0,0.0,0.0,0.0,0.0,0.0,0.0,0.0,0.0,0.0,0.0,0.0,0.0,0.0,0.0,0.0,0.0,0.0,0.0,0.0,0.0,0.0,4.5594,4.5594,4.5594,4.5594,4.5594,4.5594,4.5594,4.5594,4.5594,4.5594,0.0,0.0,0.0,0.0,0.0,0.0,0.0,0.0,0.0,0.0,0.0,0.0,0.0,0.0,0.0,0.0,0.0,0.0,0.0,0.0,0.0,0.0,0.0,0.0,0.0,0.0,0.0,0.0,0.0,0.0,0.0,0.0,0.0,0.0,0.0,0.0,0.0,0.0,0.0,0.0,0.0,0.0,0.0,0.0,0.0,0.0,0.0,0.0,0.0,0.0,0.0,0.0,0.0,0.0,0.0,0.0,0.0,0.0,0.0,0.0,0.0,0.0,0.0,0.0,0.0,0.0,0.0,0.0,0.0,0.0,0.0,0.0,0.0,0.0,0.0,0.0,0.0,0.0,0.0,0.0,0.0,0.0,0.0,0.0,0.0,0.0,0.0,0.0,0.0,0.0,0.0,0.0,0.0,0.0,0.0,0.0,0.0,0.0,0.0,0.0,0.0,0.0,4.5594,4.5594,4.5594,4.5594,4.5594,4.5594,4.5594,4.5594,4.5594,4.5594,0.0,0.0,0.0,0.0,0.0,0.0,0.0,0.0,0.0,0.0,0.0,0.0,0.0,0.0,0.0,0.0,0.0,0.0,0.0,0.0,0.0,0.0,0.0,0.0,0.0,0.0,0.0,0.0,0.0,0.0,0.0,0.0,0.0,0.0,0.0,0.0,0.0,0.0,0.0,0.0,0.0,0.0,0.0,0.0,0.0,0.0,0.0,0.0,0.0,0.0,0.0,0.0,0.0,0.0,0.0,0.0,0.0,0.0,0.0,0.0,0.0,0.0,0.0,0.0,0.0,0.0,0.0,0.0,0.0,0.0,0.0,0.0,0.0,0.0,0.0,0.0,0.0,0.0,0.0,0.0,0.0,0.0,0.0,0.0,0.0,0.0,0.0,0.0,0.0,0.0,0.0,0.0,0.0,0.0,0.0,0.0,0.0,0.0,0.0,0.0,0.0,0.0,4.5476,4.5594,0.0,4.5419,4.5362,4.5577,4.541,4.539,4.5586,0.0,0.0,0.0,0.0,0.0,0.0,0.0,0.0,0.0,0.0,0.0,0.0,0.0,0.0,0.0,0.0,0.0,0.0,0.0,0.0,0.0,0.0,0.0,0.0,0.0,0.0,0.0,0.0,0.0,0.0,0.0,0.0,0.0,0.0,0.0,0.0,0.0,0.0,0.0,0.0,0.0,0.0,0.0,0.0,0.0,0.0,0.0,0.0,0.0,0.0,0.0,0.0,0.0,0.0,0.0,0.0,0.0,0.0,0.0,0.0,0.0,0.0,0.0,0.0,0.0,0.0,0.0,0.0,0.0,0.0,0.0,0.0,0.0,0.0,0.0,0.0,0.0,0.0,0.0,0.0,0.0,0.0,0.0,0.0,0.0,0.0,0.0,0.0,0.0,0.0,0.0,0.0,0.0,0.0,0.0,0.0,0.0,0.0,0.0,0.0,0.0,0.0,4.5096,4.5302,4.5438,0.0,4.514,4.5085,4.5419,4.5232,4.5201,4.5429,0.0,0.0,0.0,0.0,0.0,0.0,0.0,0.0,0.0,0.0,0.0,0.0,0.0,0.0,0.0,0.0,0.0,0.0,0.0,0.0,0.0,0.0,0.0,0.0,0.0,0.0,0.0,0.0,0.0,0.0,0.0,0.0,0.0,0.0,0.0,0.0,0.0,0.0,0.0,0.0,0.0,0.0,0.0,0.0,0.0,0.0,0.0,0.0,0.0,0.0,0.0,0.0,0.0,0.0,0.0,0.0,0.0,0.0,0.0,0.0,0.0,0.0,0.0,0.0,0.0,0.0,0.0,0.0,0.0,0.0,0.0,0.0,0.0,0.0,0.0,0.0,0.0,0.0,0.0,0.0,0.0,0.0,0.0,0.0,0.0,0.0,0.0,0.0,0.0,0.0,0.0,0.0,0.0,0.0,0.0,0.0,0.0,0.0,0.0,0.0,0.0,0.0,4.5096,4.5096,4.5096,4.5096,4.4812,4.472,4.5074,4.5096,4.5096,0.0,0.0,0.0,0.0,0.0,0.0,0.0,0.0,0.0,0.0,0.0,0.0,0.0,0.0,0.0,0.0,0.0,0.0,0.0,0.0,0.0,0.0,0.0,0.0,0.0,0.0,0.0,0.0,0.0,0.0,0.0,0.0,0.0,0.0,0.0,0.0,0.0,0.0,0.0,0.0,0.0,0.0,0.0,0.0,0.0,0.0,0.0,0.0,0.0,0.0,0.0,0.0,0.0,0.0,0.0,0.0,0.0,0.0,0.0,0.0,0.0,0.0,0.0,0.0,0.0,0.0,0.0,0.0,0.0,0.0,0.0,0.0,0.0,0.0,0.0,0.0,0.0,0.0,0.0,0.0,0.0,0.0,0.0,0.0,0.0,0.0,0.0,0.0,0.0,0.0,0.0,0.0,0.0,0.0,0.0,0.0,0.0,0.0,0.0,0.0,0.0,0.0,0.0,4.4751,4.4943,4.5191,4.5429,4.4701,4.4428,4.5052,4.4884,4.4751,4.4751,0.0,0.0,0.0,0.0,0.0,0.0,0.0,0.0,0.0,0.0,0.0,0.0,0.0,0.0,0.0,0.0,0.0,0.0,0.0,0.0,0.0,0.0,0.0,0.0,0.0,0.0,0.0,0.0,0.0,0.0,0.0,0.0,0.0,0.0,0.0,0.0,0.0,0.0,0.0,0.0,0.0,0.0,0.0,0.0,0.0,0.0,0.0,0.0,0.0,0.0,0.0,0.0,0.0,0.0,0.0,0.0,0.0,0.0,0.0,0.0,0.0,0.0,0.0,0.0,0.0,0.0,0.0,0.0,0.0,0.0,0.0,0.0,0.0,0.0,0.0,0.0,0.0,0.0,0.0,0.0,0.0,0.0,0.0,0.0,0.0,0.0,0.0,0.0,0.0,0.0,0.0,0.0,0.0,0.0,0.0,0.0,0.0,0.0,0.0,0.0,0.0,0.0,4.4346,4.4535,4.4738,4.4939,4.4257,4.4031,4.4612,4.4468,4.4346,4.4346,0.0,0.0,0.0,0.0,0.0,0.0,0.0,0.0,0.0,0.0,0.0,0.0,0.0,0.0,0.0,0.0,0.0,0.0,0.0,0.0,0.0,0.0,0.0,0.0,0.0,0.0,0.0,0.0,0.0,0.0,0.0,0.0,0.0,0.0,0.0,0.0,0.0,0.0,0.0,0.0,0.0,0.0,0.0,0.0,0.0,0.0,0.0,0.0,0.0,0.0,0.0,0.0,0.0,0.0,0.0,0.0,0.0,0.0,0.0,0.0,0.0,0.0,0.0,0.0,0.0,0.0,0.0,0.0,0.0,0.0,0.0,0.0,0.0,0.0,0.0,0.0,0.0,0.0,0.0,0.0,0.0,0.0,0.0,0.0,0.0,0.0,0.0,0.0,0.0,0.0,0.0,0.0,0.0,0.0,0.0,0.0,0.0,0.0,0.0,0.0,0.0,0.0,4.4001,4.4001,4.3998,4.4043,4.3726,4.3629,4.3971,4.4001,4.3986,4.3955,0.0,0.0,0.0,0.0,0.0,0.0,0.0,0.0,0.0,0.0,0.0,0.0,0.0,0.0,0.0,0.0,0.0,0.0,0.0,0.0,0.0,0.0,0.0,0.0,0.0,0.0,0.0,0.0,0.0,0.0,0.0,0.0,0.0,0.0,0.0,0.0,0.0,0.0,0.0,0.0,0.0,0.0,0.0,0.0,0.0,0.0,0.0,0.0,0.0,0.0,0.0,0.0,0.0,0.0,0.0,0.0,0.0,0.0,0.0,0.0,4.4213,0.0,0.0,0.0,0.0,0.0,0.0,0.0,0.0,0.0,0.0,0.0,0.0,0.0,0.0,0.0,0.0,0.0,0.0,0.0,0.0,0.0,0.0,0.0,0.0,0.0,0.0,0.0,0.0,0.0,0.0,0.0,0.0,0.0,0.0,0.0,0.0,0.0,0.0,0.0,0.0,0.0,4.4001,4.4001,4.4117,4.4447,4.3884,4.3629,4.3971,4.4001,4.3896,4.3612,4.415,0.0,0.0,0.0,0.0,0.0,0.0,0.0,0.0,0.0,0.0,0.0,0.0,0.0,0.0,0.0,0.0,0.0,0.0,0.0,0.0,0.0,0.0,0.0,0.0,0.0,0.0,0.0,0.0,0.0,0.0,0.0,0.0,0.0,0.0,0.0,0.0,0.0,0.0,0.0,0.0,0.0,0.0,0.0,0.0,0.0,0.0,0.0,0.0,0.0,0.0,0.0,0.0,0.0,0.0,0.0,0.0,0.0,0.0,0.0,0.0,4.4163,0.0,0.0,0.0,0.0,0.0,0.0,0.0,0.0,0.0,0.0,0.0,0.0,0.0,0.0,0.0,0.0,0.0,0.0,0.0,0.0,0.0,0.0,0.0,0.0,0.0,0.0,0.0,0.0,0.0,0.0,0.0,0.0,0.0,0.0,0.0,0.0,0.0,0.0,0.0,0.0,4.3756,4.3756,4.3836,4.405,4.3728,4.3563,4.374,4.3756,4.3695,4.3496,4.3871,0.0,0.0,0.0,0.0,0.0,0.0,0.0,0.0,0.0,0.0,0.0,0.0,0.0,0.0,0.0,0.0,0.0,0.0,0.0,0.0,0.0,0.0,0.0,0.0,0.0,0.0,0.0,0.0,0.0,0.0,0.0,0.0,0.0,0.0,0.0,0.0,0.0,0.0,0.0,0.0,0.0,0.0,0.0,0.0,0.0,0.0,0.0,0.0,0.0,0.0,0.0,0.0,0.0,4.6999,4.6733,4.6733,4.6733,4.6663,4.6502,4.5533,4.5057,4.4911,4.4911,0.0,0.0,0.0,0.0,0.0,0.0,0.0,0.0,0.0,0.0,0.0,0.0,0.0,0.0,0.0,0.0,0.0,0.0,0.0,0.0,0.0,0.0,0.0,0.0,4.54,4.5253,4.5531,0.0,0.0,0.0,0.0,0.0,0.0,0.0,0.0,0.0,0.0,0.0,4.3515,4.3515,4.3515,4.3515,4.3515,4.3515,4.3515,4.3515,4.3515,4.3515,4.3515,4.3515,0.0,0.0,0.0,0.0,0.0,0.0,0.0,0.0,0.0,0.0,0.0,0.0,0.0,0.0,0.0,0.0,0.0,0.0,0.0,0.0,0.0,0.0,0.0,0.0,0.0,0.0,0.0,0.0,0.0,0.0,0.0,0.0,4.458,4.469,0.0,0.0,0.0,0.0,0.0,0.0,0.0,0.0,0.0,0.0,0.0,0.0,0.0,4.6712,4.7385,4.7406,4.7656,4.8172,4.8094,4.8055,4.8055,4.8055,4.804,4.799,4.7149,0.0,4.5736,4.5736,0.0,0.0,0.0,0.0,0.0,0.0,0.0,0.0,0.0,0.0,0.0,0.0,0.0,0.0,0.0,0.0,0.0,0.0,0.0,0.0,0.0,0.0,4.5594,4.5594,4.5568,4.555,0.0,4.514,4.472,4.472,4.4657,0.0,0.0,0.0,0.0,0.0,0.0,0.0,4.3515,4.3515,4.3515,4.3515,4.3515,4.3515,4.3515,4.3515,4.3515,4.3515,4.3515,4.3515,4.3515,4.3548,0.0,0.0,0.0,0.0,0.0,0.0,0.0,0.0,0.0,0.0,0.0,0.0,0.0,0.0,0.0,0.0,0.0,0.0,0.0,0.0,0.0,0.0,0.0,0.0,0.0,0.0,0.0,0.0,0.0,4.5149,4.5553,4.5993,4.636,4.6764,0.0,0.0,0.0,0.0,0.0,0.0,0.0,0.0,0.0,4.747,4.747,4.7596,4.7897,4.7917,4.8035,4.8306,4.8306,4.8306,4.8306,4.8306,4.8306,4.8288,4.792,4.7572,4.7205,4.6764,4.6562,4.6617,0.0,0.0,0.0,0.0,4.726,4.7224,4.698,4.7019,4.7215,4.7391,0.0,0.0,0.0,0.0,0.0,0.0,0.0,0.0,0.0,0.0,4.6201,4.5729,4.5594,4.5594,4.5594,4.5362,4.5161,0.0,4.4872,4.454,4.4378,0.0,0.0,0.0,0.0,4.3515,4.3515,4.3515,4.3515,4.3515,4.3515,4.3515,4.3515,4.3515,4.3515,4.3515,4.3515,4.3515,4.3515,4.3515,4.3883,0.0,0.0,0.0,0.0,0.0,0.0,0.0,0.0,0.0,0.0,0.0,0.0,0.0,0.0,0.0,0.0,0.0,0.0,0.0,0.0,0.0,0.0,0.0,0.0,0.0,0.0,0.0,0.0,4.6085,4.6434,4.7021,4.7278,4.7626,0.0,0.0,0.0,0.0,0.0,0.0,4.8306,4.8306,4.8306,4.8306,4.8306,4.8306,4.8306,4.8306,4.8306,4.8306,4.8306,4.8306,4.8306,4.8306,4.8306,4.8306,4.8306,4.8306,4.8251,4.7645,4.7406,4.7461,4.8086,4.8306,4.8306,4.8306,4.8306,4.8252,4.7956,4.799,4.8215,4.8445,4.8672,4.9017,4.998,0.0,0.0,0.0,0.0,4.9067,4.7586,4.7212,4.699,4.6144,4.5932,4.5874,4.5652,4.5522,4.5495,0.0,4.5211,4.4837,4.4732,0.0,0.0,0.0,0.0,4.3597,4.3496,4.3515,4.3515,4.3515,4.3515,4.3515,4.3515,4.3515,4.3515,4.3515,4.3515,4.3515,4.3515,4.3699,4.4195,4.5002,0.0,0.0,0.0,0.0,0.0,0.0,0.0,0.0,0.0,0.0,0.0,0.0,0.0,0.0,0.0,0.0,0.0,0.0,0.0,0.0,0.0,0.0,0.0,0.0,0.0,0.0,0.0,0.0,0.0,4.7094,4.7755,0.0,0.0,0.0,0.0,4.8306,4.8306,4.8306,4.8306,4.8306,4.8306,4.8306,4.8306,4.8306,4.8306,4.8306,4.8306,4.8306,4.8306,4.8306,4.8306,4.8306,4.8306,4.8306,4.8306,4.8306,4.8306,4.8269,4.8251,4.8251,4.8288,4.8306,4.8306,4.8306,4.8306,4.8306,4.827,4.8775,4.9418,4.9433,4.9942,5.0596,5.0644,5.0683,0.0,0.0,4.9394,4.9183,4.8279,4.8048,4.7836,4.7028,4.6827,4.6605,4.5787,4.5342,4.5222,0.0,4.5577,4.5448,4.5129,0.0,4.4806,4.4073,4.3971,4.3865,4.3548,4.3515,4.3515,4.3515,4.3515,4.3515,4.3515,4.3515,4.3515,4.3515,4.3515,4.3515,4.3515,4.4232,4.5021,4.581,4.6617,0.0,0.0,0.0,0.0,0.0,0.0,0.0,0.0,0.0,0.0,0.0,0.0,0.0,0.0,0.0,0.0,0.0,0.0,0.0,0.0,0.0,0.0,0.0,0.0,0.0,0.0,0.0,0.0,4.7865,4.8141,0.0,4.8306,4.8306,4.8306,4.8306,4.8306,4.8306,4.8306,4.8306,4.8306,4.8306,4.8306,4.8306,4.8306,4.8306,4.8306,4.8306,4.8306,4.8306,4.8306,4.8306,4.8306,4.8306,4.8306,4.8306,4.8306,4.8306,4.8306,4.8306,4.8306,4.8306,4.8306,4.8306,4.8306,4.8344,4.8604,4.8863,4.9202,4.9719,5.026,5.0712,5.0712,5.0712,5.0635,5.0327,5.025,5.0029,4.9163,4.8933,4.8721,4.7875,4.7278,4.6817,4.6509,4.5907,4.5467,4.5577,4.5429,4.5232,4.5118,4.5096,4.4943,4.4474,4.4392,4.435,4.4209,4.3989,4.3836,4.3836,4.3629,4.3515,4.3515,4.3515,4.3515,4.3515,4.3515,4.3718,4.425,4.4562,4.5315,4.6636,4.6947,4.7498,0.0,0.0,0.0,0.0,0.0,0.0,0.0,0.0,0.0,0.0,0.0,0.0,0.0,0.0,0.0,0.0,0.0,0.0,0.0,0.0,0.0,0.0,0.0,0.0,0.0,0.0,4.8495,4.8495,4.8383,4.8306,4.8306,4.8306,4.8306,4.8306,4.8306,4.8306,4.8306,4.8306,4.8306,4.8306,4.8306,4.8306,4.8306,4.8306,4.8306,4.8306,4.8306,4.8306,4.8306,4.8306,4.8306,4.8306,4.8306,4.8306,4.8306,4.8306,4.8306,4.8306,4.8306,4.8306,4.8306,4.8306,4.8383,4.8568,4.9123,4.9292,4.9431,5.008,5.0483,5.0712,5.0712,5.0712,5.0712,5.0712,5.0712,5.0577,4.999,4.9837,4.9625,4.8759,4.8125,4.7586,4.7019,4.6451,4.5951,4.5671,4.5419,4.5263,4.5263,4.5263,4.515,4.4825,4.4776,4.4739,4.4606,4.4378,4.4146,4.3998,4.3804,4.3612,4.3496,4.3515,4.3515,4.3515,4.3515,4.3864,4.4654,4.4966,4.5718,4.7076,4.7369,4.7755,4.8306,0.0,0.0,0.0,0.0,0.0,0.0,0.0,0.0,0.0,0.0,0.0,0.0,0.0,0.0,0.0,0.0,0.0,0.0,0.0,0.0,0.0,0.0,0.0,4.9504,4.9171,4.893,4.893,4.8568,4.8325,4.8325,4.8306,4.8306,4.8325,4.8325,4.8325,4.8325,4.8325,4.8325,4.8306,4.8306,4.8306,4.8306,4.8306,4.8306,4.8306,4.8306,4.8306,4.8306,4.8306,4.8306,4.8306,4.8306,4.8306,4.8306,4.8306,4.8306,4.8306,4.8306,4.8306,4.8306,4.8325,4.8586,4.9043,4.9827,5.0104,5.0183,5.0565,5.0712,5.0712,5.0712,5.0712,5.0712,5.0712,5.0712,5.0712,5.0712,5.0712,5.05,4.9644,4.9413,4.8952,4.7336,4.6942,4.6644,4.5806,4.5614,4.5594,4.5594,4.5594,4.5495,4.515,4.5126,0.0,4.467,4.4618,4.4474,4.4058,4.4016,4.3865,4.3531,4.3515,4.3515,4.3515,4.3533,4.3901,4.4691,4.5516,4.6324,4.7113,4.7901,4.8306,4.8325,0.0,0.0,0.0,0.0,0.0,0.0,0.0,0.0,0.0,0.0,0.0,0.0,0.0,0.0,0.0,0.0,0.0,0.0,0.0,0.0,0.0,0.0,4.9827,4.9532,4.9401,4.9341,4.9341,4.898,4.8745,4.8745,4.8458,4.8421,4.8709,4.8745,4.8745,4.8745,4.8745,4.8604,4.8306,4.8306,4.8306,4.8306,4.8306,4.8306,4.8306,4.8306,4.8306,4.8306,4.8306,4.8306,4.8306,4.8306,4.8306,4.8306,4.8306,4.8306,4.8306,4.8306,4.8306,4.8344,4.864,4.9171,4.98,5.0012,5.0283,5.0554,5.0663,5.0712,5.0712,5.0712,5.0712,5.0712,5.0712,5.0712,5.0712,5.0712,5.0712,5.0635,5.0404,4.9856,4.926,4.8817,4.7759,4.6827,4.6586,4.6028,4.5594,4.5594,4.5594,4.5568,4.5485,4.5457,0.0,4.5342,4.5118,4.4837,4.4455,4.4161,4.3865,4.3531,4.3515,4.3515,4.3515,4.4048,4.4727,4.5535,4.6342,4.7149,4.7957,4.8196,4.8439,0.0,0.0,0.0,0.0,0.0,0.0,0.0,0.0,0.0,0.0,0.0,0.0,0.0,0.0,0.0,0.0,0.0,0.0,0.0,0.0,0.0,0.0,5.0249,5.0272,5.0043,4.9872,4.9746,4.9746,4.9401,4.9155,4.9155,4.893,4.8915,4.9139,4.9155,4.9155,4.9155,4.9155,4.9027,4.8813,4.8796,4.8796,4.8796,4.8796,4.8728,4.855,4.8728,4.8622,4.8306,4.8658,4.8622,4.8306,4.8495,4.8458,4.8306,4.8306,4.8402,0.0,0.0,0.0,0.0,0.0,4.9687,5.0116,5.0283,5.0493,5.0712,5.0712,5.0712,5.0712,5.0712,5.0712,5.0712,5.0712,5.0712,5.0712,5.0712,5.0712,5.0712,5.0712,5.0308,4.9837,4.9471,4.8625,4.774,4.7038,4.649,0.0,4.5671,4.5594,4.5594,4.5594,4.5594,4.5594,4.5594,4.5429,4.5191,4.4849,4.46,4.4332,4.3992,4.3962,0.0,0.0,0.0,4.5362,4.6361,4.7352,0.0,0.0,0.0,4.8932,4.9155,0.0,0.0,0.0,4.9475,4.9575,0.0,0.0,0.0,0.0,0.0,0.0,0.0,0.0,0.0,0.0,0.0,0.0,0.0,0.0,0.0,0.0,5.0472,5.0712,5.0712,5.0399,5.0171,5.0171,4.9813,4.9561,4.9561,4.9518,4.9518,4.9561,4.9561,4.9561,4.9561,0.0,0.0,0.0,0.0,4.9489,4.9489,4.9489,4.9326,4.898,4.9326,4.9142,4.8458,4.9171,4.911,4.8458,4.8813,4.878,4.8439,4.8439,4.8658,4.893,4.8568,4.8675,4.9123,4.984,5.0135,5.0225,5.0584,0.0,0.0,5.0712,5.0712,5.0712,5.0712,5.0712,5.0712,5.0712,5.0712,5.0712,5.0712,5.0712,5.0712,5.0712,5.0712,5.05,4.9702,4.9471,4.8952,4.7471,4.7096,4.6759,4.5902,4.5671,4.5594,4.5594,4.5594,4.5594,4.5594,4.5594,4.5476,4.5148,0.0,0.0,4.4618,4.4687,4.5046,4.5744,4.5648,4.6102,4.7316,4.8407,4.898,4.898,4.9311,4.9518,4.9561,4.9561,4.9773,5.0159,4.976,4.9787,0.0,0.0,0.0,0.0,0.0,0.0,0.0,0.0,0.0,0.0,0.0,0.0,0.0,0.0,0.0,5.0534,5.0653,5.0712,5.0712,5.0624,5.0575,5.0575,5.0237,4.9974,4.9974,4.9692,4.9617,4.9962,4.9974,4.9974,4.9974,4.9974,4.9846,4.9504,4.9489,4.9489,4.9489,4.9489,4.946,4.9386,0.0,0.0,4.9265,4.9431,4.9416,4.9265,4.9356,4.9341,4.9265,4.9265,4.9311,4.9371,4.9295,4.9518,4.9898,5.0043,5.0313,5.0604,5.0673,5.0712,5.0712,5.0712,5.0712,5.0712,5.0712,5.0712,0.0,5.0712,5.0712,5.0712,5.0712,5.0712,5.0712,5.0712,5.0712,5.0654,5.0481,4.9894,4.9298,4.8971,4.8355,4.7605,4.6797,4.6067,4.5594,4.5594,4.5594,4.5594,4.5594,4.5594,4.5476,4.5148,4.5096,4.4954,4.4618,4.5197,4.5631,4.5782,4.701,4.8092,4.9002,4.9266,4.9386,4.9386,4.946,4.9664,4.9974,4.9974,5.0183,5.0565,5.0171,5.0195,0.0,0.0,0.0,0.0,0.0,0.0,0.0,0.0,0.0,0.0,0.0,5.0159,0.0,0.0,5.0472,5.0663,5.0712,5.0712,5.0712,5.0712,5.0712,5.0712,5.0514,5.0399,5.0399,5.0225,5.0183,5.0399,5.0399,5.0399,5.0399,5.0399,5.0313,5.0104,5.0092,5.0092,5.0092,5.0092,4.9987,4.98,4.9999,4.9898,4.9504,4.9924,4.9885,4.9504,4.9719,4.9692,4.9504,4.9719,4.98,4.9813,5.0031,5.0092,5.0116,5.0325,5.0534,5.0712,5.0712,5.0712,5.0712,5.0712,5.0712,5.0712,5.0712,5.0712,5.0712,5.0712,5.0712,5.0712,5.0712,5.0712,5.0712,5.0712,5.0712,5.0712,5.0712,5.0366,4.9913,4.9471,4.9048,4.849,4.7644,4.7144,4.6567,4.5729,4.5594,4.5594,4.5594,4.5594,4.555,4.5362,4.5744,4.5924,4.5767,4.6892,4.7529,4.7308,4.8504,4.9297,4.9485,4.9706,4.98,4.98,4.9987,5.0195,5.0399,5.0399,5.0493,5.0702,5.0493,5.0504,0.0,0.0,0.0,0.0,0.0,0.0,0.0,0.0,5.0712,5.0712,5.0712,5.0712,5.0712,5.0712,5.0712,5.0712,5.0712,5.0712,5.0712,5.0712,5.0712,5.0712,5.0712,5.0712,5.0712,5.0712,5.0712,5.0712,5.0712,5.0712,5.0712,5.0712,5.0712,5.0712,5.0712,5.0712,5.0712,5.0712,5.0544,5.0225,5.0544,5.0358,4.976,5.041,5.0347,4.9746,5.0068,5.0031,4.976,5.008,5.0225,5.0249,5.0565,5.0493,5.026,5.0575,5.0712,5.0712,5.0712,5.0712,5.0712,5.0712,5.0712,5.0712,5.0712,5.0712,5.0712,5.0712,5.0712,5.0712,5.0712,5.0712,5.0712,5.0712,5.0712,5.0712,5.0712,5.0712,5.05,4.9779,4.9644,4.9375,4.8509,4.8355,4.7836,4.6297,4.6095,4.6095,4.6095,4.6095,4.6095,4.6095,4.6701,4.7201,4.7375,4.8625,4.9325,4.9175,4.9824,5.0068,4.9746,5.0043,5.0225,5.0225,5.0544,5.0712,5.0712,5.0712,5.0712,5.0712,5.0712,5.0712,5.0133,5.0624,5.0712,5.0712,5.0712,5.0712,0.0,0.0,5.0712,5.0712,5.0712,5.0712,5.0712,5.0712,5.0712,5.0712,5.0712,5.0712,5.0712,5.0712,5.0712,5.0712,5.0712,5.0712,5.0712,5.0712,5.0712,5.0712,5.0712,5.0712,5.0712,5.0712,5.0712,5.0712,5.0712,5.0712,5.0712,5.0712,5.0673,5.0624,5.0673,5.0663,5.0565,5.0663,5.0653,5.0565,5.0614,5.0604,5.0565,5.0614,5.0624,5.0643,5.0683,5.0673,5.0653,5.0683,5.0712,5.0712,5.0712,5.0712,5.0712,5.0712,5.0712,5.0712,5.0712,5.0712,5.0712,5.0712,5.0712,5.0712,5.0712,5.0712,5.0712,5.0712,5.0712,5.0712,5.0712,5.0712,5.0673,5.0577,5.0558,5.0289,4.9394,4.924,4.8933,4.7971,4.7817,4.7817,4.7817,4.7817,4.7817,4.7817,4.7913,4.8279,4.9048,4.9298,4.9712,5.0432,5.0586,5.0614,5.0565,5.0614,5.0624,5.0624,5.0673,5.0712,5.0712,5.0712,5.0712,5.0712,5.0712,5.0712,5.0366,5.0712,0.0,0.0,5.0712,5.0712,5.0712,5.0712,5.0712,5.0712,5.0712,5.0712,5.0712,5.0712,5.0712,0.0,5.0712,5.0712,5.0712,5.0712,5.0712,5.0712,5.0712,5.0712,5.0712,5.0712,5.0712,5.0712,5.0712,5.0712,5.0712,5.0712,5.0712,5.0712,5.0712,5.0712,5.0712,5.0712,5.0712,5.0712,5.0712,5.0712,5.0712,5.0712,5.0712,5.0712,5.0712,5.0712,5.0712,5.0712,5.0712,5.0712,5.0712,5.0712,5.0712,5.0712,5.0712,5.0712,5.0712,5.0712,5.0712,5.0712,5.0712,5.0712,5.0712,5.0712,5.0712,5.0712,5.0712,5.0712,5.0712,5.0712,5.0712,5.0712,5.0712,5.0712,5.0712,5.0712,5.0712,5.0712,5.0712,5.0577,5.0231,5.0173,5.0029,4.9663,4.8759,4.8105,4.8105,4.8105,4.8298,4.8798,4.8856,4.9202,5.0067,5.0173,5.0308,5.0673,5.0712,5.0712,5.0712,5.0712,5.0712,5.0712,5.0712,5.0712,5.0712,5.0712,5.0712,5.0712,5.0712,5.0712,5.0539,0.0,0.0,5.0712,5.0712,5.0712,5.0712,5.0712,5.0712,5.0712,5.0712,5.0712,5.0712,5.0712,5.0712,5.0712,5.0712,5.0712,5.0712,5.0712,5.0712,5.0712,5.0712,5.0712,5.0712,5.0712,5.0712,5.0712,5.0712,5.0712,5.0712,5.0712,5.0712,5.0712,5.0712,5.0712,5.0712,5.0712,5.0712,5.0712,5.0712,5.0712,5.0712,5.0712,5.0712,5.0712,5.0712,5.0712,5.0712,5.0712,5.0712,5.0712,5.0712,5.0712,5.0712,5.0712,5.0712,5.0712,5.0712,5.0712,5.0712,5.0712,5.0712,5.0712,5.0712,5.0712,5.0712,5.0712,5.0712,5.0712,5.0712,5.0712,5.0712,5.0712,5.0712,5.0712,5.0712,5.0712,5.0712,5.0712,5.0712,5.0712,5.0712,5.0712,5.0712,5.0712,4.9625,4.8817,4.8817,4.8817,4.9067,4.9683,4.976,5.001,5.0654,5.0712,5.0712,5.0712,5.0712,5.0712,5.0712,5.0712,5.0712,5.0712,5.0712,5.0712,5.0712,5.0712,5.0712,5.0712,5.0712,5.0712,5.0693,0.0,5.0712,5.0712,5.0712,5.0712,5.0712,5.0712,5.0712,5.0712,5.0712,5.0712,5.0712,5.0712,5.0712,5.0712,5.0712,5.0712,5.0712,5.0712,5.0712,5.0712,5.0712,5.0712,0.0,5.0712,5.0712,5.0712,5.0712,5.0712,5.0712,5.0712,5.0712,5.0712,5.0712,5.0712,5.0712,5.0712,5.0712,5.0712,5.0712,5.0712,5.0712,5.0712,5.0712,5.0712,5.0712,5.0712,5.0712,5.0712,5.0712,5.0712,5.0712,5.0712,5.0712,5.0712,5.0712,5.0712,5.0712,5.0712,5.0712,5.0712,5.0712,5.0712,5.0712,5.0712,5.0712,5.0712,5.0712,5.0712,5.0712,5.0712,5.0712,5.0712,5.0712,5.0712,5.0712,5.0712,5.0712,5.0712,5.0712,5.0712,5.0712,5.0712,5.0712,5.0712,5.0654,5.0616,5.0616,5.0616,5.0635,5.0654,5.0654,5.0673,5.0712,5.0712,5.0712,5.0712,5.0712,5.0712,5.0712,5.0712,5.0712,5.0712,5.0712,5.0712,5.0712,5.0712,5.0712,5.0712,5.0712,5.0712,5.0712,0.0,5.0712,5.0712,5.0712,5.0712,5.0712,5.0712,5.0712,5.0712,5.0712,5.0712,5.0712,5.0712,5.0712,5.0712,5.0712,5.0712,5.0712,5.0712,5.0712,5.0712,5.0712,0.0,0.0,0.0,0.0,5.0712,5.0712,5.0712,5.0712,5.0712,5.0712,5.0712,5.0712,5.0712,5.0712,5.0712,5.0712,5.0712,5.0712,5.0712,5.0712,5.0712,5.0712,5.0712,5.0712,5.0712,5.0712,5.0712,5.0712,5.0712,5.0712,5.0712,5.0712,5.0712,5.0712,5.0712,5.0712,5.0712,5.0712,5.0712,5.0712,5.0712,5.0712,5.0712,5.0712,5.0712,5.0712,5.0712,5.0712,5.0712,5.0712,5.0712,5.0712,5.0712,5.0712,5.0712,5.0712,5.0712,5.0712,5.0712,5.0712,5.0712,5.0712,5.0712,5.0712,5.0712,5.0712,5.0712,5.0712,5.0712,5.0712,5.0712,5.0712,5.0712,5.0712,5.0712,5.0712,5.0712,5.0712,5.0712,5.0712,5.0712,5.0712,5.0712,5.0712,5.0712,5.0712,5.0712,5.0712,5.0758,5.0327,5.0462,5.0712,5.0712,5.0712,5.0712,5.0712,5.0712,5.0712,5.0712,5.0712,5.0712,5.0712,5.0712,5.0712,5.0712,5.0712,5.0712,5.0712,5.0712,5.0712,5.0712,5.0712,5.0712,0.0,0.0,0.0,5.0712,5.0712,5.0712,5.0712,5.0712,5.0712,5.0712,5.0712,5.0712,5.0712,5.0712,5.0712,5.0712,5.0712,5.0712,5.0712,5.0712,5.0712,5.0712,5.0712,5.0712,5.0712,5.0712,5.0712,5.0712,5.0712,5.0712,5.0712,5.0712,5.0712,5.0712,5.0712,5.0712,5.0712,5.0712,5.0712,5.0712,5.0712,5.0712,5.0712,5.0712,5.0712,5.0712,5.0712,5.0712,5.0712,5.0712,5.0712,5.0712,5.0766,5.073,5.0721,5.0811,5.0797,5.0791,5.0827,5.0844,5.0844,5.0844,5.0844,5.0805,5.0712,5.0712,5.0712,5.0712,5.0712,5.0712,5.0712,5.0712,5.0712,5.0712,5.0712,5.0712,5.0712,5.0712,5.0712,5.0712,5.0712,5.0712,5.0712,5.0758,5.0764,5.0764,5.0822,5.0894,4.9669,5.0009,5.0673,5.0712,5.0721,5.0712,5.0712,5.0702,5.0712,5.0712,5.0712,5.0712,0.0,0.0,5.0712,5.0712,5.0712,5.0712,5.0712,5.0712,5.0712,0.0,0.0,0.0,0.0,0.0,0.0,5.0712,0.0,5.0712,5.0712,5.0712,5.0712,5.0712,5.0712,5.0712,5.0712,5.0712,5.0712,5.0712,5.0712,5.0712,5.0712,5.0712,5.0712,5.0712,5.0712,5.0712,5.0712,5.0712,5.0712,5.0712,5.0712,5.0712,5.0712,5.0712,5.0712,5.0712,5.0712,5.0712,5.0712,5.0712,5.0712,5.0712,5.0712,5.0712,5.0712,5.0712,5.0702,5.0702,5.0693,5.0712,5.0721,5.0693,5.0712,5.0748,5.0871,5.0797,5.0808,5.1042,5.0997,5.0959,5.1088,5.1089,5.1089,5.1089,5.1089,5.101,5.0748,5.0731,5.0731,5.0731,5.0731,5.0731,5.0731,5.0731,5.0721,5.0712,5.0721,5.0721,5.0712,5.0721,5.0731,5.0731,5.0731,5.0731,5.0731,5.0851,5.0903,5.0911,5.105,5.1094,4.958,4.9865,5.0195,5.0842,5.0925,5.0851,5.0851,5.0764,5.0712,5.0712,5.0712,5.0712,0.0,0.0,0.0,5.0712,5.0712,0.0,5.0712,5.0712,0.0,5.0712,0.0,5.0712,5.0712,5.0712,0.0,0.0,5.0712,5.0712,5.0712,5.0712,5.0712,5.0712,5.0712,5.0712,5.0712,5.0712,5.0712,5.0712,5.0712,5.0712,5.0712,5.0712,5.0712,5.0712,5.0712,5.0712,5.0712,5.0712,5.0712,5.0712,5.0712,5.0712,5.0712,5.0712,5.0712,5.0712,5.0712,5.0712,5.0712,5.0712,5.0712,5.0712,5.0712,5.0712,5.0712,5.0712,5.0764,5.083,5.074,5.0851,5.0952,5.0758,5.0859,5.0979,5.0911,5.094,5.1022,5.1098,5.1063,5.1053,5.1084,5.1089,5.1089,5.1089,5.1089,5.1088,5.101,5.0997,5.0997,5.0997,5.0997,5.0997,5.0997,5.0997,5.0966,5.0859,5.0945,5.094,5.0859,5.0933,5.0997,5.0997,5.0997,5.0997,5.0997,5.102,5.1056,5.1061,5.1074,5.112,4.8647,4.9216,4.9917,5.0403,5.0759,5.0985,5.0985,5.0932,5.0871,5.0871,5.0839,0.0,5.0791,5.074,0.0,0.0,0.0,0.0,5.0712,5.0712,5.0712,0.0,5.0712,0.0,5.0712,5.0712,5.0712,0.0,5.0712,5.0712,5.0712,5.0712,5.0712,5.0712,5.0712,5.0712,5.0712,5.0712,5.0712,5.0712,5.0712,5.0712,5.0712,5.0712,5.0712,5.0712,0.0,5.0712,5.0712,5.0712,5.0712,5.0712,5.0712,5.0712,5.0712,5.0712,5.0712,5.0712,5.0712,5.0712,5.0712,5.0712,5.0749,5.0791,5.0791,5.0839,5.0871,5.0871,5.0932,5.0966,5.0901,5.0985,5.1053,5.0903,5.0991,5.1089,5.1035,5.1064,5.1108,5.1141,5.1184,5.1227,5.1227,5.1227,5.1227,5.1227,5.1227,5.1227,5.1227,5.1156,5.1089,5.1089,5.1089,5.1089,5.1089,5.1089,5.1078,5.0991,5.1067,5.1078,5.0991,5.1053,5.1089,5.1089,5.1089,5.1089,5.1094,5.1128,5.1133,5.1152,5.119,5.1247,4.7462,4.837,4.9534,4.9651,5.0324,5.0942,5.0942,5.1026,5.1089,5.1089,0.0,5.0925,5.0925,5.0822,5.073,5.0748,0.0,5.073,5.0748,5.0748,5.0748,5.0748,5.0748,5.0748,5.0748,5.0748,5.0758,5.0721,5.074,5.0721,5.0693,5.0712,5.0712,5.0712,5.0712,5.0712,5.0712,5.0712,5.0712,5.0712,5.0712,5.0712,5.0712,5.0712,5.0712,5.0712,5.0712,5.0712,5.0712,5.0712,5.0712,5.0712,5.0712,5.0712,5.0712,5.0712,5.0712,5.0693,5.0731,5.074,5.074,5.074,5.0816,5.0896,5.0918,5.101,5.1089,5.1089,5.1103,5.1113,5.1094,5.1117,5.1131,5.1118,5.1117,5.1145,5.1191,5.1177,5.1168,5.1223,5.132,5.1406,5.1406,5.1406,5.1406,5.1406,5.1406,5.1406,5.1406,5.1257,5.1139,5.1139,5.1139,5.1139,5.1139,5.1139,5.1135,5.1117,5.1131,5.1135,5.1117,5.1131,5.1139,5.1139,5.1139,5.1139,5.1139,5.1205,5.1234,5.1234,5.1344,5.1406,4.7378,4.7748,4.8158,4.888,4.9639,5.0188,5.0188,5.0654,0.0,0.0,5.1074,5.1078,5.1078,5.0966,5.0889,5.1016,5.0939,5.0896,5.1022,5.1039,5.1039,0.0,5.1039,5.1039,5.1039,5.1039,0.0,0.0,5.0875,5.0822,5.0702,5.0712,5.0712,5.0712,5.0712,5.0712,5.0712,5.0712,5.0712,5.0712,5.0712,5.0712,5.0712,5.0712,5.0712,5.0712,5.0712,0.0,5.0712,5.0712,5.0712,5.0712,5.0712,5.0712,5.0712,5.0712,5.0712,5.0721,5.0839,5.0875,5.0875,5.0875,5.0879,5.0918,5.1039,5.1074,5.1089,5.1089,5.1145,5.1167,5.1117,5.1222,5.1309,5.1139,5.1224,5.1317,5.121,5.1288,5.1342,5.1365,5.1386,5.1406,5.1406,5.1406,5.1406,5.1406,5.1406,5.1406,5.1406,5.1365,5.1342,5.1342,5.1342,5.1342,5.1342,5.1342,5.1292,5.1188,5.1288,5.1291,5.1185,5.1288,5.1342,5.1342,5.1342,5.1342,5.1342,5.1365,5.1366,5.1366,5.1386,5.1406,4.6816,4.7246,4.7695,4.8125,4.8825,4.9558,5.0009,0.0,0.0,0.0,5.1193,5.1144,5.1144,5.1069,0.0,5.1079,5.1056,5.1033,5.1084,5.1089,0.0,5.1089,5.1089,5.1089,0.0,5.1089,5.1063,5.1016,5.0945,5.0835,5.0702,5.0712,5.0712,5.0712,5.0712,5.0712,5.0712,5.0712,5.0712,5.0712,5.0712,5.0712,5.0712,5.0712,5.0712,5.0712,5.0712,5.0712,5.0712,5.0712,5.0712,5.0712,5.0712,5.0749,5.0797,5.0797,5.0851,5.0911,5.0979,5.101,5.1002,5.104,5.1064,5.1074,5.1129,5.1196,5.1262,5.1262,5.1283,5.1294,5.1252,5.1337,5.1385,5.1277,5.1337,5.1386,5.132,5.1345,5.1406,5.1406,5.1406,5.1406,5.1406,5.1406,5.1406,5.1406,5.1406,5.1406,5.1406,5.1406,5.1406,5.1406,5.1406,5.1406,5.1406,5.1406,5.1366,5.1318,5.1366,5.1366,5.1318,5.1366,5.1406,5.1406,5.1406,5.1406,5.1406,5.1406,5.1406,5.1406,5.1406,5.1406,4.6308,4.6797,4.7324,4.7324,4.7988,4.8808,4.9492,4.9922,0.0,0.0,5.1202,5.124,5.124,5.1184,5.112,0.0,5.1148,5.112,5.1164,5.1168,5.1168,0.0,0.0,0.0,5.1168,5.1168,0.0,5.1116,5.1008,5.0863,5.0702,5.0712,5.0712,5.0712,5.0712,5.0712,5.0712,5.0712,5.0712,5.0712,5.0712,5.0712,5.0712,5.0712,5.0712,5.0712,5.0712,5.0712,5.0693,5.073,5.073,5.0758,5.0764,5.0851,5.0945,5.0945,5.1016,5.1094,5.1122,5.1111,5.1133,5.1221,5.1213,5.1206,5.1236,5.132,5.1406,5.1406,5.1406,5.1406,5.1406,5.1406,5.1406,5.1406,5.1406,5.1406,5.1406,5.1406,5.1406,5.1406,5.1406,5.1406,5.1406,5.1406,5.1406,5.1406,5.1406,5.1406,5.1406,5.1406,5.1406,5.1406,5.1406,5.1406,5.1406,5.1406,5.1406,5.1406,5.1406,5.1406,5.1406,5.1406,5.1406,5.1406,5.1406,5.1406,5.1406,5.1406,5.1406,5.1406,5.1406,5.1406,4.6308,4.6367,4.6426,4.6426,4.707,4.7734,4.7812,0.0,0.0,5.0293,5.0879,5.1386,5.1386,5.1289,5.1232,0.0,0.0,5.1232,5.1363,5.1366,5.1366,5.1366,0.0,0.0,5.1366,5.1366,5.1319,5.1199,5.1124,5.0966,5.0712,5.0712,5.0712,5.0712,5.0712,5.0712,5.0712,5.0712,5.0712,5.0712,5.0712,5.0712,5.0712,5.0712,5.0712,5.0712,5.0712,5.0712,0.0,5.0819,5.0879,5.0901,5.1022,5.1063,5.1074,5.1074,5.1079,5.1108,5.1167,5.1194,5.1204,5.1343,5.1296,5.1213,5.1344,5.1386,5.1406,5.1406,5.1406,5.1406,5.1406,5.1406,5.1406,5.1406,5.1406,5.1406,5.1406,5.1406,5.1406,5.1406,5.1406,5.1406,5.1406,5.1406,5.1406,5.1406,5.1406,5.1406,5.1406,5.1406,5.1406,5.1406,5.1406,5.1406,5.1406,5.1406,5.1406,5.1406,5.1406,5.1406,5.1406,5.1406,5.1406,5.1406,5.1406,5.1406,5.1406,5.1406,5.1406,5.1406,5.1406,5.1406,4.6308,4.6308,4.6308,4.6308,4.6562,4.6953,4.748,0.0,4.8926,4.998,5.0449,5.082,5.1308,5.1365,5.1343,5.1386,5.1365,0.0,5.1387,5.1406,5.1406,5.1406,5.1406,0.0,0.0,0.0,5.1344,5.1208,5.1174,5.1092,5.0959,5.0856,5.0822,5.0822,5.0749,5.0712,5.0712,5.0712,5.0712,5.0712,5.0712,5.0712,5.0712,5.0712,5.0712,5.0702,5.0782,5.0822,0.0,5.0979,5.1027,5.1033,5.1069,5.112,5.1154,5.1154,5.1205,5.1281,5.1317,5.132,5.1322,5.1386,5.1366,5.1322,5.1386,5.1406,5.1406,5.1406,5.1406,5.1406,5.1406,5.1406,5.1406,5.1406,5.1406,5.1406,5.1406,5.1406,5.1406,5.1406,5.1406,5.1406,5.1406,5.1406,5.1406,5.1406,5.1406,5.1406,5.1406,5.1406,5.1406,5.1406,5.1406,5.1406,5.1406,5.1406,5.1406,5.1406,5.1406,5.1406,5.1406,5.1406,5.1406,5.1406,5.1406,5.1406,5.1406,5.1406,5.1406,5.1406,5.1406,5.1406,4.6308,4.6308,4.6308,4.6308,4.6308,4.6465,0.0,0.0,4.8027,4.9512,5.0019,5.0449,5.125,5.1406,5.1406,5.1406,5.1406,5.1406,5.1406,5.1406,5.1406,0.0,0.0,5.1406,0.0,5.1406,5.1365,5.1268,5.1265,5.1249,5.1193,5.1064,5.0984,5.0953,5.0839,5.0757,5.0757,5.0731,5.0712,5.0712,5.0712,5.0712,5.0712,5.0712,5.0712,5.0721,5.0789,5.0835,0.0,5.0985,5.105,5.1056,5.1117,5.1154,5.1206,5.124,5.132,5.1406,5.1406,5.1406,5.1406,5.1406,5.1406,5.1406,5.1406,5.1406,5.1406,5.1406,5.1406,5.1406,5.1406,5.1406,5.1406,5.1406,5.1406,5.1406,5.1406,5.1406,5.1406,5.1406,5.1406,5.1406,5.1406,5.1406,5.1406,5.1406,5.1406,5.1406,5.1406,5.1406,5.1406,5.1406,5.1406,5.1406,5.1406,5.1406,5.1406,5.1406,5.1406,5.1406,5.1406,5.1406,5.1406,5.1406,5.1406,5.1406,5.1406,5.1406,5.1406,5.1406,5.1406,5.1406,4.6308,4.6308,4.6308,4.6308,4.6308,4.6308,0.0,4.6973,4.7851,4.873,4.9609,5.0449,5.125,5.1406,5.1406,5.1406,5.1406,5.1406,5.1406,5.1406,5.1406,0.0,0.0,5.1406,5.1406,5.1406,5.1406,5.1406,5.1406,0.0,5.1406,5.1268,5.1164,5.1094,5.0959,5.0908,5.0908,5.0775,5.0712,5.0712,5.0712,5.0712,5.0712,5.0712,5.0712,5.0712,5.0693,5.0693,0.0,5.0851,5.0889,5.0912,5.1117,5.1201,5.123,5.1344,5.1406,5.1406,5.1406,5.1406,5.1406,5.1406,5.1406,5.1406,5.1406,5.1406,5.1406,5.1406,5.1406,5.1406,5.1406,5.1406,5.1406,5.1406,5.1406,5.1406,5.1406,5.1406,5.1406,5.1406,5.1406,5.1406,5.1406,5.1406,5.1406,5.1406,5.1406,5.1406,5.1406,5.1406,5.1406,5.1406,5.1406,5.1406,5.1406,5.1406,5.1406,5.1406,5.1406,5.1406,5.1406,5.1406,5.1406,5.1406,5.1406,5.1406,5.1406,5.1406,5.1406,5.1406,5.1406,5.1406,4.6308,4.6308,4.6308,4.6308,4.6308,4.6308,4.6308,4.6504,4.6953,4.7832,4.8691,4.957,5.043,5.1035,5.1406,5.1406,5.1406,5.1406,0.0,0.0,0.0,5.1406,5.1406,5.1406,0.0,0.0,5.1406,5.1406,5.1406,5.1406,5.1406,5.1365,5.127,5.1167,5.1079,5.1045,5.1045,5.0997,5.0966,5.0966,5.0966,5.0966,5.0966,5.0966,5.0966,5.0979,5.1025,5.105,5.1059,5.1196,5.1245,5.1249,5.1317,5.1343,5.1344,5.1386,5.1406,5.1406,5.1406,5.1406,5.1406,5.1406,5.1406,5.1406,5.1406,5.1406,5.1406,5.1406,5.1406,5.1406,5.1406,5.1406,5.1406,5.1406,5.1406,5.1406,5.1406,5.1406,5.1406,5.1406,5.1406,5.1406,5.1406,5.1406,5.1406,5.1406,5.1406,5.1406,5.1406,5.1406,5.1406,5.1406,5.1406,5.1406,5.1406,5.1406,5.1406,5.1406,5.1406,5.1406,5.1406,5.1406,5.1406,5.1406,5.1406,5.1406,5.1406,5.1406,5.1406,5.1406,5.1406,5.1406,0.0,4.6308,4.6308,4.6308,4.6308,0.0,4.6308,4.6308,4.6543,4.7422,4.8281,4.918,5.0039,5.0859,5.1406,5.1406,5.1406,5.1406,0.0,0.0,0.0,5.1406,0.0,0.0,0.0,5.1406,5.1406,5.1406,5.1406,5.1406,5.1406,5.1113,5.0916,5.0822,5.1034,5.1141,5.1141,5.1117,5.1089,5.1089,5.1089,5.1089,5.1089,5.1089,5.1089,5.1094,5.1133,5.1158,0.0,5.1247,5.1281,5.1283,5.1317,5.1321,5.1322,5.1386,5.1406,5.1406,5.1406,5.1406,5.1406,5.1406,5.1406,5.1406,5.1406,5.1406,5.1406,5.1406,5.1406,5.1406,5.1406,5.1406,5.1406,5.1406,5.1406,5.1406,5.1406,5.1406,5.1406,5.1406,5.1406,5.1406,5.1406,5.1406,5.1406,5.1406,5.1406,5.1406,5.1406,5.1406,5.1406,5.1406,5.1406,5.1406,5.1406,5.1406,5.1406,5.1406,5.1406,5.1406,5.1406,5.1406,5.1406,5.1406,5.1406,5.1406,5.1406,5.1406,5.1406,5.1406,5.1406,5.1406,0.0,4.6308,4.6308,4.6308,0.0,0.0,4.6308,4.6308,0.0,4.7344,4.8242,4.9141,4.9961,5.082,5.1406,5.1406,5.1406,5.1406,0.0,5.1406,0.0,0.0,5.1406,0.0,5.1406,5.1406,5.1406,5.1406,5.1348,5.1308,5.1308,5.0547,5.0117,5.0117,5.0705,5.1033,5.1033,5.1035,5.104,5.104,5.1098,5.1117,5.1117,5.1117,5.1117,0.0,5.1117,5.1117,5.1117,5.1117,5.1117,5.1131,5.1183,5.1208,5.1234,5.1345,5.1406,5.1406,5.1406,5.1406,5.1406,5.1406,5.1406,5.1406,5.1406,5.1406,5.1406,5.1406,5.1406,5.1406,5.1406,5.1406,5.1406,5.1406,5.1406,5.1406,5.1406,5.1406,5.1406,5.1406,5.1406,5.1406,5.1406,5.1406,5.1406,5.1406,5.1406,5.1406,5.1406,5.1406,5.1406,5.1406,5.1406,5.1406,5.1406,5.1406,5.1406,5.1406,5.1406,5.1406,5.1406,5.1406,5.1406,5.1406,5.1406,5.1406,5.1406,5.1406,5.1406,5.1406,5.1406,5.1406,4.6268,0.0,4.6308,4.6308,4.6308,4.6308,0.0,4.6308,4.6367,4.6562,0.0,4.8965,4.918,5.041,5.1406,5.1406,5.1406,5.1406,5.1406,0.0,0.0,5.1406,5.1406,5.1406,5.1406,5.1406,5.1406,5.1406,5.082,5.0488,5.0488,4.9668,4.9219,4.9219,4.9354,4.9431,4.9431,5.009,5.0419,5.0419,5.1044,5.1337,5.1337,5.1337,5.1337,5.1337,5.1337,5.1337,5.1337,5.1337,5.1337,5.1338,5.1343,5.1345,5.1365,5.1386,5.1406,5.1406,5.1406,5.1406,5.1406,5.1406,5.1406,5.1406,5.1406,5.1406,5.1406,5.1406,5.1406,5.1406,5.1406,5.1406,5.1406,5.1406,5.1406,5.1406,5.1406,5.1406,5.1406,5.1406,5.1406,5.1406,5.1406,5.1406,5.1406,5.1406,5.1406,5.1406,5.1406,5.1406,5.1406,5.1406,5.1406,5.1406,5.1406,5.1406,5.1406,5.1406,5.1406,5.1406,5.1406,5.1406,5.1406,5.1406,5.1406,5.1406,5.1406,5.1406,5.1406,5.1406,5.1406,5.1406,4.5629,4.5975,4.6308,4.6308,4.6308,4.6308,4.6308,4.6308,4.6308,0.0,0.0,4.8906,4.8906,5.0273,5.1406,5.1406,5.1406,0.0,0.0,0.0,5.1406,5.1406,5.1406,5.1406,0.0,5.1074,5.0859,5.0859,5.0078,4.9609,4.9609,4.8789,4.8301,4.8301,4.793,4.8086,4.8887,4.9375,4.9609,4.9609,5.0039,5.0469,5.0859,5.0859,5.1055,5.1406,5.1406,5.1406,5.1406,5.1406,5.1406,5.1406,5.1406,5.1406,5.1406,5.1406,5.1406,5.1406,5.1406,5.1406,5.1406,5.1406,5.1406,5.1406,5.1406,5.1406,5.1406,5.1406,5.1406,5.1406,5.1406,5.1406,5.1406,5.1406,5.1406,5.1406,5.1406,5.1406,5.1406,5.1406,5.1406,5.1406,5.1406,5.1406,5.1406,5.1406,5.1406,5.1406,5.1406,5.1406,5.1406,5.1406,5.1406,5.1406,5.1406,5.1406,5.1406,5.1406,5.1406,5.1406,5.1406,5.1406,5.1406,5.1406,5.1406,5.1406,5.1406,5.1406,5.1406,5.1406,5.1406,5.1406,4.4829,4.5476,4.6112,4.6269,4.6308,4.6308,4.6308,0.0,0.0,0.0,0.0,0.0,4.8691,5.0078,0.0,0.0,0.0,0.0,5.1406,5.1406,5.1406,5.1406,5.1289,0.0,5.1211,5.0488,5.0,5.0,4.9199,4.8691,4.8691,4.7871,4.7402,4.7402,4.6699,4.7012,4.8496,4.8633,4.8691,4.8691,4.8848,4.9297,5.0,5.0,5.0371,5.1016,0.0,0.0,5.1211,5.1211,5.1289,5.1406,5.1406,5.1406,5.1406,5.1406,5.1406,5.1406,5.1406,5.1406,5.1406,5.1406,5.1406,5.1406,5.1406,5.1406,5.1406,5.1406,5.1406,5.1406,5.1406,5.1406,5.1406,5.1406,5.1406,5.1406,5.1406,5.1406,5.1406,5.1406,5.1406,5.1406,5.1406,5.1406,5.1406,5.1406,5.1406,5.1406,5.1406,5.1406,5.1406,5.1406,5.1406,5.1406,5.1406,5.1406,5.1406,5.1406,5.1406,5.1406,5.1406,5.1406,5.1406,5.1406,5.1406,5.1406,5.1406,5.1406,5.1406,5.1406,5.1406,5.1406,4.4621,4.5008,4.5314,4.6093,4.6308,4.6308,4.6308,4.6308,0.0,0.0,0.0,0.0,0.0,4.9219,5.0371,0.0,0.0,5.1406,0.0,0.0,5.1406,5.1406,0.0,5.0371,5.0371,4.9609,4.9101,4.9101,4.8281,4.7793,4.7793,4.6973,4.6504,4.6504,4.6367,4.6426,4.6699,4.7422,4.7793,4.7812,4.8555,4.8965,4.9101,4.9101,4.918,4.9277,0.0,4.9707,5.0371,5.0371,5.0781,5.1406,5.1406,5.1406,5.1406,5.1406,5.1406,5.1406,5.1406,5.1406,5.1406,5.1406,5.1406,5.1406,5.1406,5.1406,5.1406,5.1406,5.1406,5.1406,5.1406,5.1406,5.1406,5.1406,5.1406,5.1406,5.1406,5.1406,5.1406,5.1406,5.1406,5.1406,5.1406,5.1406,5.1406,5.1406,5.1406,5.1406,5.1406,5.1406,5.1406,5.1406,5.1406,5.1406,5.1406,5.1406,5.1406,5.1406,5.1406,5.1406,5.1406,5.1406,5.1406,5.1406,5.1406,5.1406,5.1406,5.1406,5.1406,5.1406,5.1406,5.1406,4.317,4.4055,4.4908,4.5411,4.5915,4.6308,4.6308,4.6308,0.0,0.0,0.0,0.0,0.0,0.0,4.9492,4.9492,0.0,5.0058,5.0058,5.0058,5.0058,0.0,0.0,4.9492,4.9492,4.8711,4.8203,4.8203,4.7383,4.6894,4.6894,4.6523,4.6308,4.6308,4.6308,4.6308,4.6308,4.6699,4.6894,4.6894,4.7305,4.7734,4.8203,4.8203,4.8457,4.8906,0.0,4.9121,4.9492,4.9492,4.9726,5.0098,5.0566,5.0742,5.0801,5.123,5.1406,5.1406,5.1406,5.1406,5.1406,5.1406,5.1406,5.1406,5.1406,5.1406,5.1406,5.1406,5.1406,5.1406,5.1406,5.1406,5.1406,5.1406,5.1406,5.1406,5.1406,5.1406,5.1406,5.1406,5.1406,5.1406,5.1406,5.1406,5.1406,5.1406,5.1406,5.1406,5.1406,5.1406,5.1406,5.1406,5.1406,5.1406,5.1406,5.1406,5.1406,5.1406,5.1406,5.1406,5.1406,5.1406,5.1406,5.1406,5.1406,5.1406,5.1406,5.1406,5.1406,5.1406,5.1406,5.1406,4.1912,4.3015,4.4222,4.4753,0.0,4.6308,4.6308,4.6308,0.0,0.0,0.0,0.0,0.0,4.8008,0.0,4.8867,4.8906,4.8906,4.8906,4.8906,4.8906,4.8906,4.8711,4.8594,4.8594,4.7812,4.7305,4.7305,4.668,4.6308,4.6308,4.6308,4.6308,4.6308,4.6308,4.6308,4.6308,4.6308,4.6308,4.6308,4.6308,4.6641,4.7305,4.7305,4.7656,4.8281,4.8281,4.8418,4.8594,4.8594,4.8711,4.8965,4.9629,5.0019,5.0273,5.0898,5.123,5.1406,5.1406,5.1406,5.1406,5.1406,5.1406,5.1406,5.1406,5.1406,5.1406,5.1406,5.1406,5.1406,5.1406,5.1406,5.1406,5.1406,5.1406,5.1406,5.1406,5.1406,5.1406,5.1406,5.1406,5.1406,5.1406,5.1406,5.1406,5.1406,5.1406,5.1406,5.1406,5.1406,5.1406,5.1406,5.1406,5.1406,5.1406,5.1406,5.1406,5.1406,5.1406,5.1406,5.1406,5.1406,5.1406,5.1406,5.1406,5.1406,5.1406,5.1406,5.1406,5.1406,5.1406,5.1406,4.1738,4.2141,4.2704,4.4463,4.5616,4.6308,4.6308,4.6308,0.0,4.6308,0.0,0.0,0.0,4.7109,4.7969,4.8769,4.8906,4.8906,4.8906,0.0,4.8906,4.8906,4.8183,4.7695,4.7695,4.6914,4.6387,4.6387,4.6348,4.6308,4.6308,4.6308,4.6308,4.6308,4.6308,4.6308,4.6308,4.6308,4.6308,4.6308,4.6308,4.6328,4.6387,4.6387,4.6426,4.6484,4.6484,4.6953,4.7695,4.7695,4.8164,4.8906,4.8965,4.9492,5.0215,5.0273,5.0762,5.1406,5.1406,5.1406,5.1406,5.1406,5.1406,5.1406,5.1406,5.1406,5.1406,5.1406,5.1406,5.1406,5.1406,5.1406,5.1406,5.1406,5.1406,5.1406,5.1406,5.1406,5.1406,5.1406,5.1406,5.1406,5.1406,5.1406,5.1406,5.1406,5.1406,5.1406,5.1406,5.1406,5.1406,5.1406,5.1406,5.1406,5.1406,5.1406,5.1406,5.1406,5.1406,5.1406,5.1406,5.1406,5.1406,5.1406,5.1406,5.1406,5.1406,5.1406,5.1406,5.1406,5.1406,5.1406,4.0959,4.1568,4.2397,4.3643,4.4742,0.0,0.0,4.6308,4.6308,4.6308,4.6308,0.0,0.0,0.0,4.6894,4.7226,4.7285,4.7285,4.7285,4.7285,4.7285,4.7285,4.6992,4.6797,4.6797,4.6484,4.6308,4.6308,4.6308,4.6308,4.6308,4.6308,4.6308,4.6308,4.6308,4.6308,4.6308,4.6308,4.6308,4.6308,4.6308,4.6308,4.6308,4.6308,4.6308,4.6308,4.6308,4.6484,4.6797,4.6797,4.6992,4.7344,4.7871,4.8613,4.9453,5.0,5.0391,5.0723,5.123,5.1406,5.1406,5.1406,5.1406,5.1406,5.1406,5.1406,5.1406,5.1406,5.1406,5.1406,5.1406,5.1406,5.1406,5.1406,5.1406,5.1406,5.1406,5.1406,5.1406,5.1406,5.1406,5.1406,5.1406,5.1406,5.1406,5.1406,5.1406,5.1406,5.1406,5.1406,5.1406,5.1406,5.1406,5.1406,5.1406,5.1406,5.1406,5.1406,5.1406,5.1406,5.1406,5.1406,5.1406,5.1406,5.1406,5.1406,5.1406,5.1406,5.1406,5.1406,5.1406,5.1406,4.0566,4.1144,4.1961,4.2822,0.0,0.0,4.5683,4.6094,4.6308,4.6308,4.6308,0.0,0.0,0.0,0.0,0.0,4.6308,4.6308,4.6308,4.6308,4.6308,4.6308,4.6308,4.6308,4.6308,4.6308,4.6308,4.6308,4.6308,4.6308,4.6308,4.6308,4.6308,4.6308,4.6308,4.6308,4.6308,4.6308,4.6308,4.6308,4.6308,4.6308,4.6308,4.6308,4.6308,4.6308,4.6308,4.6308,4.6308,4.6308,4.6308,4.6367,4.6953,4.7715,4.8555,4.916,4.9726,5.0273,5.082,5.1191,5.1406,5.1406,5.1406,5.1406,5.1406,5.1406,5.1406,5.1406,5.1406,5.1406,5.1406,5.1406,5.1406,5.1406,5.1406,5.1406,5.1406,5.1406,5.1406,5.1406,5.1406,5.1406,5.1406,5.1406,5.1406,5.1406,5.1406,5.1406,5.1406,5.1406,5.1406,5.1406,5.1406,5.1406,5.1406,5.1406,5.1406,5.1406,5.1406,5.1406,5.1406,5.1406,5.1406,5.1406,5.1406,5.1406,5.1406,5.1365,5.1343,5.1342,5.1315,5.1309,4.0697,4.0852,4.1211,0.0,0.0,0.0,4.4785,4.5664,4.6308,4.6308,4.6308,4.6308,4.6308,0.0,0.0,4.6308,4.6308,4.6308,4.6308,4.6308,4.6308,4.6308,4.6308,4.6308,4.6308,4.6308,4.6308,4.6308,4.6308,4.6308,4.6308,4.6308,4.6308,4.6308,4.6308,4.6308,4.6308,4.6308,4.6308,4.6308,4.6308,4.6308,4.6308,4.6308,4.6308,4.6308,4.6308,4.6308,4.6308,4.6308,4.6308,4.6308,4.6308,4.6836,4.7598,4.7598,4.8691,5.0176,5.0195,5.0723,5.1387,5.1406,5.1406,5.1406,5.1406,5.1406,5.1406,5.1406,5.1406,5.1406,5.1406,5.1406,5.1406,5.1406,5.1406,5.1406,5.1406,5.1406,5.1406,5.1406,5.1406,5.1406,5.1406,5.1406,5.1406,5.1406,5.1406,5.1406,5.1406,5.1406,5.1406,5.1406,5.1406,5.1406,5.1406,5.1406,5.1406,5.1406,5.1406,5.1406,5.1406,5.1406,5.1406,5.1406,5.1406,5.1406,5.1406,5.1267,5.1201,5.1201,5.1128,5.1089,4.0667,4.0776,0.0,4.2061,0.0,0.0,0.0,4.5234,0.0,0.0,4.6308,4.6308,4.6308,0.0,0.0,4.6308,4.6308,4.6308,4.6308,4.6308,4.6308,4.6308,4.6308,4.6308,4.6308,4.6308,4.6308,4.6308,4.6308,4.6308,4.6308,4.6308,4.6308,4.6308,4.6308,4.6308,4.6308,4.6308,4.6308,4.6308,4.6308,4.6308,4.6308,4.6308,4.6308,4.6308,4.6308,4.6308,4.6308,4.6308,4.6308,4.6308,4.6308,4.6465,4.6758,4.7363,4.793,4.8555,4.9766,5.0351,5.0644,5.1211,5.1406,5.1406,5.1406,5.1406,5.1406,5.1406,5.1406,5.1406,5.1406,5.1406,5.1406,5.1406,5.1406,5.1406,5.1406,5.1406,5.1406,5.1406,5.1406,5.1406,5.1406,5.1406,5.1406,5.1406,5.1406,5.1406,5.1406,5.1406,5.1406,5.1406,5.1406,5.1406,5.1406,5.1406,5.1406,5.1406,5.1406,5.1406,5.1406,5.1406,5.1406,5.1406,5.1406,5.1345,5.1265,5.121,5.1177,5.1124,5.1108,5.1089,4.0771,4.0899,0.0,4.1719,4.2125,4.2637,4.3496,0.0,0.0,0.0,0.0,4.6308,4.6308,4.6308,0.0,4.6308,4.6308,4.6308,4.6308,4.6308,4.6308,4.6308,4.6308,4.6308,4.6308,4.6308,4.6308,4.6308,4.6308,4.6308,4.6308,4.6308,4.6308,4.6308,4.6308,4.6308,4.6308,4.6308,4.6308,4.6308,4.6308,4.6308,4.6308,4.6308,4.6308,4.6308,4.6308,4.6308,4.6308,4.6308,4.6308,4.6308,4.6308,4.6308,4.6367,4.6894,4.7305,4.7754,4.8808,4.9629,5.0273,5.0762,5.1133,5.1406,5.1406,5.1406,5.1406,5.1406,5.1406,5.1406,5.1406,5.1406,5.1406,5.1406,5.1406,5.1406,5.1406,5.1406,5.1406,5.1406,5.1406,5.1406,5.1406,5.1406,5.1406,5.1406,5.1406,5.1406,5.1406,5.1406,5.1406,5.1406,5.1406,5.1406,5.1406,5.1406,5.1406,5.1406,5.1406,5.1406,5.1406,5.1406,5.1406,5.1406,5.1344,5.1273,5.1204,5.1117,5.1055,5.1027,5.0979,5.0945,4.0959,4.1082,0.0,4.1191,4.1758,0.0,4.3379,4.4199,4.5039,4.5996,0.0,4.6308,4.6308,4.6308,4.6308,4.6308,4.6308,4.6308,4.6308,4.6308,4.6308,4.6308,4.6308,4.6308,4.6308,4.6308,4.6308,4.6308,4.6308,4.6308,4.6308,4.6308,4.6308,4.6308,4.6308,4.6308,4.6308,4.6308,4.6308,4.6308,4.6308,4.6308,4.6308,4.6308,4.6308,4.6308,4.6308,4.6308,4.6308,4.6308,4.6308,4.6308,4.6308,4.6308,4.6308,4.6308,4.6797,4.748,4.7578,4.8691,5.0098,5.0176,5.0742,5.1406,5.1406,5.1406,5.1406,5.1406,5.1406,5.1406,5.1406,5.1406,5.1406,5.1406,5.1406,5.1406,5.1406,5.1406,5.1406,5.1406,5.1406,5.1406,5.1406,5.1406,5.1406,5.1406,5.1406,5.1406,5.1406,5.1406,5.1406,5.1406,5.1406,5.1406,5.1406,5.1406,5.1406,5.1406,5.1406,5.1387,5.1386,5.1387,5.1406,5.1406,5.1268,5.1199,5.1194,5.0994,5.0901,5.0879,5.0757,5.0712,4.0959,4.1023,0.0,0.0,4.1328,4.168,4.248,4.2812,4.3398,4.4961,4.582,4.6308,4.6308,4.6308,4.6308,4.6308,4.6308,4.6308,4.6308,4.6308,4.6308,4.6308,4.6308,4.6308,4.6308,4.6308,4.6308,4.6308,4.6308,4.6308,4.6308,4.6308,4.6308,4.6308,4.6308,4.6308,4.6308,4.6308,4.6308,4.6308,4.6308,4.6308,4.6308,4.6308,4.6308,4.6308,4.6308,4.6308,4.6308,4.6308,4.6308,4.6308,4.6308,4.6308,4.6308,4.6308,4.6426,4.668,4.7363,4.8281,4.9297,4.998,5.0742,5.1406,5.1406,5.1406,5.1406,5.1406,5.1406,5.1406,5.1406,5.1406,5.1406,5.1406,5.1406,5.1406,5.1406,5.1406,5.1406,5.1406,5.1406,5.1406,5.1406,5.1406,5.1406,5.1406,5.1406,5.1406,5.1406,5.1406,5.1406,5.1406,5.1406,5.1406,5.1406,5.1406,5.1406,5.1406,5.1406,5.1345,5.1242,5.1344,5.1406,5.1406,5.1268,5.1174,5.1111,5.0979,5.0844,5.0749,5.0712,5.0712,4.1055,0.0,0.0,4.1172,0.0,4.1308,4.1738,4.2129,4.2656,4.3574,4.4785,4.5683,4.5683,4.6016,4.6308,4.6308,4.6308,4.6308,4.6308,4.6308,4.6308,4.6308,4.6308,4.6308,4.6308,4.6308,4.6308,4.6308,4.6308,4.6308,4.6308,4.6308,4.6308,4.6308,4.6308,4.6308,4.6308,4.6308,4.6308,4.6308,4.6308,4.6308,4.6308,4.6308,4.6308,4.6308,4.6308,4.6308,4.6308,4.6308,4.6308,4.6308,4.6308,4.6308,4.6308,4.6308,4.6308,4.6367,4.6816,4.7558,4.8418,4.9297,5.0137,5.0898,5.1289,5.1406,5.1406,5.1406,5.1406,5.1406,5.1406,5.1406,5.1406,5.1406,5.1406,5.1406,5.1406,5.1406,5.1406,5.1406,5.1406,5.1406,5.1406,5.1406,5.1406,5.1406,5.1406,5.1406,5.1406,5.1406,5.1406,5.1406,5.1406,5.1406,5.1406,5.1406,5.1406,5.1406,5.1406,5.1343,5.1206,5.1268,5.1289,5.1264,5.1121,5.1049,5.101,5.0863,5.0775,5.0712,5.0712,5.0712,4.1171,0.0,4.1191,4.1191,4.1191,0.0,4.1191,4.1719,4.2187,4.2187,4.3574,4.4785,4.4785,4.5351,4.5898,4.6055,4.6074,4.6133,4.6289,4.6308,4.6308,4.6308,4.6308,4.6308,4.6308,4.6308,4.6308,4.6308,4.6308,4.6308,4.6308,4.6308,4.6308,4.6308,4.6308,4.6308,4.6308,4.6308,4.6308,4.6308,4.6308,4.6308,4.6308,4.6308,4.6308,4.6308,4.6308,4.6308,4.6308,4.6308,4.6308,4.6308,4.6308,4.6308,4.6308,4.6308,4.6308,4.6308,4.6308,4.6875,4.7734,4.8613,4.9492,5.0351,5.1152,5.1406,5.1406,5.1406,5.1406,5.1406,5.1406,5.1406,5.1406,5.1406,5.1406,5.1406,5.1406,5.1406,5.1406,5.1406,5.1406,5.1406,5.1406,5.1406,5.1406,5.1406,5.1406,5.1406,5.1406,5.1406,5.1406,5.1406,5.1406,5.1406,5.1406,5.1406,5.1406,5.1406,5.1386,5.1317,5.1188,5.1151,5.1117,5.102,5.0933,5.0908,5.0908,5.0775,5.0712,5.0712,5.0712,5.0712,4.1191,0.0,4.1191,0.0,4.1191,4.1191,0.0,0.0,4.1367,0.0,4.2695,4.3867,4.3867,4.3965,4.4297,4.5058,4.5176,4.5449,4.6191,4.6308,4.6308,4.6308,4.6308,4.6308,4.6308,4.6308,4.6308,4.6308,4.6308,4.6308,4.6308,4.6308,4.6308,4.6308,4.6308,4.6308,4.6308,4.6308,4.6308,4.6308,4.6308,4.6308,4.6308,4.6308,4.6308,4.6308,4.6308,4.6308,4.6308,4.6308,4.6308,4.6308,4.6308,4.6308,4.6308,4.6308,4.6308,4.6308,4.6308,4.6875,4.7734,4.8613,4.9492,5.0351,5.1152,5.1406,5.1406,5.1406,5.1406,5.1406,5.1406,5.1406,5.1406,5.1406,5.1406,5.1406,5.1406,5.1406,5.1406,5.1406,5.1406,5.1406,5.1406,5.1406,5.1406,5.1406,5.1406,5.1406,5.1406,5.1406,5.1406,5.1406,5.1406,5.1406,5.1406,5.1406,5.1406,5.1406,5.1295,5.1185,5.1122,5.1002,5.0874,5.0757,5.0851,5.0908,5.0908,5.0775,5.0712,5.0712,5.0712,5.0712,4.1191,4.1191,4.1191,0.0,4.1191,4.1191,4.1191,0.0,4.1191,4.1191,4.1797,4.2441,4.2891,4.3379,4.3828,4.4219,4.4277,4.4414,4.4785,4.4844,4.5019,4.5508,4.5566,4.5762,4.625,4.6308,4.6308,4.6308,4.6308,4.6308,4.6308,4.6308,4.6308,4.6308,4.6308,4.6308,4.6308,4.6308,4.6308,4.6308,4.6308,4.6308,4.6308,4.6308,4.6308,4.6308,4.6308,4.6308,4.6308,4.6308,4.6308,4.6308,4.6308,4.6308,4.6308,4.6308,4.6308,4.6308,4.6308,4.6543,4.7109,4.8457,4.916,4.9707,5.1016,5.1406,5.1406,5.1406,5.1406,5.1406,5.1406,5.1406,5.1406,5.1406,5.1406,5.1406,5.1406,5.1406,5.1406,5.1406,5.1406,5.1406,5.1406,5.1406,5.1406,5.1406,5.1342,5.1294,5.1294,5.1249,5.1243,5.1271,5.1294,5.132,5.1387,5.1406,5.1366,5.1295,5.1236,5.1147,5.0997,5.0932,5.0835,5.0693,5.0757,5.0791,5.0791,5.0721,5.0712,5.0712,5.0712,5.0712,0.0,0.0,4.115,4.1191,4.1171,4.1151,0.0,0.0,4.115,0.0,4.1126,4.1279,4.1884,4.2554,4.3082,4.3253,4.3291,4.3369,4.3584,4.3623,4.3879,4.4568,4.4646,4.4901,4.5566,4.584,4.5976,4.5976,4.6172,4.6308,4.6308,4.6308,4.6308,4.6308,4.6308,4.6308,4.6308,4.6308,4.6308,4.6308,4.6308,4.6308,4.6308,4.6308,4.6308,4.6308,4.6308,4.6308,4.6308,4.6308,4.6308,4.6308,4.6308,4.6308,4.6308,4.6308,4.6308,4.6308,4.6308,4.6308,4.6543,4.8066,4.8711,4.918,5.0644,5.123,5.1406,5.1406,5.1406,5.1406,5.1406,5.1406,5.1406,5.1406,5.1406,5.1406,5.1406,5.1406,5.1406,5.1406,5.1406,5.1386,5.1365,5.1344,5.1343,5.1337,5.1247,5.1174,5.1174,5.1128,5.1126,5.1167,5.1174,5.1223,5.1343,5.134,5.1288,5.1204,5.1148,5.1064,5.0903,5.0883,5.0797,5.0693,5.0712,5.0712,5.0712,5.0712,5.0712,5.0712,5.0712,5.0712,0.0,4.1104,0.0,4.1171,4.1104,0.0,0.0,0.0,4.1019,4.1019,4.0911,4.0836,4.0875,4.102,4.1374,4.2064,4.2186,4.2459,4.3303,4.342,4.3471,4.3652,4.3677,4.3713,4.3828,4.457,4.5078,4.5078,4.582,4.6308,4.6308,4.6308,4.6308,4.6308,4.6308,4.6308,4.6308,4.6308,4.6308,4.6308,4.6308,4.6308,4.6308,4.6308,4.6308,4.6308,4.6308,4.6308,4.6308,4.6308,4.6308,4.6308,4.6308,4.6308,4.6308,4.6308,4.6308,4.6308,4.6308,4.6308,4.6445,4.7363,4.8223,4.9062,4.998,5.0801,5.1406,5.1406,5.1406,5.1406,5.1406,5.1406,5.1406,5.1406,5.1406,5.1406,5.1406,5.1406,5.1406,5.1406,5.1406,5.1365,5.1236,5.1208,5.1185,5.1131,5.1108,5.1103,5.1103,5.1094,5.1094,5.1099,5.1103,5.1133,5.1201,5.1156,5.1137,5.1199,5.1019,5.0911,5.0908,5.0773,5.0702,5.0712,5.0712,5.0712,5.0712,5.0712,5.0712,5.0712,5.0712,5.0712,0.0,0.0,0.0,4.1055,4.0964,4.0877,4.0925,4.0911,4.087,4.087,4.0824,4.0796,4.0738,4.0805,4.0958,4.1217,4.1268,4.1365,4.1681,4.1739,4.1968,4.2568,4.2633,4.2897,4.3575,4.3911,4.4113,4.416,4.4961,4.5469,4.5469,4.5996,4.6308,4.6308,4.6308,4.6308,4.6308,4.6308,4.6308,4.6308,4.6308,4.6308,4.6308,4.6308,4.6308,4.6308,4.6308,4.6308,4.6308,4.6308,4.6308,4.6308,4.6308,4.6308,4.6308,4.6308,4.6308,4.6308,4.6308,4.6308,4.6445,4.7324,4.8183,4.9062,4.9941,5.0762,5.1406,5.1406,5.1406,5.1406,5.1406,5.1406,5.1406,5.1406,5.1406,5.1406,5.1406,5.1406,5.1366,5.1294,5.127,5.1234,5.1156,5.1137,5.1124,5.1099,5.1033,5.0966,5.0966,5.0901,5.0871,5.0953,5.0966,5.1014,5.1128,5.1117,5.1074,5.1017,5.0946,5.0848,5.0784,5.074,5.0712,5.0712,5.0712,5.0712,5.0712,5.0712,5.0712,5.0712,5.0712,5.0712,4.1191,0.0,0.0,0.0,0.0,4.077,4.0789,0.0,4.0761,4.0761,4.0728,4.0685,4.0642,4.067,4.0698,4.0698,4.0698,4.0698,4.0698,4.0698,4.0932,4.1562,4.1625,4.1906,4.2582,4.298,4.3178,4.3237,4.4062,0.0,4.4551,4.5391,4.5996,4.6289,4.6308,4.6308,4.6308,4.6308,4.6308,4.6308,4.6308,4.6308,4.6308,4.6308,4.6308,4.6308,4.6308,4.6308,4.6308,4.6308,4.6308,4.6308,4.6308,4.6308,4.6308,4.6308,4.6308,4.6308,4.6308,4.6308,4.6406,4.6973,4.7754,4.8633,4.9492,5.0332,5.1055,5.1328,5.1406,5.1406,5.1406,5.1406,5.1406,5.1406,5.1406,5.1406,5.1406,5.1366,5.1318,5.121,5.1183,5.1133,5.1047,5.102,5.1022,5.0966,5.0894,5.0827,5.0827,5.0757,5.073,5.0811,5.0827,5.0894,5.1027,5.0991,5.0952,5.0896,5.0867,5.0799,5.0693,5.0712,5.0712,5.0712,5.0712,5.0712,5.0712,5.0712,5.0712,5.0712,5.0712,5.0712,0.0,0.0,0.0,0.0,0.0,0.0,4.0784,0.0,4.0692,4.0692,4.0582,4.0496,4.0496,4.0496,4.0496,4.0496,4.0496,4.0496,4.0496,4.0496,4.0545,4.0674,4.0692,4.0715,4.0785,4.168,4.2264,4.2266,4.3139,4.3652,4.3652,4.4512,4.5391,4.623,4.6289,4.6308,4.6308,4.6308,4.6308,4.6308,4.6308,4.6308,4.6308,4.6308,4.6308,4.6308,4.6308,4.6308,4.6308,4.6308,4.6308,4.6308,4.6308,4.6308,4.6308,4.6308,4.6308,4.6308,4.6308,4.6308,4.6308,4.6308,4.6894,4.7754,4.8633,4.9512,5.0371,5.1172,5.1406,5.1406,5.1406,5.1406,5.1406,5.1406,5.1406,5.1406,5.1406,5.1295,5.1199,5.1199,5.1148,5.1042,5.0911,5.0882,5.0851,5.0731,5.0712,5.0712,5.0712,5.0712,5.0712,5.0712,5.0712,5.0748,5.0886,5.0764,5.0757,5.0886,5.0764,5.0712,5.0712,5.0712,5.0712,5.0712,5.0712,5.0712,5.0712,5.0712,5.0712,5.0712,5.0712,5.0712,4.1191,0.0,0.0,0.0,0.0,0.0,0.0,0.0,4.0552,4.0552,4.0534,4.0496,4.0496,4.0496,4.0496,4.0496,4.0496,4.0496,4.0496,4.0496,4.0519,4.0552,4.0552,4.061,4.0729,4.1014,4.1256,0.0,4.2221,4.2754,4.2754,4.418,4.5117,4.5351,4.5976,4.6308,4.6308,4.6308,4.6308,4.6308,4.6308,4.6308,4.6308,4.6308,4.6308,4.6308,4.6308,4.6308,4.6308,4.6308,4.6308,4.6308,4.6308,4.6308,4.6308,4.6308,4.6308,4.6308,4.6308,4.6308,4.6308,4.6308,4.6894,4.7754,4.8633,4.9512,5.0371,5.1172,5.1406,5.1406,5.1406,5.1406,5.1406,5.1406,5.1406,5.1406,5.1406,5.1269,5.1124,5.1124,5.1036,5.0911,5.0773,5.0757,5.073,5.0702,5.0712,5.0712,5.0712,5.0712,5.0712,5.0712,5.0712,5.0721,5.0748,5.0712,5.0721,5.0748,5.0731,5.0712,5.0712,5.0712,5.0712,5.0712,5.0712,5.0712,5.0712,5.0712,5.0712,5.0712,5.0712,5.0712,0.0,0.0,0.0,0.0,0.0,0.0,4.0523,4.0496,4.0496,0.0,4.0496,4.0496,4.0496,4.0496,4.0496,4.0496,4.0496,4.0496,4.0496,4.0496,4.0496,4.0496,4.0496,4.0523,4.061,4.0704,4.0794,4.0878,4.1468,4.1988,4.2383,4.3359,4.4082,4.4453,4.5293,4.5762,4.5762,4.6113,4.6308,4.6308,4.6308,4.6308,4.6308,4.6308,4.6308,4.6308,4.6308,4.6308,4.6308,4.6308,4.6308,4.6308,4.6308,4.6308,4.6308,4.6308,4.6308,4.6308,4.6308,4.6308,4.6308,4.6308,4.6641,4.7285,4.8535,4.9258,4.9902,5.1074,5.1406,5.1406,5.1406,5.1406,5.1406,5.1406,5.1365,5.132,5.132,5.1163,5.102,5.1079,5.0952,5.0799,5.0712,5.0712,5.0712,5.0712,5.0712,5.0712,5.0712,5.0712,5.0712,5.0712,5.0712,5.0712,5.0712,5.0712,5.0712,5.0712,5.0712,5.0712,5.0712,5.0712,5.0712,5.0712,5.0712,5.0712,5.0712,5.0712,5.0712,5.0712,5.0712,5.0712,0.0,0.0,0.0,0.0,0.0,0.0,4.0523,4.0496,4.0496,0.0,4.0496,4.0496,4.0496,4.0496,4.0496,4.0496,4.0496,4.0496,4.0496,4.0496,4.0496,4.0496,4.0496,4.0496,4.0496,4.0623,4.0697,4.0697,4.0893,4.1364,4.2206,4.2344,4.2754,4.3535,4.4394,4.4902,4.5,4.5762,4.6191,4.6308,4.6308,4.6308,4.6308,4.6308,4.6308,4.6308,4.6308,4.6308,4.6308,4.6308,4.6308,4.6308,4.6308,4.6308,4.6308,4.6308,4.6308,4.6308,4.6308,4.6308,4.6308,4.6308,4.6308,4.6621,4.8379,4.8906,4.9258,5.0937,5.1406,5.1406,5.1406,5.1406,5.1406,5.1406,5.1296,5.1204,5.1204,5.1045,5.0939,5.1047,5.0871,5.0712,5.0712,5.0712,5.0712,5.0712,5.0712,5.0712,5.0712,5.0712,5.0712,5.0712,5.0712,5.0712,5.0712,5.0712,5.0712,5.0712,5.0712,5.0712,5.0712,5.0712,5.0712,5.0712,5.0712,5.0712,5.0712,5.0712,5.0712,5.0712,5.0712,5.0712,0.0,0.0,0.0,0.0,0.0,0.0,4.054,4.0496,4.0496,0.0,4.0496,4.0496,4.0496,4.0496,4.0496,4.0496,4.0496,4.0496,4.0496,4.0496,4.0496,4.0496,4.0496,4.0496,4.0496,4.0623,4.0697,4.0697,4.0893,4.1078,4.1264,4.1988,4.248,4.2656,4.3496,4.4297,4.498,4.5176,4.5605,4.6308,4.6308,4.6308,4.6308,4.6308,4.6308,4.6308,4.6308,4.6308,4.6308,4.6308,4.6308,4.6308,4.6308,4.6308,4.6308,4.6308,4.6308,4.6308,4.6308,4.6308,4.6308,4.6308,4.6308,4.6621,4.8379,4.8906,4.9258,5.0937,5.1406,5.1406,5.1406,5.1406,5.1406,5.1406,5.1296,5.1204,5.1204,5.1045,5.0923,5.0939,5.0805,5.0712,5.0712,5.0712,5.0712,5.0712,5.0712,5.0712,5.0712,5.0712,5.0712,5.0712,5.0712,5.0712,5.0712,5.0712,5.0712,5.0712,5.0712,5.0712,5.0712,5.0712,5.0712,5.0712,5.0712,5.0712,5.0712,5.0712,5.0712,5.0712,5.0712,5.0712,0.0,0.0,0.0,4.0955,0.0,0.0,0.0,4.0545,4.0496,4.0496,4.0496,4.0496,4.0496,4.0496,4.0496,4.0496,4.0496,4.0496,4.0496,4.0496,4.0496,4.0496,4.0496,4.0496,4.0496,4.0559,4.063,4.0692,4.0828,4.0925,4.0994,4.1519,4.1797,4.1797,4.2617,4.3262,4.3691,4.457,4.5215,4.5664,4.6094,4.6308,4.6308,4.6308,4.6308,4.6308,4.6308,4.6308,4.6308,4.6308,4.6308,4.6308,4.6308,4.6308,4.6308,4.6308,4.6308,4.6308,4.6308,4.6308,4.6308,4.6308,4.6308,4.6543,4.7851,4.8867,4.9805,5.1055,5.1406,5.1406,5.1406,5.1406,5.1386,5.132,5.1221,5.1125,5.105,5.0913,5.0789,5.0789,5.0758,5.0712,5.0712,5.0712,5.0712,5.0712,5.0712,5.0712,5.0712,5.0712,5.0712,5.0712,5.0712,5.0712,5.0712,5.0712,5.0712,5.0712,5.0712,5.0712,5.0712,5.0712,5.0712,5.0712,5.0712,5.0712,5.0712,5.0712,5.0712,5.0712,5.0712,5.0712,0.0,0.0,0.0,0.0,0.0,4.0817,0.0,0.0,0.0,4.0504,4.0496,0.0,0.0,0.0,0.0,0.0,0.0,0.0,0.0,4.0496,0.0,4.0496,4.0496,4.0496,4.0496,4.0496,4.0537,4.0642,4.0757,4.0847,4.0936,4.1103,4.1191,4.1151,4.1816,4.2246,4.2402,4.3808,4.4668,4.5019,4.5703,4.6133,4.6308,4.6308,4.6308,4.6308,4.6308,4.6308,4.6308,4.6308,4.6308,4.6308,4.6308,4.6308,4.6308,4.6308,4.6308,4.6308,4.6308,4.6308,4.6308,4.6308,4.6406,4.6719,4.7598,4.8945,5.0371,5.1172,5.1406,5.1406,5.1406,5.1386,5.1323,5.1234,5.1125,5.1039,5.0925,5.078,5.0712,5.0712,5.0712,5.0712,5.0712,5.0712,5.0712,5.0712,5.0712,5.0712,5.0712,5.0712,5.0712,5.0712,5.0712,5.0712,5.0712,5.0712,5.0712,5.0712,5.0712,5.0712,5.0712,5.0712,5.0712,5.0712,5.0712,5.0712,5.0712,5.0866,5.0933,5.0933,5.0933,5.101,0.0,0.0,0.0,0.0,4.099,0.0,0.0,0.0,4.063,4.0515,0.0,0.0,0.0,0.0,0.0,0.0,0.0,0.0,4.0496,4.0496,4.0496,4.0496,4.0496,4.0496,4.0496,4.0496,4.0504,4.0527,4.0687,4.0779,4.0735,4.1033,4.1149,4.1025,4.1227,4.168,4.2383,4.2598,4.3476,4.5,4.5098,4.5547,4.6308,4.6308,4.6308,4.6308,4.6308,4.6308,4.6308,4.6308,4.6308,4.6308,4.6308,4.6308,4.6308,4.6308,4.6308,4.6308,4.6308,4.6308,4.6308,4.6308,4.6816,4.7617,4.8496,4.9433,5.0371,5.1172,5.1406,5.1406,5.1406,5.1319,5.121,5.1204,5.1064,5.0918,5.0896,5.078,5.0712,5.0712,5.0712,5.0712,5.0712,5.0712,5.0712,5.0712,5.0712,5.0712,5.0712,5.0712,5.0712,5.0712,5.0712,5.0712,5.0712,5.0712,5.0712,5.0712,5.0712,5.0712,5.0712,5.0712,5.0712,5.0712,5.0712,5.0712,5.0712,5.1414,5.175,5.175,5.175,5.2183,0.0,0.0,0.0,0.0,0.0,0.0,4.088,0.0,4.0727,0.0,0.0,0.0,0.0,0.0,0.0,0.0,4.0496,0.0,0.0,0.0,4.0496,0.0,0.0,0.0,4.061,4.0545,4.0523,4.061,4.0682,4.0726,4.0703,4.0931,4.1054,4.0996,4.1128,4.1367,4.1699,4.2168,4.2773,4.3496,4.4512,4.5195,4.5566,4.6074,4.6308,4.6308,4.6308,4.6308,4.6308,4.6308,4.6308,4.6308,4.6308,4.6308,4.6308,4.6308,4.6308,4.6308,4.6308,4.6308,4.6308,4.6308,4.6543,4.7109,4.8476,4.916,4.9726,5.1035,5.1344,5.1273,5.1273,5.1213,5.1113,5.104,5.0966,5.0879,5.0789,5.074,5.0712,5.0712,5.0712,5.0712,5.0712,5.0712,5.0712,5.0712,5.0712,5.0712,5.0712,5.0712,5.0712,5.0712,5.0712,5.0712,5.0712,5.0712,5.0712,5.0712,5.0712,5.0712,5.0712,5.0712,5.0712,5.0712,5.0712,5.0712,5.0712,5.151,5.2154,5.2654,5.2654,5.2856,3.8066,0.0,0.0,0.0,0.0,0.0,0.0,0.0,0.0,0.0,0.0,0.0,0.0,0.0,0.0,0.0,0.0,4.0496,0.0,4.0496,0.0,0.0,0.0,0.0,0.0,4.0559,4.0537,4.0643,4.0674,4.068,4.0655,4.084,4.0942,4.0922,4.1023,4.1082,4.1082,4.1714,4.2145,4.2399,4.3672,4.4531,4.5019,4.5664,4.6074,4.6308,4.6308,4.6308,4.6308,4.6308,4.6308,4.6308,4.6308,4.6308,4.6308,4.6308,4.6308,4.6308,4.6308,4.6308,4.6308,4.6308,4.6308,4.6621,4.8379,4.8866,4.9196,5.0875,5.1261,5.1171,5.1171,5.1116,5.1027,5.0925,5.0863,5.0822,5.0731,5.0712,5.0712,5.0712,5.0712,5.0712,5.0712,5.0712,5.0712,5.0712,5.0712,5.0712,5.0712,5.0712,5.0712,5.0712,5.0712,5.0712,5.0712,5.0712,5.0712,5.0712,5.0712,5.0712,5.0712,5.0712,5.0712,5.0712,5.0712,5.0712,5.0712,5.176,5.2577,5.3222,5.3453,5.3664,0.0,0.0,0.0,3.9687,0.0,0.0,0.0,0.0,4.0957,0.0,0.0,0.0,0.0,0.0,0.0,0.0,0.0,0.0,0.0,0.0,0.0,0.0,0.0,0.0,0.0,4.0496,4.0496,0.0,4.063,4.063,4.0512,4.0692,4.0775,4.0715,4.079,4.0809,4.0809,4.0969,4.1468,4.2309,4.2438,4.3379,4.5,4.5039,4.5508,4.6308,4.6308,4.6308,4.6308,4.6308,4.6308,4.6308,4.6308,4.6308,4.6308,4.6308,4.6308,4.6308,4.6308,4.6308,4.6308,4.6308,4.6308,4.6621,4.8379,4.8818,4.9055,5.0738,5.1167,5.1099,5.1099,5.101,5.0916,5.0889,5.0789,5.0721,5.0693,5.0712,5.0712,5.0712,5.0712,5.0712,5.0712,5.0712,5.0712,5.0712,5.0712,5.0712,5.0712,5.0712,5.0712,5.0712,5.0712,5.0712,5.0712,5.0712,5.0712,5.0712,5.0712,5.0712,5.0712,5.0712,5.0712,5.0712,5.0712,5.0712,5.0712,5.2356,5.3164,5.3222,5.4068,5.4876,0.0,0.0,3.7812,3.8105,0.0,0.0,0.0,0.0,0.0,0.0,0.0,0.0,0.0,0.0,0.0,0.0,0.0,0.0,0.0,0.0,0.0,0.0,0.0,0.0,0.0,0.0,0.0,0.0,4.0582,4.0545,4.0496,4.0648,4.071,4.0697,4.0776,4.0797,4.0797,4.0831,4.105,4.1445,4.2048,4.2668,4.332,4.4473,4.5156,4.5469,4.6055,4.6308,4.6308,4.6308,4.6308,4.6308,4.6308,4.6308,4.6308,4.6308,4.6308,4.6308,4.6308,4.6308,4.6308,4.6308,4.6308,4.6504,4.7586,4.8289,4.8925,4.9971,5.0602,5.0959,5.0959,5.0863,5.0775,5.0775,5.073,5.0712,5.0712,5.0712,5.0712,5.0712,5.0712,5.0712,5.0712,5.0712,5.0712,5.0712,5.0712,5.0712,5.0712,5.0712,5.0712,5.0712,5.0712,5.0712,5.0712,5.0712,5.0712,5.0712,5.0712,5.0712,5.0712,5.0712,5.0712,5.0712,5.0712,5.0712,5.0712,5.2375,5.3203,5.3241,5.4645,5.5434,3.5975,3.6406,0.0,3.7226,3.7715,0.0,3.9238,0.0,0.0,0.0,0.0,0.0,0.0,0.0,0.0,0.0,0.0,0.0,0.0,4.0496,0.0,0.0,0.0,0.0,0.0,0.0,0.0,4.0623,4.0545,4.0496,0.0,4.0575,4.063,4.063,4.0676,4.0687,4.0687,4.0733,4.0816,4.0899,4.1499,4.1974,4.2417,4.3843,4.4686,4.5058,4.5918,4.6308,4.6308,4.6308,4.6308,4.6308,4.6308,4.6308,4.6308,4.6308,4.6308,4.6308,4.6308,4.6308,4.6308,4.6308,4.6268,4.6379,4.7155,4.7944,4.8712,4.9517,5.026,5.0839,5.0839,5.0766,5.0712,5.0712,5.0712,5.0712,5.0712,5.0712,5.0712,5.0712,5.0712,5.0712,5.0712,5.0712,5.0712,5.0712,5.0712,5.0712,5.0712,5.0712,5.0712,5.0712,5.0712,5.0712,5.0712,5.0712,5.0712,5.0712,5.0712,5.0712,5.0712,5.0712,5.0981,5.1568,5.1279,5.1279,5.1587,5.2972,5.351,5.3241,5.4914,5.5703]}]]